[[{"header":{"parameterUnit":"m.s-1","parameterCategory":1,"la1":30.6,"la2":29.2853,"lo1":-89.7004,"lo2":-87.6739,"dy":0.0162,"dx":0.0183,"nx":112,"ny":82,"refTime":"2023-05-21T00:00:00:Z","depth":0,"parameterNumber":2,"parameterNumberName":"U-component_of_WINDS"},"data":[0.0,0.0,0.0,0.0,0.0,0.0,0.0,0.0,0.0,0.0,0.0,0.0,0.0,0.0,0.0,0.0,0.0,0.0,0.0,0.0,0.0,0.0,0.0,0.0,0.0,0.0,0.0,0.0,0.0,0.0,0.0,0.0,0.0,0.0,0.0,0.0,0.0,0.0,0.0,0.0,0.0,0.0,0.0,0.0,0.0,0.0,0.0,0.0,0.0,0.0,0.0,0.0,0.0,0.0,0.0,0.0,0.0,0.0,0.0,0.0,0.0,0.0,0.0,0.0,0.0,0.0,0.0,0.0,0.0,0.0,0.0,0.0,0.0,0.0,0.0,0.0,0.0,0.0,0.0,0.0,0.0,0.0,0.0,0.0,0.0,0.0,0.0,0.0,0.0,0.0,3.8895,4.0411,4.2993,4.431,4.3633,4.3944,4.2768,3.9382,0.0,0.0,0.0,0.0,0.0,0.0,0.0,0.0,0.0,0.0,0.0,0.0,0.0,0.0,0.0,0.0,0.0,0.0,0.0,0.0,0.0,0.0,0.0,0.0,0.0,0.0,0.0,0.0,0.0,0.0,0.0,0.0,0.0,0.0,0.0,0.0,0.0,0.0,0.0,0.0,0.0,0.0,0.0,0.0,0.0,0.0,0.0,0.0,0.0,0.0,0.0,0.0,0.0,0.0,0.0,0.0,0.0,0.0,0.0,0.0,0.0,0.0,0.0,0.0,0.0,0.0,0.0,0.0,0.0,0.0,0.0,0.0,0.0,0.0,0.0,0.0,0.0,0.0,0.0,0.0,0.0,0.0,0.0,0.0,0.0,0.0,0.0,0.0,0.0,0.0,0.0,0.0,0.0,0.0,0.0,0.0,0.0,0.0,0.0,0.0,0.0,0.0,0.0,0.0,4.0533,4.2821,4.3987,4.431,4.3633,4.3664,4.2609,4.0005,0.0,0.0,0.0,0.0,0.0,0.0,0.0,0.0,0.0,0.0,0.0,0.0,0.0,0.0,0.0,0.0,0.0,0.0,0.0,0.0,0.0,0.0,0.0,0.0,0.0,0.0,0.0,0.0,0.0,0.0,0.0,0.0,0.0,0.0,0.0,0.0,0.0,0.0,0.0,0.0,0.0,0.0,0.0,0.0,0.0,0.0,0.0,0.0,0.0,0.0,0.0,0.0,0.0,0.0,0.0,0.0,0.0,0.0,0.0,0.0,0.0,0.0,0.0,0.0,0.0,0.0,0.0,0.0,0.0,0.0,0.0,0.0,0.0,0.0,0.0,0.0,0.0,0.0,0.0,0.0,0.0,0.0,0.0,0.0,0.0,0.0,0.0,0.0,0.0,0.0,0.0,0.0,0.0,0.0,0.0,0.0,0.0,0.0,0.0,0.0,0.0,0.0,0.0,3.9905,4.1351,4.3387,4.4172,4.4449,4.4141,4.405,4.2952,4.0561,4.0209,0.0,0.0,0.0,0.0,0.0,0.0,0.0,0.0,0.0,0.0,0.0,0.0,0.0,0.0,0.0,0.0,0.0,0.0,0.0,0.0,0.0,0.0,0.0,0.0,0.0,0.0,0.0,0.0,0.0,0.0,0.0,0.0,0.0,0.0,0.0,0.0,0.0,0.0,0.0,0.0,0.0,0.0,0.0,0.0,0.0,0.0,0.0,0.0,0.0,0.0,0.0,0.0,0.0,0.0,0.0,0.0,0.0,0.0,0.0,0.0,0.0,0.0,0.0,0.0,0.0,0.0,0.0,0.0,0.0,0.0,0.0,0.0,0.0,0.0,0.0,0.0,0.0,0.0,0.0,0.0,0.0,0.0,0.0,0.0,0.0,0.0,0.0,0.0,0.0,0.0,0.0,0.0,0.0,0.0,0.0,0.0,0.0,0.0,0.0,0.0,0.0,0.0,4.1237,4.2297,4.362,4.4342,4.468,4.4511,4.4205,4.3092,4.1023,4.0381,0.0,0.0,0.0,0.0,0.0,0.0,0.0,0.0,0.0,0.0,0.0,0.0,0.0,0.0,0.0,0.0,0.0,0.0,0.0,0.0,0.0,0.0,0.0,0.0,0.0,0.0,0.0,0.0,0.0,0.0,0.0,0.0,0.0,0.0,0.0,0.0,0.0,0.0,0.0,0.0,0.0,0.0,0.0,0.0,0.0,0.0,0.0,0.0,0.0,0.0,0.0,0.0,0.0,0.0,0.0,0.0,0.0,0.0,0.0,0.0,0.0,0.0,0.0,0.0,0.0,0.0,0.0,0.0,0.0,0.0,0.0,0.0,0.0,0.0,0.0,0.0,0.0,0.0,0.0,0.0,0.0,0.0,0.0,0.0,0.0,0.0,0.0,0.0,0.0,0.0,0.0,0.0,0.0,0.0,0.0,0.0,0.0,0.0,0.0,0.0,0.0,0.0,4.3062,4.4144,4.4205,4.466,4.4813,4.4343,4.3564,4.2576,4.143,4.0084,0.0,0.0,0.0,0.0,0.0,0.0,0.0,0.0,0.0,0.0,0.0,0.0,0.0,0.0,0.0,0.0,0.0,0.0,0.0,0.0,0.0,0.0,0.0,0.0,0.0,0.0,0.0,0.0,0.0,0.0,0.0,0.0,0.0,0.0,0.0,0.0,0.0,0.0,0.0,0.0,0.0,0.0,0.0,0.0,0.0,0.0,0.0,0.0,0.0,0.0,0.0,0.0,0.0,0.0,0.0,0.0,0.0,0.0,0.0,0.0,0.0,0.0,0.0,0.0,0.0,0.0,0.0,0.0,0.0,0.0,0.0,0.0,0.0,0.0,0.0,0.0,0.0,0.0,0.0,0.0,0.0,0.0,0.0,0.0,0.0,0.0,0.0,0.0,0.0,0.0,0.0,0.0,0.0,0.0,0.0,0.0,0.0,0.0,0.0,0.0,0.0,0.0,4.2909,4.3699,0.0,4.4537,4.4339,4.4158,4.3682,4.2831,4.1292,0.0,0.0,0.0,0.0,0.0,0.0,0.0,0.0,0.0,0.0,0.0,0.0,0.0,0.0,0.0,0.0,0.0,0.0,0.0,0.0,0.0,0.0,0.0,0.0,0.0,0.0,0.0,0.0,0.0,0.0,0.0,0.0,0.0,0.0,0.0,0.0,0.0,0.0,0.0,0.0,0.0,0.0,0.0,0.0,0.0,0.0,0.0,0.0,0.0,0.0,0.0,0.0,0.0,0.0,0.0,0.0,0.0,0.0,0.0,0.0,0.0,0.0,0.0,0.0,0.0,0.0,0.0,0.0,0.0,0.0,0.0,0.0,0.0,0.0,0.0,0.0,0.0,0.0,0.0,0.0,0.0,0.0,0.0,0.0,0.0,0.0,0.0,0.0,0.0,0.0,0.0,0.0,0.0,0.0,0.0,0.0,0.0,0.0,0.0,0.0,0.0,0.0,4.2468,4.298,4.3738,0.0,4.4406,4.4043,4.3925,4.3479,4.2656,4.1344,0.0,0.0,0.0,0.0,0.0,0.0,0.0,0.0,0.0,0.0,0.0,0.0,0.0,0.0,0.0,0.0,0.0,0.0,0.0,0.0,0.0,0.0,0.0,0.0,0.0,0.0,0.0,0.0,0.0,0.0,0.0,0.0,0.0,0.0,0.0,0.0,0.0,0.0,0.0,0.0,0.0,0.0,0.0,0.0,0.0,0.0,0.0,0.0,0.0,0.0,0.0,0.0,0.0,0.0,0.0,0.0,0.0,0.0,0.0,0.0,0.0,0.0,0.0,0.0,0.0,0.0,0.0,0.0,0.0,0.0,0.0,0.0,0.0,0.0,0.0,0.0,0.0,0.0,0.0,0.0,0.0,0.0,0.0,0.0,0.0,0.0,0.0,0.0,0.0,0.0,0.0,0.0,0.0,0.0,0.0,0.0,0.0,0.0,0.0,0.0,0.0,0.0,4.2359,4.3653,4.4625,4.464,4.4398,4.4143,4.375,4.2652,4.1952,0.0,0.0,0.0,0.0,0.0,0.0,0.0,0.0,0.0,0.0,0.0,0.0,0.0,0.0,0.0,0.0,0.0,0.0,0.0,0.0,0.0,0.0,0.0,0.0,0.0,0.0,0.0,0.0,0.0,0.0,0.0,0.0,0.0,0.0,0.0,0.0,0.0,0.0,0.0,0.0,0.0,0.0,0.0,0.0,0.0,0.0,0.0,0.0,0.0,0.0,0.0,0.0,0.0,0.0,0.0,0.0,0.0,0.0,0.0,0.0,0.0,0.0,0.0,0.0,0.0,0.0,0.0,0.0,0.0,0.0,0.0,0.0,0.0,0.0,0.0,0.0,0.0,0.0,0.0,0.0,0.0,0.0,0.0,0.0,0.0,0.0,0.0,0.0,0.0,0.0,0.0,0.0,0.0,0.0,0.0,0.0,0.0,0.0,0.0,0.0,0.0,0.0,0.0,4.2895,4.3873,4.4758,4.5702,4.487,4.4161,4.3901,4.318,4.2347,4.1506,0.0,0.0,0.0,0.0,0.0,0.0,0.0,0.0,0.0,0.0,0.0,0.0,0.0,0.0,0.0,0.0,0.0,0.0,0.0,0.0,0.0,0.0,0.0,0.0,0.0,0.0,0.0,0.0,0.0,0.0,0.0,0.0,0.0,0.0,0.0,0.0,0.0,0.0,0.0,0.0,0.0,0.0,0.0,0.0,0.0,0.0,0.0,0.0,0.0,0.0,0.0,0.0,0.0,0.0,0.0,0.0,0.0,0.0,0.0,0.0,0.0,0.0,0.0,0.0,0.0,0.0,0.0,0.0,0.0,0.0,0.0,0.0,0.0,0.0,0.0,0.0,0.0,0.0,0.0,0.0,0.0,0.0,0.0,0.0,0.0,0.0,0.0,0.0,0.0,0.0,0.0,0.0,0.0,0.0,0.0,0.0,0.0,0.0,0.0,0.0,0.0,0.0,4.3165,4.3913,4.4825,4.6187,4.5281,4.4452,4.402,4.3471,4.271,4.1821,0.0,0.0,0.0,0.0,0.0,0.0,0.0,0.0,0.0,0.0,0.0,0.0,0.0,0.0,0.0,0.0,0.0,0.0,0.0,0.0,0.0,0.0,0.0,0.0,0.0,0.0,0.0,0.0,0.0,0.0,0.0,0.0,0.0,0.0,0.0,0.0,0.0,0.0,0.0,0.0,0.0,0.0,0.0,0.0,0.0,0.0,0.0,0.0,0.0,0.0,0.0,0.0,0.0,0.0,0.0,0.0,0.0,0.0,0.0,0.0,0.0,0.0,0.0,0.0,0.0,0.0,0.0,0.0,0.0,0.0,0.0,0.0,0.0,0.0,0.0,0.0,0.0,0.0,0.0,0.0,0.0,0.0,0.0,0.0,0.0,0.0,0.0,0.0,0.0,0.0,0.0,0.0,0.0,0.0,0.0,0.0,0.0,0.0,0.0,0.0,0.0,0.0,4.3165,4.3958,4.4915,4.6192,4.556,4.4807,4.4072,4.3539,4.3065,4.2436,0.0,0.0,0.0,0.0,0.0,0.0,0.0,0.0,0.0,0.0,0.0,0.0,0.0,0.0,0.0,0.0,0.0,0.0,0.0,0.0,0.0,0.0,0.0,0.0,0.0,0.0,0.0,0.0,0.0,0.0,0.0,0.0,0.0,0.0,0.0,0.0,0.0,0.0,0.0,0.0,0.0,0.0,0.0,0.0,0.0,0.0,0.0,0.0,0.0,0.0,0.0,0.0,0.0,0.0,0.0,0.0,0.0,0.0,0.0,0.0,3.8192,3.8072,0.0,0.0,0.0,0.0,0.0,0.0,0.0,0.0,0.0,0.0,0.0,0.0,0.0,0.0,0.0,0.0,0.0,0.0,0.0,0.0,0.0,0.0,0.0,0.0,0.0,0.0,0.0,0.0,0.0,0.0,0.0,0.0,0.0,0.0,0.0,0.0,0.0,0.0,0.0,0.0,4.3086,4.4362,4.5505,4.6661,4.6159,4.535,4.4317,4.3635,4.2996,4.2204,4.2092,0.0,0.0,0.0,0.0,0.0,0.0,0.0,0.0,0.0,0.0,0.0,0.0,0.0,0.0,0.0,0.0,0.0,0.0,0.0,0.0,0.0,0.0,0.0,0.0,0.0,0.0,0.0,0.0,0.0,0.0,0.0,0.0,0.0,0.0,0.0,0.0,0.0,0.0,0.0,0.0,0.0,0.0,0.0,0.0,0.0,0.0,0.0,0.0,0.0,0.0,0.0,0.0,0.0,0.0,0.0,0.0,0.0,0.0,0.0,3.8779,3.8381,0.0,0.0,0.0,0.0,0.0,0.0,0.0,0.0,0.0,0.0,0.0,0.0,0.0,0.0,0.0,0.0,0.0,0.0,0.0,0.0,0.0,0.0,0.0,0.0,0.0,0.0,0.0,0.0,0.0,0.0,0.0,0.0,0.0,0.0,0.0,0.0,0.0,0.0,0.0,0.0,4.3439,4.4527,4.556,4.6623,4.6372,4.5741,4.482,4.4369,4.36,4.2586,4.2528,0.0,0.0,0.0,0.0,0.0,0.0,0.0,0.0,0.0,0.0,0.0,0.0,0.0,0.0,0.0,0.0,0.0,0.0,0.0,0.0,0.0,0.0,0.0,0.0,0.0,0.0,0.0,0.0,0.0,0.0,0.0,0.0,0.0,0.0,0.0,0.0,0.0,0.0,0.0,0.0,0.0,0.0,0.0,0.0,0.0,0.0,0.0,0.0,0.0,0.0,0.0,0.0,0.0,3.9254,3.9768,4.0598,4.0834,4.1019,4.0928,3.9497,3.8948,3.9085,3.8711,0.0,0.0,0.0,0.0,0.0,0.0,0.0,0.0,0.0,0.0,0.0,0.0,0.0,0.0,0.0,0.0,0.0,0.0,0.0,0.0,0.0,0.0,4.1729,4.191,4.1851,4.179,4.2063,0.0,0.0,0.0,0.0,0.0,0.0,0.0,0.0,0.0,0.0,0.0,4.3783,4.4689,4.5439,4.6462,4.6314,4.5947,4.5318,4.488,4.4226,4.3065,4.289,4.2615,0.0,0.0,0.0,0.0,0.0,0.0,0.0,0.0,0.0,0.0,0.0,0.0,0.0,0.0,0.0,0.0,0.0,0.0,0.0,0.0,0.0,0.0,0.0,0.0,0.0,0.0,0.0,0.0,0.0,0.0,0.0,0.0,3.3856,3.5268,0.0,0.0,0.0,0.0,0.0,0.0,0.0,0.0,0.0,0.0,0.0,0.0,0.0,3.8487,3.8576,3.9861,4.0619,4.0769,4.0995,4.11,4.1265,4.128,4.1325,4.131,4.1115,0.0,3.9743,3.9384,0.0,0.0,0.0,0.0,0.0,0.0,0.0,0.0,0.0,0.0,0.0,0.0,0.0,0.0,0.0,0.0,0.0,0.0,0.0,0.0,0.0,0.0,4.2271,4.2361,4.2734,4.3075,4.3075,4.2254,4.1445,4.1384,4.1309,4.1174,0.0,0.0,0.0,0.0,0.0,0.0,4.382,4.4921,4.5697,4.6226,4.621,4.5858,4.5025,4.4414,4.379,4.3036,4.2498,4.2179,4.2092,4.2092,0.0,0.0,0.0,0.0,0.0,0.0,0.0,0.0,0.0,0.0,0.0,0.0,0.0,0.0,0.0,0.0,0.0,0.0,0.0,0.0,0.0,0.0,0.0,0.0,0.0,0.0,0.0,0.0,0.0,3.4138,3.4685,3.4957,3.503,3.5044,0.0,0.0,0.0,0.0,0.0,0.0,0.0,0.0,0.0,3.8075,3.8719,3.9171,3.9507,4.0309,4.1048,4.1798,4.2036,4.2485,4.3167,4.3167,4.3167,4.3167,4.3167,4.2793,4.2149,4.098,4.0246,3.9851,0.0,0.0,0.0,0.0,3.9866,3.9968,4.0614,4.0902,4.1134,4.1786,0.0,0.0,0.0,0.0,0.0,0.0,0.0,4.1576,4.2108,4.2711,4.3313,4.3453,4.3958,4.4436,4.4436,4.3988,4.3359,4.2455,4.21,4.1846,4.1614,4.1163,0.0,0.0,0.0,4.284,4.4157,4.4946,4.5508,4.5987,4.6046,4.5854,4.5474,4.5213,4.4632,4.3616,4.3311,4.2847,4.2121,4.2092,4.2092,0.0,0.0,0.0,0.0,0.0,0.0,0.0,0.0,0.0,0.0,0.0,0.0,0.0,0.0,0.0,0.0,0.0,0.0,0.0,0.0,0.0,0.0,0.0,0.0,0.0,0.0,0.0,0.0,3.5096,3.543,3.5034,3.5598,3.5787,0.0,0.0,0.0,0.0,0.0,0.0,3.7752,3.8001,3.8585,3.9392,3.9755,4.0162,4.0612,4.1091,4.1909,4.2957,4.3219,4.3803,4.4704,4.4704,4.4619,4.4619,4.4704,4.4522,4.4124,4.2663,4.1938,4.1639,4.1639,4.1534,4.1399,4.1564,4.1639,4.176,4.2289,4.2348,4.2194,4.2788,4.2635,4.2151,4.2294,0.0,0.0,0.0,0.0,4.2712,4.3378,4.3844,4.4293,4.4533,4.4863,4.5206,4.5206,4.5138,4.484,4.3775,4.314,4.2708,4.2441,4.1898,0.0,4.2476,4.2842,4.346,4.4582,4.5098,4.5521,4.5837,4.588,4.588,4.588,4.5721,4.5227,4.4284,4.4081,4.3485,4.2382,4.2324,4.2252,4.2092,0.0,0.0,0.0,0.0,0.0,0.0,0.0,0.0,0.0,0.0,0.0,0.0,0.0,0.0,0.0,0.0,0.0,0.0,0.0,0.0,0.0,0.0,0.0,0.0,0.0,0.0,0.0,0.0,0.0,3.6441,3.6953,0.0,0.0,0.0,0.0,3.7172,3.7767,3.8405,3.9073,3.9639,3.9987,4.0046,4.1279,4.1961,4.199,4.342,4.4218,4.4516,4.4798,4.4926,4.4986,4.4986,4.4803,4.4619,4.4887,4.4971,4.4882,4.4154,4.3289,4.2312,4.2312,4.1938,4.1459,4.2073,4.2312,4.2491,4.3733,4.4167,4.4167,4.4167,4.3615,4.2758,4.2136,4.2379,0.0,0.0,4.4007,4.4317,4.4975,4.517,4.52,4.5244,4.5108,4.4986,4.4986,4.4788,4.4758,4.5117,4.4512,4.382,4.364,0.0,4.3211,4.324,4.4137,4.4865,4.5113,4.5608,4.5851,4.588,4.588,4.588,4.588,4.53,4.4908,4.485,4.4313,4.3674,4.2977,4.2948,4.2687,4.2107,4.2092,0.0,0.0,0.0,0.0,0.0,0.0,0.0,0.0,0.0,0.0,0.0,0.0,0.0,0.0,0.0,0.0,0.0,0.0,0.0,0.0,0.0,0.0,0.0,0.0,0.0,0.0,0.0,0.0,3.707,3.7883,0.0,3.7986,3.8132,3.8434,3.9059,3.9697,4.0525,4.1584,4.1845,4.2339,4.3152,4.3645,4.3892,4.3892,4.4851,4.5157,4.4807,4.5347,4.5552,4.5566,4.5976,4.6077,4.6091,4.659,4.6651,4.6432,4.6197,4.5335,4.4257,4.4257,4.4107,4.3928,4.4167,4.4257,4.4317,4.4781,4.4945,4.4945,4.4945,4.4713,4.4424,4.4198,4.4288,4.4514,4.4689,4.4847,4.5005,4.5229,4.5618,4.5878,4.5809,4.6022,4.6147,4.6075,4.6226,4.6506,4.6682,4.5469,4.4364,4.428,4.4112,4.3957,4.4112,4.4588,4.5127,4.5726,4.5914,4.604,4.6446,4.6127,4.588,4.588,4.5483,4.5165,4.4922,4.4426,4.3949,4.3387,4.2954,4.2824,4.3041,4.2806,4.2673,0.0,0.0,0.0,0.0,0.0,0.0,0.0,0.0,0.0,0.0,0.0,0.0,0.0,0.0,0.0,0.0,0.0,0.0,0.0,0.0,0.0,0.0,0.0,0.0,0.0,0.0,3.8696,3.8304,3.9567,4.0234,3.9581,3.9915,4.0423,4.1033,4.17,4.2528,4.3573,4.3848,4.4356,4.5198,4.5227,4.5329,4.5547,4.5982,4.6084,4.5941,4.6392,4.661,4.6625,4.7047,4.7236,4.7158,4.7468,4.7415,4.7205,4.7061,4.6476,4.5694,4.557,4.5415,4.5251,4.5559,4.5648,4.5678,4.5903,4.5828,4.5648,4.5648,4.5484,4.5289,4.5289,4.5454,4.5648,4.5648,4.5798,4.5963,4.5963,4.6307,4.6625,4.6676,4.6873,4.7141,4.7094,4.7386,4.7603,4.7695,4.6285,4.5169,4.5404,4.4908,4.4602,4.4995,4.5317,4.5692,4.6203,4.6185,4.6355,4.6807,4.6206,4.5877,4.608,4.5724,4.5407,4.5153,4.478,4.4418,4.3787,4.3228,4.3171,4.3617,4.3372,4.3241,4.3241,0.0,0.0,0.0,0.0,0.0,0.0,0.0,0.0,0.0,0.0,0.0,0.0,0.0,0.0,0.0,0.0,0.0,0.0,0.0,0.0,0.0,0.0,0.0,3.7447,3.8986,4.0162,4.0191,4.186,4.2803,4.2237,4.2179,4.244,4.3065,4.3718,4.4342,4.4937,4.559,4.5938,4.5938,4.5967,4.6258,4.6853,4.6896,4.7294,4.8126,4.8141,4.8141,4.8126,4.8141,4.7969,4.7782,4.7478,4.7292,4.7234,4.6844,4.6653,4.6594,4.6206,4.5639,4.5119,4.6028,4.6352,4.6441,4.7085,4.689,4.6352,4.6352,4.5903,4.5349,4.5364,4.5843,4.6381,4.6381,4.686,4.7369,4.7369,4.7369,4.7431,4.7778,4.7747,4.7653,4.7994,4.7969,4.7905,4.8062,4.7146,4.6502,4.7146,4.6002,4.5198,4.5851,4.6475,0.0,4.6497,4.6683,4.6914,4.6967,4.6096,4.5777,4.6353,4.5849,4.5504,4.5504,4.5504,4.5049,4.4238,4.3801,4.3573,4.3661,4.3661,4.3661,4.3661,0.0,0.0,0.0,0.0,0.0,0.0,0.0,0.0,0.0,0.0,0.0,0.0,0.0,0.0,0.0,0.0,0.0,0.0,0.0,0.0,0.0,3.8376,3.887,3.8696,4.0336,4.17,4.215,4.3094,4.3819,4.4095,4.4124,4.4574,4.5692,4.5953,4.6316,4.6954,4.7158,4.7259,4.7259,4.7709,4.7811,4.7521,4.8435,4.8508,4.7876,4.8326,4.8312,4.7876,4.8341,4.8449,4.8478,4.8864,4.8734,4.8254,4.7707,4.7444,4.742,4.6682,4.6386,4.6411,4.6691,4.6852,4.7055,4.7249,4.7189,4.704,4.704,4.6804,4.6468,4.6655,4.7118,4.7465,4.7743,4.8133,4.8462,4.8462,4.8462,4.8416,4.8095,4.8154,4.8121,4.7925,4.813,4.8464,4.8545,4.8268,4.7934,4.7829,4.7401,4.7056,4.723,4.7404,4.768,4.805,4.7702,4.7499,4.7579,4.6871,4.6264,4.5792,4.5407,4.5216,4.5216,4.4862,4.4698,4.462,4.4086,4.3849,4.4028,4.4028,4.4028,0.0,0.0,0.0,0.0,0.0,0.0,0.0,0.0,0.0,0.0,0.0,0.0,0.0,0.0,0.0,0.0,0.0,0.0,0.0,0.0,0.0,0.0,3.9784,4.0597,4.1134,4.2179,4.3108,4.3718,4.4618,4.5314,4.5663,4.5938,4.6417,4.7172,4.7477,4.7782,4.8159,4.842,4.858,4.858,4.8667,4.8682,4.858,4.9045,4.9045,4.858,4.8943,4.8928,4.858,4.8957,4.9132,4.9132,4.9233,4.9074,4.8667,4.8043,4.7782,4.7745,0.0,0.0,0.0,0.0,4.6858,4.7033,4.7121,4.7121,4.7121,4.7121,4.7212,4.7332,4.7347,4.7718,4.8222,4.8327,4.8519,4.8724,4.8724,4.8724,4.8691,4.8571,4.8644,4.8717,4.8617,4.887,4.9132,4.9132,4.9132,0.0,4.8814,4.821,4.7869,4.813,4.8174,4.8304,4.8475,4.8201,4.799,4.8071,4.7295,4.6512,4.5952,4.583,0.0,0.0,0.0,4.4753,4.4415,4.4287,0.0,0.0,0.0,4.4322,4.4322,4.3771,0.0,0.0,4.2881,4.2665,0.0,0.0,0.0,0.0,0.0,0.0,0.0,0.0,0.0,0.0,0.0,0.0,0.0,0.0,0.0,0.0,4.1482,4.276,4.4023,4.4269,4.4501,4.5039,4.6185,4.6969,4.7042,4.755,4.7912,4.7985,4.8522,4.8827,4.8827,4.9364,0.0,0.0,0.0,4.9074,4.9567,4.9074,4.9117,4.9669,4.9669,4.9669,4.9669,4.9669,4.9669,4.964,4.9074,4.8827,4.8783,4.8145,4.784,4.7666,4.6792,4.6795,4.734,4.6947,4.6815,4.6815,4.7066,0.0,0.0,4.7051,4.7437,4.7911,4.7656,4.8021,4.8536,4.8629,4.8688,4.8654,4.8654,4.8654,4.8786,4.9092,4.9238,4.9289,4.965,4.9669,4.9669,4.9669,4.9669,4.9669,4.9669,4.874,4.8188,4.8658,4.8731,4.8635,4.8441,4.833,4.8419,4.8425,4.739,0.0,4.6639,4.6639,4.6143,4.4967,4.5256,4.5016,4.3885,4.4394,4.4528,4.4219,4.4301,4.4317,4.4317,4.4129,4.3818,4.3586,4.3062,4.2957,0.0,0.0,0.0,0.0,0.0,0.0,0.0,0.0,0.0,0.0,0.0,0.0,0.0,0.0,0.0,4.2223,4.3108,4.4066,4.5343,4.5953,4.633,4.6446,4.7129,4.7796,4.8304,4.8478,4.8754,4.9277,4.9422,4.9494,4.9494,4.9611,4.9436,4.8928,4.9291,4.9306,4.8914,4.9291,4.9553,4.9669,4.9669,0.0,4.9669,4.9669,4.9669,4.9669,4.9538,4.9494,4.9436,4.8798,4.8246,4.7753,4.777,4.7926,4.8227,4.8186,4.8142,4.8142,4.8142,4.8233,4.8233,4.8233,4.8124,4.8121,4.8242,4.859,0.0,4.9198,4.9486,4.9802,4.9802,4.9802,4.975,4.9659,4.98,4.9844,4.9752,4.9669,4.9669,4.9669,4.9669,4.9669,4.9669,4.9285,4.9086,4.9202,4.902,4.8808,4.8808,4.8808,4.8566,4.8054,4.7783,4.7358,4.6682,4.6639,4.6231,4.5293,4.4898,4.4481,4.3948,4.4059,4.4167,4.4041,4.3843,4.3899,4.4129,4.3818,4.3519,4.3355,4.3379,4.3338,0.0,0.0,0.0,0.0,0.0,0.0,0.0,0.0,0.0,0.0,0.0,3.9755,0.0,0.0,4.2368,4.334,4.4313,4.5271,4.6229,4.7172,4.7666,4.7346,4.7869,4.8377,4.8696,4.9016,4.9335,4.9654,4.9669,4.9828,5.0148,4.9857,4.9683,4.9698,4.9683,4.9524,4.9204,4.9524,4.9843,5.0177,5.0177,5.0336,5.0641,5.0641,5.0481,5.0177,5.0177,5.0177,5.0148,4.9828,4.9417,4.8931,4.8902,4.8617,4.8155,4.8155,4.8155,4.8141,4.8234,4.8326,4.8326,4.8326,4.8453,4.8623,4.8623,4.8968,4.9479,4.9574,4.9727,4.9878,4.9878,4.9878,4.9878,4.9781,4.9781,4.9878,4.9781,4.9669,4.9669,4.9669,4.9669,4.9683,4.9488,4.9305,4.9108,4.9305,4.9207,4.9009,4.8895,4.8795,4.8567,4.824,4.8113,4.7674,4.6982,4.6643,4.6363,4.6265,4.5482,4.5036,4.494,4.4747,4.4747,4.4747,4.4456,4.447,4.4581,4.4274,4.4078,4.3993,4.4065,4.3901,0.0,0.0,0.0,0.0,0.0,0.0,0.0,0.0,3.8702,3.9088,4.0379,4.1512,4.1628,4.2586,4.3616,4.4414,4.5401,4.6239,4.71,4.7992,4.8485,4.8203,4.8595,4.8914,4.8914,4.9378,4.9669,4.9669,4.9799,5.0046,5.0452,5.009,5.0061,5.0467,4.9959,4.9669,4.9669,4.9669,5.0017,5.067,5.067,5.1004,5.1614,5.1614,5.1338,5.0859,5.0728,5.0598,5.0481,5.0481,5.0261,4.999,4.9781,4.9045,4.8145,4.8145,4.8145,4.8145,4.8319,4.8413,4.8413,4.8413,4.8778,4.9216,4.8914,4.9262,4.9698,4.9828,4.977,4.9727,4.9988,4.9959,4.9857,4.9857,4.9857,4.9857,4.9857,4.977,4.9712,4.9843,4.977,4.9629,4.9464,4.9194,4.9009,4.9108,4.9108,4.9009,4.881,4.8595,4.8395,4.8395,4.8207,4.7923,4.7431,4.6827,4.6687,4.7079,4.6293,4.5747,4.5663,4.5465,4.5365,4.5365,4.5094,4.5007,4.5107,4.4806,4.4705,4.4705,4.4827,4.4542,3.4767,3.5053,3.5926,3.6734,3.7445,3.8359,0.0,0.0,4.1091,4.2223,4.2629,4.2963,4.3558,4.4211,4.5068,4.6316,4.6437,4.685,4.8253,4.8432,4.861,4.9407,4.9524,4.9567,4.9567,4.964,4.9669,4.9669,5.022,5.0336,4.9814,5.0278,5.0322,4.9799,4.9712,4.9669,4.9669,4.9669,5.0017,5.067,5.067,5.1004,5.1614,5.1614,5.1585,5.1483,5.0917,5.0336,4.9785,4.9785,4.9741,4.9781,4.9669,4.9582,4.9465,4.9465,4.9465,4.9465,4.9563,4.9563,4.9563,4.9563,4.9606,4.9664,4.9567,4.9611,4.9799,5.0394,5.0133,4.9944,5.1106,5.0989,5.0569,5.0569,5.0569,5.0569,5.0569,5.009,4.9857,5.0452,4.9892,4.9493,5.004,4.9481,4.8795,4.8595,4.8409,4.8221,4.8221,4.812,4.812,4.812,4.812,4.8092,4.8035,4.7459,4.7037,4.6907,4.6208,4.5663,4.5194,4.5194,4.5094,4.5094,4.4907,4.4907,4.5107,4.4806,4.4705,4.4719,4.5248,4.5166,3.7114,3.706,3.7379,3.9006,3.9619,4.0205,4.141,4.1947,4.2353,4.2876,4.3587,4.4182,4.4458,4.5343,4.6094,0.0,4.7261,4.7926,4.835,4.8519,4.8861,4.9596,4.9349,4.9262,4.964,5.0032,5.0249,5.0249,5.0511,5.0714,5.0801,5.0351,5.0307,5.0786,5.0452,5.0249,5.0249,5.0627,5.0946,5.1236,5.1599,5.2107,5.2731,5.2731,5.2514,5.2136,5.1497,5.1062,5.0815,5.0815,5.0583,5.0249,5.0249,5.0249,5.0249,5.0249,5.0249,5.0249,5.0249,5.0496,5.0743,5.038,5.0249,5.0249,5.0249,4.9988,4.9814,5.0481,5.0191,4.9886,5.083,5.0873,5.067,5.067,5.096,5.112,5.0543,5.0239,5.0024,5.0198,4.9825,4.9753,5.0192,4.9663,4.9263,4.9324,4.8774,4.8308,4.812,4.812,4.812,4.812,4.812,4.812,4.812,4.7577,4.7336,4.7539,4.6652,4.6107,4.6134,4.5826,4.5606,4.5606,4.5502,4.5619,4.5942,4.6179,4.6252,4.6265,4.6862,4.6892,3.8923,3.8923,3.9174,4.0974,4.1497,4.1802,4.2469,4.3079,4.3573,4.3747,4.4516,4.5169,4.5169,4.6084,4.679,4.6778,4.781,4.8591,4.8571,4.8697,4.9064,4.9528,4.9277,4.9175,4.9625,5.0278,5.067,5.067,5.1004,5.1323,5.1599,5.0888,5.083,5.1599,5.1178,5.0931,5.0931,5.1381,5.1701,5.1889,5.2354,5.2905,5.3515,5.3515,5.3167,5.2543,5.2078,5.1788,5.1614,5.1614,5.1352,5.0931,5.0931,5.0931,5.0931,5.0931,5.0815,5.0641,5.0467,5.0815,5.128,5.0815,5.067,5.067,5.067,5.0206,4.9843,5.0699,5.0452,5.0191,5.1106,5.1222,5.1092,5.0991,5.1353,5.1438,5.0773,5.0543,5.037,5.0323,5.0121,5.009,5.0535,5.0006,4.9691,5.022,4.9507,4.8745,4.8401,4.8232,4.819,4.8359,4.8232,4.8018,4.7917,4.7507,4.7405,4.7596,4.6755,4.6509,4.6924,4.6474,4.6343,4.6504,4.6611,4.6731,4.6971,4.7391,4.7608,4.7608,4.8043,4.8028,3.9456,4.0219,4.092,4.1807,4.2498,4.3108,4.3776,4.44,4.501,4.5663,4.5822,4.5851,4.5851,4.6388,4.7027,4.7651,4.81,4.8557,4.919,4.9291,4.9291,4.9305,4.9571,4.9654,0.0,5.0278,5.067,5.067,5.1817,5.2252,5.1657,5.2165,5.2209,5.1643,5.1599,5.1585,5.1585,5.1614,5.1933,5.2543,5.2557,5.2905,5.3515,5.3515,5.3167,5.2572,5.2543,5.2194,5.1614,5.1614,5.1614,5.1585,5.1585,5.1585,5.1585,5.1585,5.1193,5.0583,4.993,5.0148,5.0699,5.0685,5.067,5.067,5.067,5.0206,4.9944,5.1236,5.1135,5.1077,5.265,5.256,5.198,5.168,5.1695,5.1709,5.1695,5.1209,5.0966,5.1566,5.0986,5.0549,5.1173,5.0551,5.0129,5.0747,5.0312,4.9693,4.9089,4.8485,4.8345,4.8949,4.8485,4.7917,4.7405,4.7301,4.7081,4.6533,4.6231,4.6289,4.6894,4.6881,4.7149,4.7741,4.7974,4.8192,4.8192,4.8205,4.8219,4.8219,4.8233,4.8028,4.0995,4.2125,4.3183,4.4342,4.5068,4.5706,4.6359,4.633,4.6359,4.7013,4.6113,4.5358,4.5808,4.6403,4.6804,4.6821,4.8355,4.9536,4.9334,4.9305,4.9404,4.9585,4.9209,0.0,0.0,0.0,5.0859,5.128,5.1701,5.2035,5.2238,5.2049,5.2035,5.2252,5.2252,5.2252,5.2252,5.2673,5.2775,5.2572,5.2992,5.3297,5.35,5.308,5.2992,5.3167,5.2746,5.2688,5.2847,5.2426,5.2252,5.2252,5.2252,5.2252,5.2252,5.2252,5.2107,5.1773,5.0699,5.1033,5.186,5.1439,5.1193,5.1063,5.1481,5.1164,5.0832,5.1683,5.1467,5.1236,5.2185,5.2105,5.1843,5.1737,5.2066,5.2145,5.1612,5.1264,5.1165,5.1166,5.0918,5.0975,5.1487,5.1079,5.0635,5.0845,5.0354,4.9876,4.9679,4.9469,4.9426,4.9623,4.9469,4.9342,4.9134,4.837,4.793,4.8157,4.719,4.6738,4.7157,4.7184,4.7277,4.7491,4.7808,4.8028,4.8246,4.864,4.8829,4.8843,4.9014,4.8978,4.2673,4.3863,4.498,4.6167,4.679,4.7288,4.7601,4.7195,4.694,4.7346,4.6084,4.5024,4.5445,4.5964,4.6307,4.6201,4.7865,4.9161,4.8989,4.9057,4.9242,4.9556,4.9223,4.9233,0.0,0.0,0.0,5.1236,5.1701,5.2136,5.2543,5.2397,5.2484,5.2891,5.2905,5.2905,5.2905,5.3312,5.3312,5.292,5.3312,5.3515,5.35,5.3094,5.3123,5.3486,5.308,5.3138,5.3486,5.308,5.2905,5.2905,5.2905,5.2905,5.2891,5.2659,5.2717,5.2731,5.1454,5.1701,5.2499,5.199,5.164,5.1609,5.1908,5.1503,5.1233,5.1761,5.1646,5.1474,5.1986,5.2066,5.1854,5.1747,5.2045,5.223,5.1618,5.1533,5.1426,5.1318,5.1197,5.1323,5.1716,5.1464,5.1197,5.1197,5.0859,5.0607,5.0607,5.0227,5.0045,5.0269,5.0087,4.996,4.9735,4.8747,4.8301,4.8653,4.7451,4.7001,4.7436,4.7575,4.7668,4.7894,4.8118,4.8329,4.8551,4.9041,4.923,4.9117,4.9381,4.9341,4.4487,4.5503,4.6239,4.7268,4.768,4.7789,4.752,4.7189,4.679,4.6833,4.5808,4.4864,0.0,0.0,4.5566,4.5924,4.6827,4.7693,4.8283,4.8606,4.8948,0.0,0.0,0.0,0.0,0.0,0.0,5.067,5.1846,5.2543,5.2615,5.3196,5.3515,5.3515,5.3515,5.3515,5.3515,5.3515,5.3515,5.3515,5.3515,5.3515,5.3515,5.3515,5.3515,5.3515,5.3515,5.3515,5.3515,5.3515,5.3515,5.3515,5.3515,5.3515,5.3442,5.2847,5.2992,5.3341,5.2136,5.2093,5.2572,5.2246,5.2128,5.2038,5.178,5.138,5.1023,5.1518,5.1689,5.1817,5.2079,5.2235,5.2127,5.1896,5.1787,5.1787,5.1787,5.1787,5.1787,5.1787,5.1787,5.1787,5.1787,5.1787,5.1787,5.1787,5.1787,5.1787,5.1787,5.0775,5.0269,5.0859,5.0396,4.9833,4.9194,4.8627,4.8178,4.7862,4.7113,4.6926,4.7832,4.7832,4.8083,4.8663,4.901,4.9125,4.9125,4.9455,4.9455,4.9125,4.9455,4.9227,4.5938,4.7143,4.8087,4.8311,4.8841,4.9204,4.8928,4.7952,4.7369,4.7845,4.5811,4.4326,0.0,0.0,0.0,4.6341,4.7678,0.0,4.931,4.9661,0.0,4.9629,0.0,5.0423,5.0423,5.0844,0.0,5.1367,5.1672,5.2267,5.3225,5.3428,5.3515,5.3515,5.3515,5.3515,5.3515,5.3515,5.3515,5.3515,5.3515,5.3515,5.3515,5.3515,5.3515,5.3515,5.3515,5.3515,5.3515,5.3515,5.3515,5.3515,5.3515,5.3515,5.3486,5.3341,5.3384,5.3471,5.3152,5.2833,5.2572,5.2454,5.2156,5.1928,5.2295,5.2217,5.1903,5.2059,5.2102,5.2145,5.2193,5.2004,5.1896,5.1787,5.1787,5.1787,5.1787,5.1787,5.1787,5.1787,5.1787,5.1787,5.1787,5.1787,5.1787,5.1787,5.1787,5.1787,5.1787,5.152,5.1271,5.0878,5.0753,5.0546,5.0216,4.9311,4.8973,4.9099,4.8316,4.7819,4.8079,4.8324,4.8518,4.8677,4.901,4.9125,4.9125,4.924,4.924,4.9125,4.901,4.8908,4.7651,4.8391,4.876,4.9227,4.943,4.9357,4.8614,4.7707,4.6915,4.6792,4.4991,4.3676,4.4864,4.4803,4.4989,0.0,0.0,0.0,4.9122,4.9372,4.9675,0.0,5.0438,0.0,5.1062,5.141,5.173,5.202,5.2035,5.2354,5.3065,5.337,5.3515,5.3515,5.3515,5.3515,5.3515,5.3515,5.3515,5.3515,5.3515,5.3515,5.3515,5.3515,5.3515,5.3515,5.3515,5.3515,5.3515,5.3515,5.3515,5.3515,5.3515,5.3515,5.3515,5.3515,5.3515,5.3515,5.3515,5.3178,5.2784,5.2784,5.2469,5.2209,5.2459,5.2235,5.2004,5.2004,5.2004,5.2004,5.2004,5.1896,5.1787,5.1787,5.1787,5.1787,5.1787,5.1787,5.1787,5.1787,5.1787,5.1787,5.1787,5.1787,5.1787,5.1787,5.1787,5.1787,5.1787,5.1787,5.1677,5.1348,5.1017,5.0906,5.092,4.977,4.92,4.9569,4.8766,4.8185,4.8185,4.8431,4.8431,4.8431,4.8663,4.8779,4.8895,4.8895,4.8895,4.8895,4.8792,4.8663,4.9306,4.9335,4.9049,5.0053,4.9808,4.8873,4.7693,4.6857,4.5979,4.5051,0.0,4.3224,4.3964,4.4312,4.483,4.5982,0.0,4.773,4.8658,4.8928,4.9407,5.054,5.0815,5.1149,5.1686,5.1831,5.2093,5.2659,5.2702,5.2702,5.2702,5.3225,5.3515,5.3515,5.3515,5.3515,5.3515,5.3515,5.3515,5.3515,5.3515,5.3515,5.3515,5.3515,5.3515,5.3515,5.3515,5.3515,5.3515,5.3515,5.3515,5.3515,5.3515,5.3515,5.3515,5.3515,5.3515,5.3515,5.3515,5.3319,5.3121,5.3121,5.2894,5.2573,5.2343,5.2004,5.1787,5.1787,5.1787,5.1787,5.1787,5.1787,5.1787,5.1787,5.1787,5.1787,5.1787,5.1787,5.1787,5.1787,5.1787,5.1787,5.1787,5.1787,5.1787,5.1787,5.1787,5.1787,5.1787,5.1677,5.1677,5.1677,5.1128,5.0795,5.1155,4.9897,4.92,4.9569,4.8753,4.8302,4.8302,4.8302,4.8302,4.8302,4.8185,4.8302,4.8677,4.8677,4.8677,4.8792,4.8792,4.8548,5.0119,5.0017,4.9698,5.0481,4.9672,4.8519,4.7592,4.6526,0.0,0.0,4.3531,4.307,4.4516,4.4225,4.4599,4.71,4.7435,4.7889,4.9349,4.9988,5.0423,0.0,5.1599,5.2281,5.2397,5.2876,0.0,5.3341,5.3341,5.3341,5.3341,5.3457,5.3515,5.3515,5.3515,5.3515,5.3515,5.3515,5.3515,5.3515,5.3515,5.3515,5.3515,5.3515,5.3515,5.3515,5.3515,5.3515,5.3515,5.3515,5.3515,5.3515,5.3515,5.3515,5.3515,5.3515,5.3515,5.3515,5.3515,5.3319,5.3121,5.3121,5.268,5.2235,5.2235,5.2004,5.1787,5.1787,5.1787,5.1787,5.1787,5.1787,5.1787,5.1787,5.1787,5.1787,5.1787,5.1787,5.1787,5.1787,5.1787,5.1787,5.1787,5.1787,5.1787,5.1787,5.1787,5.1787,5.1787,5.1348,5.1017,5.1017,5.0123,4.9683,5.0249,4.9341,4.901,4.9556,4.9227,4.8895,4.8895,4.8779,4.8561,4.8561,4.8315,4.8302,4.8677,4.8677,4.8792,4.901,4.901,4.8895,5.0511,5.0438,5.0264,5.0484,4.9404,4.8009,4.6728,0.0,0.0,0.0,4.2779,4.2635,4.3732,4.3864,4.4312,4.6026,4.6746,4.7514,4.8551,4.9248,5.0032,5.1048,5.1701,5.2339,5.2992,5.3341,5.3515,5.3515,5.3515,5.3515,5.3515,5.3515,5.3515,5.3515,5.3515,5.3515,5.3515,5.3515,5.3515,5.3515,5.3515,5.3515,5.3515,5.3515,5.3515,5.3515,5.3515,5.3515,5.3515,5.3515,5.3515,5.3515,5.3515,5.3515,5.3515,5.3515,5.3515,5.3515,5.3319,5.3107,5.2894,5.268,5.2451,5.2235,5.2235,5.2004,5.1787,5.1787,5.1787,5.1787,5.1787,5.1787,5.1787,5.1787,5.1787,5.1787,5.1787,5.1787,5.1787,5.1787,5.1787,5.1787,5.1787,5.1787,5.1787,5.1787,5.1787,5.1787,5.1787,5.1017,5.0572,5.0906,4.9783,4.9341,4.9897,4.924,4.901,4.9569,4.9341,4.901,4.8895,4.8792,4.8677,4.8431,4.8302,4.8418,4.8895,4.8792,4.8792,4.9125,4.901,4.8779,5.0757,5.067,5.0426,5.0486,4.9093,4.7391,4.5815,4.4748,0.0,4.2371,4.2092,4.2281,4.2876,4.3427,4.4023,0.0,4.575,4.6737,4.7651,4.8333,4.9451,0.0,5.1744,0.0,5.3399,5.3515,0.0,5.3515,5.3515,5.3515,5.3515,5.3515,5.3515,5.3515,5.3515,5.3515,5.3515,5.3515,5.3515,5.3515,5.3515,5.3515,5.3515,5.3515,5.3515,5.3515,5.3515,5.3515,5.3515,5.3515,5.3515,5.3515,5.3515,5.3515,5.3515,5.3515,5.3515,5.3515,5.3213,5.3001,5.268,5.2343,5.2235,5.2127,5.2127,5.2004,5.1787,5.1787,5.1787,5.1787,5.1787,5.1787,5.1787,5.1787,5.1787,5.1787,5.1787,5.1787,5.1787,5.1787,5.1787,5.1787,5.1787,5.1787,5.1787,5.1787,5.1787,5.1787,5.1787,5.0795,5.0235,5.0683,4.967,4.9227,4.9897,4.9125,4.901,4.9569,4.9341,4.9125,4.901,4.8895,4.8779,4.8534,4.8418,4.8548,4.9125,4.8792,4.8792,4.9125,4.8895,4.8663,5.1062,5.0485,4.968,5.0817,4.9065,4.6833,4.57,0.0,4.3344,4.2285,4.2092,4.2281,4.2876,4.305,4.3485,0.0,4.498,4.5706,4.7521,4.8333,4.9451,5.1381,0.0,0.0,5.3457,5.3515,5.3515,5.3515,5.3515,5.3515,5.3515,5.3515,5.3515,5.3515,5.3515,5.3515,5.3515,5.3515,5.3515,5.3515,5.3515,5.3515,5.3515,5.3515,5.3515,5.3515,5.3515,5.3515,5.3515,5.3515,5.3515,5.3515,5.3515,5.3515,5.3515,5.3515,5.3515,5.3515,5.3515,5.3092,5.268,5.268,5.2235,5.1787,5.1787,5.1787,5.1787,5.1787,5.1787,5.1787,5.1787,5.1787,5.1787,5.1787,5.1787,5.1787,5.1787,5.1787,5.1787,5.1787,5.1787,5.1787,5.1787,5.1787,5.1787,5.1787,5.1787,5.1787,5.1787,5.0795,5.001,5.0123,4.8983,4.865,4.9569,4.901,4.901,4.9569,4.9569,4.9683,4.9897,4.9683,4.9455,4.9455,4.8895,4.8779,4.9125,4.8792,4.8792,4.9125,4.9125,4.8895,4.9567,4.9878,4.9809,4.9352,4.8121,4.6567,4.5058,0.0,4.3272,4.227,4.2092,4.2165,4.2411,4.2455,4.2615,4.3123,4.3515,4.4284,4.5822,4.6606,4.8014,5.0728,5.128,0.0,0.0,0.0,5.3515,5.3515,5.3152,5.3109,5.3486,5.3515,5.3515,5.3515,5.3515,5.3515,5.3515,5.3515,5.3515,5.3515,5.3515,5.3515,5.3515,5.3515,5.3515,5.3515,5.3515,5.3515,5.3515,5.3515,5.3515,5.3515,5.3515,5.3515,5.3515,5.3515,5.3515,5.3515,5.3319,5.3107,5.2894,5.2559,5.2235,5.2004,5.1896,5.1787,5.1787,5.1787,5.1787,5.1787,5.1787,5.1787,5.1787,5.1787,5.1787,5.1787,5.1787,5.1787,5.1787,5.1787,5.1787,5.1787,5.1787,5.1787,5.1787,5.1787,5.1787,5.1677,5.1334,5.0572,4.9897,4.9783,4.8868,4.8418,4.901,4.901,4.9125,4.9569,4.9783,4.9783,4.9783,4.9683,4.9455,4.9341,4.901,4.9125,4.9341,4.9125,4.901,4.9125,4.8895,4.8663,4.8406,4.9184,4.9521,4.862,4.7577,4.6281,0.0,0.0,4.3113,4.2227,4.2092,4.2092,4.2092,4.2092,4.2092,4.2092,4.26,4.3427,4.4705,4.5459,4.694,4.9756,0.0,5.1062,5.2789,5.3297,5.3515,5.3515,5.3109,5.3036,5.3486,5.3341,5.3326,5.35,5.3515,5.3515,5.3515,5.3515,5.3515,5.3515,5.3515,5.3515,5.3515,5.3515,5.3515,5.3515,5.3515,5.3515,5.3515,5.3515,5.3515,5.3515,5.3515,5.3515,5.3515,5.3515,5.3515,5.3515,5.3319,5.3121,5.3015,5.2573,5.2343,5.2127,5.2004,5.1896,5.1787,5.1787,5.1787,5.1787,5.1787,5.1787,5.1787,5.1787,5.1787,5.1787,5.1787,5.1787,5.1787,5.1787,5.1787,5.1787,5.1787,5.1787,5.1787,5.1787,5.1677,5.1348,5.0906,5.0348,4.9783,4.9569,4.8881,4.8548,4.8792,4.8895,4.9125,4.9455,4.9683,4.9683,4.9569,4.9683,4.9569,4.9341,4.9341,4.9341,4.9569,4.9227,4.9125,4.9125,4.8792,4.8548,4.8029,4.8533,4.8499,4.9147,4.7688,4.5874,0.0,4.3473,4.248,4.214,4.2092,4.2092,4.2092,4.2092,4.2092,4.2092,4.26,4.3427,4.4705,4.5459,4.6592,0.0,4.9306,5.0206,5.1512,5.2775,5.3515,5.3515,5.35,5.35,5.3515,5.292,5.2862,5.3486,5.3515,5.3515,5.3515,5.3515,5.3515,5.3515,5.3515,5.3515,5.3515,5.3515,5.3515,5.3515,5.3515,5.3515,5.3515,5.3515,5.3515,5.3515,5.3515,5.3515,5.3515,5.3515,5.3515,5.3515,5.3515,5.3319,5.3121,5.3121,5.268,5.2235,5.2235,5.2004,5.1787,5.1787,5.1787,5.1787,5.1787,5.1787,5.1787,5.1787,5.1787,5.1787,5.1787,5.1787,5.1787,5.1787,5.1787,5.1787,5.1787,5.1787,5.1787,5.1787,5.1348,5.0906,5.0906,5.0123,4.9569,4.9569,4.9341,4.9125,4.9125,4.8908,4.8792,4.9125,4.9125,4.9227,4.9569,4.9897,5.001,5.001,4.9683,4.9569,4.9569,4.9227,4.9125,4.9125,4.8792,4.8548,4.5532,4.6235,4.6339,4.6123,4.5528,4.4647,4.3458,4.3012,4.2734,4.2223,4.2092,4.2092,4.2092,4.2092,4.2382,4.3253,4.3166,4.3587,4.5329,4.575,0.0,4.8493,5.0452,5.1817,5.2223,5.2238,5.2223,5.2223,5.2223,5.2223,5.2223,5.2441,5.2862,5.3486,5.3094,5.308,5.3515,5.3515,5.3515,5.3515,5.3515,5.3515,5.3515,5.3515,5.3515,5.3515,5.3515,5.3515,5.3515,5.3515,5.3515,5.3515,5.3515,5.3515,5.3515,5.3515,5.3515,5.3515,5.3515,5.341,5.3319,5.2894,5.268,5.2451,5.2004,5.1896,5.1787,5.1787,5.1787,5.1787,5.1787,5.1787,5.1787,5.1787,5.1787,5.1787,5.1787,5.1787,5.1787,5.1787,5.1787,5.1787,5.1787,5.1787,5.1787,5.1787,5.1677,5.1348,5.0683,5.0348,5.001,4.9683,4.9455,4.9341,4.9125,4.924,4.9341,4.9455,4.9569,4.9783,4.9897,4.9897,5.001,5.001,4.9897,4.9897,4.9897,4.9569,4.9341,4.9125,4.901,4.8779,4.3964,4.4921,4.5223,4.4832,4.4469,0.0,0.0,4.2719,4.2542,4.2179,4.2092,4.2092,4.2092,4.2092,4.2353,4.3137,4.3326,4.379,4.4995,4.5779,0.0,4.8856,5.0931,5.2209,5.2209,5.2064,5.1875,5.1643,5.1614,5.1614,5.1614,5.1773,5.2151,5.2775,5.2412,5.2514,5.3152,5.3152,5.3268,5.3515,5.3515,5.3515,5.3515,5.3515,5.3515,5.3515,5.3515,5.3515,0.0,5.3515,5.3515,5.3515,5.3515,5.3515,5.3515,5.3515,5.3515,5.3515,5.3515,5.3515,5.341,5.3092,5.288,5.2573,5.2004,5.1787,5.1787,5.1787,5.1787,5.1787,5.1787,5.1787,5.1787,5.1787,5.1787,5.1787,5.1787,5.1787,5.1787,5.1787,5.1787,5.1787,5.1787,5.1787,5.1787,5.1787,5.1568,5.1238,5.0572,5.0348,5.0123,4.9683,4.9683,4.9683,4.9455,4.9569,4.9569,4.9569,4.9783,4.9897,4.9897,4.9897,5.001,5.001,5.001,5.001,5.001,4.9783,4.9569,4.9341,4.9341,4.9125,0.0,4.4226,4.469,4.469,4.4269,4.3689,0.0,0.0,0.0,4.2092,4.2092,4.2092,4.2092,4.2092,4.2121,4.2223,4.3224,4.4023,4.411,4.5721,0.0,4.9524,5.0815,5.1556,5.1556,5.2093,5.2165,5.1527,5.1527,5.1541,5.1483,5.0975,5.0931,5.1468,5.1483,5.1831,5.2557,5.2572,5.2862,5.3457,5.3457,5.3457,5.3457,5.3486,5.3515,5.3515,5.3515,5.3515,5.3515,5.3515,5.3515,5.3515,5.3515,5.3515,5.3515,5.3515,5.3515,5.3515,5.3515,5.3515,5.3515,5.3515,5.3092,5.2573,5.2004,5.1787,5.1787,5.1787,5.1787,5.1787,5.1787,5.1787,5.1787,5.1787,5.1787,5.1787,5.1787,5.1787,5.1787,5.1787,5.1787,5.1787,5.1787,5.1787,5.1787,5.1787,5.1238,5.0795,5.046,5.0235,4.9897,4.9683,4.9783,5.001,5.001,4.9783,4.9683,4.9683,4.9683,4.9683,4.9683,4.9897,5.001,5.001,5.001,5.001,5.001,5.001,4.9897,4.9683,4.9683,4.9455,4.1337,0.0,4.276,4.276,4.2644,4.2498,0.0,0.0,0.0,0.0,0.0,4.2092,4.2092,4.2092,4.2411,4.3398,4.379,4.4327,4.53,4.6664,0.0,5.0206,5.0714,5.0902,5.0902,5.1033,5.0844,5.0191,5.0612,5.067,5.0162,5.0481,5.0511,5.0148,5.0133,5.0917,5.2557,5.2572,5.2644,5.2789,5.2789,5.2789,5.2804,5.3297,5.3515,5.3515,5.3515,5.3515,5.3515,5.3515,5.3515,5.3515,5.3515,5.3515,5.3515,5.3515,5.3515,5.3515,5.3515,5.3515,5.3515,5.3213,5.2787,5.2343,5.2127,5.2004,5.1787,5.1787,5.1787,5.1787,5.1787,5.1787,5.1787,5.1787,5.2004,5.2004,5.1787,5.2004,5.2004,5.1787,5.1787,5.1787,5.1787,5.1787,5.1677,5.1238,5.1017,5.0683,4.9897,4.9897,4.9897,4.9683,4.9783,5.001,5.001,4.9897,4.9897,4.9897,4.9897,4.9897,4.9897,5.001,5.001,5.001,5.001,5.001,5.001,5.001,5.001,4.9897,4.9897,4.9783,4.1192,4.1599,4.1715,4.202,4.2092,4.2092,4.2092,0.0,0.0,0.0,0.0,4.2092,4.2092,4.2324,4.2644,4.305,4.3848,4.4951,4.6534,4.7593,4.8928,5.0873,5.1106,5.1106,5.1106,5.0844,5.0394,4.9727,5.0017,5.0061,4.9698,5.0017,5.0046,4.9683,4.9973,5.0786,5.2122,5.2136,5.2426,5.2992,5.2702,5.2572,5.2572,5.2615,5.2804,5.308,5.308,5.3239,5.3515,5.3515,5.3515,5.3515,5.3515,5.3515,5.3515,5.3515,5.3515,5.3515,5.3515,5.341,5.3319,5.3001,5.268,5.2451,5.2235,5.2127,5.2004,5.1787,5.1787,5.1787,5.1787,5.1787,5.1787,5.1896,5.2127,5.2235,5.2235,5.2343,5.2343,5.2004,5.2004,5.1896,5.1787,5.1787,5.1677,5.1348,5.1128,5.0683,5.0235,5.0123,4.9897,4.9783,4.9897,5.001,5.001,5.001,5.001,5.001,5.001,5.001,5.001,5.001,5.001,5.001,5.001,5.001,5.001,4.9897,4.9783,4.9783,4.9783,4.9683,4.1584,4.1526,4.125,4.1932,4.2092,4.2092,4.2092,0.0,0.0,0.0,0.0,0.0,0.0,4.2571,0.0,0.0,0.0,4.559,4.7637,4.8304,4.9262,5.1106,5.1323,5.1323,5.1323,5.0844,5.0278,4.9712,4.9669,4.9669,4.9669,4.9669,4.9669,4.9669,5.022,5.083,5.1468,5.1468,5.2064,5.321,5.2586,5.2383,5.2543,5.2006,5.2107,5.2702,5.2615,5.292,5.35,5.3297,5.3283,5.3355,5.3268,5.3283,5.337,5.337,5.3428,5.3515,5.341,5.3319,5.3015,5.2787,5.268,5.2573,5.2343,5.2235,5.2127,5.1896,5.1787,5.1787,5.1787,5.1787,5.1896,5.2127,5.2235,5.2343,5.2573,5.268,5.268,5.2235,5.2235,5.2127,5.1896,5.1787,5.1787,5.1568,5.1128,5.0795,5.0683,5.0235,4.9897,4.9897,5.001,5.001,5.001,5.001,5.001,5.001,5.001,4.9897,4.9897,4.9897,4.9897,4.9897,5.001,5.001,5.001,4.9783,4.9683,4.9683,4.9683,4.9455,4.0902,4.1178,4.125,4.1932,4.2092,4.2092,4.2092,0.0,0.0,0.0,0.0,0.0,0.0,4.2513,4.2557,0.0,0.0,4.575,4.8232,4.8203,4.8435,4.9814,4.9973,4.9973,4.9973,4.9886,4.9785,4.9683,4.9669,4.9669,4.9669,4.9669,4.9669,4.9669,4.977,5.0148,5.0815,5.0815,5.1178,5.1904,5.1265,5.1527,5.2572,5.247,5.2775,5.3341,5.2804,5.292,5.3428,5.2354,5.2238,5.2659,5.2122,5.2238,5.2717,5.2717,5.3051,5.3515,5.3213,5.3121,5.3121,5.3015,5.268,5.2343,5.2559,5.2235,5.1896,5.1787,5.1787,5.1787,5.1787,5.1787,5.1787,5.1896,5.2235,5.2573,5.2343,5.268,5.2894,5.2343,5.2235,5.2127,5.1896,5.1787,5.1568,5.0795,5.0572,5.0235,4.9455,4.9569,4.9683,4.9683,4.9897,5.001,5.001,5.001,5.001,5.001,4.9783,4.9569,4.9227,4.9455,4.9683,4.9683,4.9897,5.001,5.001,5.001,4.9897,4.9897,4.9897,4.9897,4.0742,4.0829,4.08,4.1845,4.2339,4.2586,0.0,0.0,0.0,0.0,0.0,0.0,0.0,0.0,4.3645,4.5256,4.5474,4.62,4.842,4.8478,4.8769,5.0061,4.9901,4.9814,5.0177,4.9886,4.9669,4.9669,4.9669,4.9669,4.9669,4.9669,4.9669,4.9669,4.9669,4.9828,5.0133,5.0133,5.0627,5.1614,5.1323,5.1309,5.1556,5.1904,5.2209,5.247,5.218,5.2615,5.3413,5.2151,5.2006,5.2499,5.186,5.1802,5.2064,5.2064,5.2455,5.3007,5.2693,5.2713,5.2894,5.2894,5.2573,5.2235,5.2343,5.2235,5.2004,5.2004,5.1896,5.1787,5.1787,5.1787,5.1787,5.2004,5.2235,5.2451,5.2451,5.268,5.2787,5.2343,5.2235,5.2127,5.1896,5.1692,5.1486,5.1045,5.0572,5.0123,4.9924,4.9697,4.9683,4.9783,4.9897,5.001,5.001,5.001,5.001,5.001,5.0195,5.0121,4.9583,5.0094,5.0121,4.9797,4.9897,5.001,5.001,4.9897,4.9783,4.9783,4.9783,4.9683,4.0554,4.0612,4.0583,4.1613,4.2324,0.0,0.0,0.0,0.0,0.0,0.0,0.0,0.0,4.3761,4.4734,4.6345,4.633,4.6766,4.8682,4.8827,4.9146,5.0307,4.9988,4.9872,5.0394,4.9973,4.9669,4.9669,4.9669,4.9669,4.9669,4.9669,4.9669,4.9669,4.9669,4.9669,4.9669,4.9669,5.0249,5.1396,5.1236,5.1062,5.0902,5.1236,5.1483,5.1614,5.1468,5.2035,5.2978,5.1686,5.1541,5.2064,5.141,5.1251,5.1425,5.157,5.1918,5.2339,5.2015,5.212,5.2466,5.2466,5.2337,5.2127,5.2235,5.2235,5.2235,5.2343,5.2127,5.2004,5.2004,5.1896,5.1896,5.2235,5.2343,5.2451,5.268,5.2787,5.268,5.2343,5.2235,5.2127,5.1896,5.1582,5.15,5.1266,5.0697,5.0249,5.0375,5.0023,4.9783,5.001,5.001,5.001,5.001,5.001,5.001,5.001,5.033,5.0256,4.981,5.0343,5.0371,4.991,5.001,5.001,5.001,4.9783,4.9683,4.9683,4.9683,4.9569,3.9987,4.0583,4.1047,4.1149,4.1671,0.0,4.2861,4.3515,0.0,4.3921,0.0,0.0,0.0,4.4414,4.5068,4.5822,4.6417,4.7419,4.9349,4.9088,4.8986,4.9669,4.9712,4.9698,4.9741,4.9712,4.9669,4.9669,4.9669,4.9669,4.9669,4.9669,4.9669,4.9669,4.9669,4.9669,4.9669,4.9669,5.0032,5.0743,5.0119,5.0423,5.1541,5.0989,5.1062,5.1585,5.1004,5.112,5.1657,5.0351,5.0206,5.0743,5.0075,5.0191,5.0815,5.1396,5.1643,5.1585,5.1366,5.1489,5.1809,5.1809,5.1768,5.1896,5.2451,5.2451,5.2235,5.2573,5.268,5.268,5.268,5.2235,5.1896,5.2559,5.268,5.2787,5.3015,5.3121,5.3015,5.268,5.2451,5.2127,5.1896,5.1787,5.1568,5.1017,5.0906,5.0683,5.0123,5.001,5.001,5.001,5.001,5.001,5.001,5.001,5.001,5.001,4.9496,4.9165,4.9125,4.9496,4.9724,4.9683,4.9897,5.001,5.001,5.001,5.001,5.001,5.001,5.001,3.9363,3.9726,4.0104,4.0902,4.1599,0.0,0.0,4.4414,4.5053,4.4632,4.4545,0.0,0.0,0.0,4.559,4.5837,4.6751,4.7811,4.8928,4.9219,4.9407,4.9654,4.9669,4.9669,4.9669,4.9669,4.9669,4.9669,4.9669,4.9669,4.9669,4.9669,4.9669,4.9669,4.9669,4.9669,4.9669,4.9669,4.9799,5.0061,5.022,5.0336,5.0438,5.1004,5.1178,5.1019,5.0786,5.1033,5.1527,5.022,5.0075,5.0612,4.9944,4.9828,5.009,5.0322,5.067,5.1033,5.0918,5.1135,5.1417,5.1804,5.188,5.1846,5.2445,5.2573,5.2573,5.2894,5.2787,5.268,5.268,5.2559,5.2451,5.268,5.268,5.268,5.2787,5.268,5.2451,5.2451,5.2127,5.191,5.1596,5.1362,5.1128,5.0711,5.046,5.0235,5.001,5.001,5.001,5.001,5.001,5.001,5.001,5.001,5.001,5.001,5.0135,5.0061,4.9697,5.0148,5.0276,4.991,4.9897,5.001,5.001,5.001,5.001,5.001,5.001,5.001,3.9088,3.9334,3.9741,4.0829,0.0,0.0,4.3703,4.4806,4.5503,4.5256,4.5039,0.0,0.0,0.0,0.0,4.5851,4.6954,4.7927,4.8362,4.9146,4.9596,4.9407,4.9553,4.9669,4.9669,4.9669,4.9669,4.9669,4.9669,4.9669,4.9669,4.9669,4.9669,4.9669,4.9669,4.9669,4.9669,4.9669,4.9669,4.9683,5.0148,5.0119,4.9712,5.0598,5.0772,5.0365,5.0365,5.0612,5.0931,5.0046,4.9944,5.0307,4.9857,4.9669,4.9669,4.9669,4.9959,5.0365,5.0365,5.0572,5.0961,5.1393,5.1474,5.1523,5.2057,5.2186,5.2335,5.2761,5.2804,5.2742,5.2943,5.2787,5.2787,5.288,5.2894,5.2787,5.2787,5.2573,5.2343,5.2235,5.2004,5.1787,5.1596,5.1362,5.1017,5.0711,5.0474,5.0235,5.001,5.001,5.001,5.001,5.001,5.001,5.001,5.001,5.001,5.001,5.039,5.043,5.0037,5.0403,5.043,5.0023,5.001,5.001,5.001,5.001,5.001,5.001,5.001,5.001,3.9189,3.9639,4.0249,0.0,0.0,0.0,4.3703,4.4458,4.5082,4.575,4.5358,4.4893,4.4879,4.4893,0.0,4.5764,4.694,4.7767,4.7782,4.887,4.9436,4.8812,4.9291,4.9669,4.9669,4.9669,4.9669,4.9669,4.9669,4.9669,4.9669,4.9669,4.9669,4.9669,4.9669,4.9669,4.9669,4.9669,4.9669,4.9669,4.9669,4.9669,4.9669,4.9669,4.9669,4.9669,4.9669,4.9669,4.9669,4.9669,4.9669,4.9669,4.9669,4.9669,4.9669,4.9669,4.9669,4.9669,4.9669,4.9907,5.0241,5.0241,5.0485,5.0795,5.1089,5.1192,5.1424,5.2383,5.2572,5.2717,5.3341,5.3092,5.2894,5.341,5.3319,5.3121,5.3121,5.2894,5.2573,5.2235,5.2004,5.1787,5.1787,5.1787,5.1568,5.1017,5.0906,5.0683,5.0123,5.001,5.001,5.001,5.001,5.001,5.001,5.001,5.001,5.001,5.001,5.001,5.001,5.001,5.001,5.001,5.001,5.001,5.001,5.001,5.001,5.001,5.001,5.001,3.8507,3.9276,0.0,4.035,0.0,0.0,0.0,4.4458,0.0,0.0,4.5721,4.5445,4.498,4.5271,4.5503,4.5227,4.6272,4.7274,4.7724,4.8493,4.9103,4.9364,4.9553,4.9669,4.9669,4.9669,4.9669,4.9669,4.9669,4.9669,4.9669,4.9669,4.9669,4.9669,4.9669,4.9669,4.9669,4.9669,4.9669,4.9669,4.9669,4.9669,4.9669,4.9669,4.9669,4.9669,4.9669,4.9669,4.9669,4.9669,4.9669,4.9669,4.9669,4.9669,4.9669,4.9669,4.9585,4.9404,4.9683,4.9618,4.9665,5.0326,5.0601,5.0832,5.1382,5.1512,5.1556,5.1846,5.2223,5.2615,5.2804,5.3077,5.3304,5.3515,5.341,5.3424,5.3424,5.3213,5.2908,5.2894,5.2451,5.2004,5.1787,5.1458,5.1017,5.0711,5.0474,5.0235,5.001,5.001,5.001,5.001,5.001,5.001,5.001,5.001,5.001,5.001,5.001,5.001,5.001,5.001,5.001,5.001,5.001,5.001,5.001,5.001,5.001,5.001,5.001,5.001,3.9276,3.99,0.0,4.0829,4.157,4.2542,4.3718,0.0,0.0,0.0,4.588,4.5764,4.5358,4.5619,4.575,4.5343,4.6156,4.6969,4.7346,4.8174,4.887,4.9248,4.9524,4.9669,4.9669,4.9669,4.9669,4.9669,4.9669,4.9669,4.9669,4.9669,4.9669,4.9669,4.9669,4.9669,4.9669,4.9669,4.9669,4.9669,4.9669,4.9669,4.9669,4.9669,4.9669,4.9669,4.9669,4.9669,4.9669,4.9669,4.9669,4.9669,4.9669,4.9669,4.9669,4.9669,4.9488,4.9305,4.9585,4.9488,4.9377,5.0049,5.0278,5.0351,5.0728,5.0844,5.0902,5.1178,5.1527,5.1933,5.2441,5.2847,5.3196,5.3457,5.3515,5.3515,5.3304,5.3213,5.3015,5.2787,5.2451,5.2127,5.1896,5.1568,5.1238,5.0711,5.0249,5.001,5.001,5.001,5.001,5.001,5.001,5.001,5.001,5.001,5.001,5.001,5.001,5.001,5.001,5.001,5.001,5.001,5.001,5.001,5.001,5.001,5.001,5.001,5.001,5.001,4.0757,4.1004,0.0,4.186,4.1686,0.0,4.366,4.501,4.588,4.588,0.0,4.588,4.588,4.588,4.588,4.588,4.6374,4.6674,4.6824,4.7869,4.8571,4.8725,4.9291,4.9669,4.9669,4.9625,4.9611,4.9669,4.9611,4.9611,4.9669,4.9669,4.9669,4.9669,4.9669,4.9669,4.9669,4.9669,4.9669,4.9669,4.9669,4.9669,4.9669,4.9669,4.9669,4.9669,4.9669,4.9669,4.9669,4.9669,4.9669,4.9669,4.9669,4.9669,4.9669,4.9669,4.9488,4.9305,4.9585,4.9488,4.9305,4.9585,4.9669,4.9669,4.9669,4.9669,4.9799,5.0409,5.0627,5.0946,5.2107,5.2441,5.263,5.321,5.3428,5.341,5.3227,5.3121,5.3001,5.2451,5.2343,5.2235,5.2004,5.2127,5.1896,5.1128,5.046,5.0123,5.0123,5.001,5.001,5.001,5.001,5.001,5.001,5.001,5.001,5.001,5.001,5.001,5.001,5.001,5.001,5.001,5.001,5.001,5.001,4.9956,4.9928,4.9928,4.9928,4.9928,3.9567,4.0336,0.0,0.0,4.2339,4.3602,4.4487,4.5314,4.588,4.588,4.588,4.588,4.588,4.588,4.588,4.588,4.5815,4.5984,4.6659,4.7304,4.7969,4.8667,4.9291,4.9669,4.9669,4.9219,4.9132,4.964,4.9204,4.9146,4.9654,4.9669,4.9669,4.9669,4.9669,4.9669,4.9669,4.9669,4.9669,4.9669,4.9669,4.9669,4.9669,4.9669,4.9669,4.9669,4.9669,4.9669,4.9669,4.9669,4.9669,4.9669,4.9669,4.9669,4.9669,4.9669,4.9488,4.9305,4.9585,4.9488,4.9305,4.9585,4.9669,4.9669,4.9669,4.9669,4.9712,4.9843,5.0264,5.0743,5.1019,5.1454,5.186,5.1991,5.2789,5.3515,5.341,5.341,5.3424,5.3198,5.3092,5.2894,5.2787,5.2451,5.2019,5.1677,5.1128,5.0683,5.0683,5.0348,5.001,5.001,5.001,5.001,5.001,5.001,5.001,5.001,5.001,5.001,5.001,5.001,5.001,5.001,5.001,5.001,5.001,4.9535,4.9318,4.9318,4.9318,4.9318,3.9944,0.0,0.0,4.1497,0.0,4.4066,4.4385,4.5198,4.588,4.588,4.588,4.588,4.588,4.588,4.588,4.588,4.579,4.6018,4.7158,4.7471,4.792,4.8638,4.9016,4.9103,4.8798,4.8464,4.8406,4.874,4.8464,4.842,4.8754,4.9059,4.9219,4.9219,4.9524,4.9669,4.9669,4.9669,4.9669,4.9669,4.9669,4.9669,4.9669,4.9669,4.9669,4.9669,4.9669,4.9669,4.9669,4.9669,4.9669,4.9669,4.9669,4.9669,4.9669,4.9669,4.9488,4.9305,4.9585,4.9488,4.9305,4.9585,4.9669,4.9669,4.9669,4.9669,4.9669,4.9669,4.993,5.0278,5.0598,5.0917,5.1236,5.1541,5.2122,5.2615,5.2615,5.2847,5.3065,5.2842,5.2996,5.3015,5.2894,5.2451,5.2127,5.1787,5.1348,5.0795,5.046,5.0235,5.001,5.001,5.001,5.001,5.001,5.001,5.001,5.001,4.9752,4.9589,4.9589,4.9318,4.9426,4.9996,5.001,5.001,5.001,4.9698,4.9549,4.9549,4.9549,4.9549,4.0612,0.0,4.141,4.1961,4.2963,0.0,4.3964,4.4879,4.575,4.5866,4.588,4.588,4.588,4.588,4.588,4.588,4.588,4.6258,4.7303,4.755,4.7811,4.8333,4.8493,4.8362,4.784,4.768,4.7666,4.7767,4.768,4.7666,4.7782,4.8275,4.8551,4.8551,4.9175,4.9509,4.9509,4.9611,4.9669,4.9669,4.9669,4.9669,4.9669,4.9669,4.9669,4.9669,4.9669,4.9669,4.9669,4.9669,4.9669,4.9669,4.9669,4.9669,4.9669,4.9669,4.9585,4.9404,4.9585,4.9585,4.9404,4.9585,4.9669,4.9669,4.9669,4.9669,4.9669,4.9669,4.9669,4.9799,5.0365,5.0496,5.0627,5.1164,5.128,5.1352,5.157,5.2035,5.2294,5.2073,5.2416,5.2819,5.2708,5.2402,5.2216,5.2099,5.1568,5.1017,5.0558,5.0235,5.0082,4.9973,4.9956,4.9969,4.9861,4.9956,5.001,5.001,4.9454,4.9128,4.9128,4.8558,4.8707,4.9684,4.9711,4.9711,4.9711,4.9711,4.9711,4.9711,4.982,4.9861,4.0046,0.0,4.199,0.0,4.2615,4.3282,0.0,0.0,4.5184,4.5764,4.588,4.588,4.588,4.588,4.588,4.588,4.57,4.5652,4.6113,4.6437,4.6734,4.6978,4.7579,4.7869,4.7796,4.7274,4.7187,4.7738,4.7274,4.7201,4.7753,4.7869,4.7912,4.7912,4.8522,4.8856,4.8856,4.9407,4.9669,4.9669,4.9669,4.9669,4.9669,4.9669,4.9669,4.9669,4.9669,4.9669,4.9669,4.9669,4.9669,4.9669,4.9669,4.9669,4.9669,4.9669,4.9683,4.9683,4.9683,4.9683,4.9683,4.9669,4.9669,4.9669,4.9669,4.9669,4.9669,4.9669,4.9669,4.9698,4.9785,4.9799,4.9828,4.9915,4.993,5.0249,5.1367,5.1686,5.1744,5.1642,5.1715,5.1947,5.2497,5.2599,5.2668,5.3218,5.2773,5.2437,5.2301,5.143,5.0588,5.0064,5.0034,4.9806,4.9291,4.9711,5.001,5.001,4.9454,4.9128,4.9128,4.8558,4.8327,4.8477,4.8477,4.8477,4.8477,4.8477,4.8477,4.849,4.9006,4.925,3.9828,4.1076,4.2092,0.0,4.2542,4.3065,4.3369,4.3921,4.4472,4.4763,4.5097,4.5445,4.5822,4.588,4.588,4.588,4.579,4.5906,4.6359,4.6572,4.6654,4.6824,4.7085,4.7114,4.6751,4.6461,4.6417,4.6693,4.6461,4.6417,4.6708,4.7056,4.7245,4.7245,4.7869,4.8203,4.8203,4.8827,4.932,4.9669,4.932,4.9335,4.9669,4.9669,4.9669,4.9669,4.9669,4.9669,4.9669,4.9669,4.9669,4.9669,4.9669,4.9669,4.9669,4.9669,4.9669,4.9669,4.9669,4.9781,4.9878,4.9781,4.9781,4.9878,4.9781,4.9669,4.9669,4.9669,4.9669,4.9669,4.9669,4.9669,4.9669,4.9669,4.9669,4.9828,5.0409,5.083,5.1294,5.2006,5.186,5.1817,5.2455,5.2369,5.2209,5.1969,5.1908,5.1709,5.1612,5.0914,5.0395,5.0492,5.0184,4.9901,4.9644,4.9562,4.9657,4.9996,4.8829,4.8287,4.8612,4.7744,4.7256,4.7256,4.7907,4.8246,4.8246,4.8246,4.8246,4.826,4.8504,4.8816,3.961,0.0,4.1628,4.1802,4.2179,4.2586,0.0,4.3384,4.3776,4.395,4.4472,4.495,4.5532,4.5779,4.588,4.588,4.588,4.6055,4.6519,4.6592,4.6592,4.6592,4.6592,4.6403,4.5924,4.588,4.588,4.588,4.588,4.588,4.588,4.633,4.6592,4.6592,4.7216,4.755,4.755,4.8174,4.8725,4.919,4.8711,4.8725,4.919,4.9364,4.9436,4.9436,4.9611,4.9669,4.9669,4.9669,4.9669,4.9669,4.9669,4.9669,4.9669,4.9669,4.9669,4.9669,4.9669,4.9878,5.0086,4.9878,4.9975,5.0086,4.9975,4.9781,4.9669,4.9781,4.9781,4.9669,4.9669,4.9669,4.9669,4.9669,4.9669,4.9669,4.9669,5.0061,5.0699,5.1643,5.1454,5.1338,5.1976,5.1874,5.1612,5.1046,5.1163,5.1219,5.1066,5.0486,5.0168,5.0379,5.0009,4.9606,4.9345,4.9074,4.9087,4.9535,4.8178,4.7554,4.8002,4.7025,4.6469,4.6469,4.7337,4.7798,4.7798,4.7948,4.8015,4.8015,4.8327,4.8626,0.0,3.9712,4.035,4.0989,4.1178,4.1512,4.2716,4.3021,4.3224,4.3863,4.4312,4.4657,4.4937,4.5459,4.588,4.588,4.588,4.5895,4.5924,4.5938,4.5938,4.5938,4.5938,4.5924,4.588,4.588,4.588,4.588,4.588,4.588,4.588,4.5924,4.5938,4.5938,4.6548,4.6882,4.6882,4.7506,4.784,4.7883,4.784,4.7854,4.7898,4.8493,4.8769,4.8812,4.9407,4.9669,4.9669,4.9669,4.9669,4.9669,4.9669,4.9669,4.9669,4.9669,4.9669,4.9669,4.9669,4.9878,5.0086,5.0086,5.0086,5.0183,5.039,5.0086,4.9781,4.999,4.9878,4.9669,4.9669,4.9669,4.9669,4.9669,4.9669,4.9669,4.9669,4.9698,4.9741,4.9814,4.9799,4.9988,5.0656,5.0927,5.1201,5.1527,5.1801,5.1816,5.1556,5.103,5.0271,4.9188,4.9153,4.8745,4.7648,4.7988,4.83,4.8327,4.7717,4.7378,4.7405,4.6808,4.6469,4.6469,4.6537,4.6564,4.6564,4.7134,4.7405,4.7432,4.8558,4.8789,0.0,0.0,4.0162,4.0394,4.0771,4.1221,4.1671,4.2107,4.2484,4.2716,4.3168,4.3733,4.4226,4.508,4.57,4.588,4.588,4.588,4.588,4.588,4.588,4.588,4.588,4.588,4.588,4.588,4.588,4.588,4.588,4.588,4.588,4.588,4.588,4.588,4.6113,4.6417,4.6824,4.665,4.6969,4.7782,4.7361,4.739,4.7796,4.8014,4.8116,4.8159,4.8783,4.9291,4.9669,4.9669,4.9669,4.9669,4.9669,4.9669,4.9683,4.9878,4.9975,4.9975,4.9975,5.0264,5.0537,5.0183,5.0264,5.0537,5.0486,5.039,5.0198,5.0086,4.999,4.9878,4.9781,4.9669,4.9669,4.9669,4.9669,4.9669,4.9669,4.9669,4.9799,5.0235,4.9959,4.9886,5.0554,5.0519,5.0511,5.0646,5.0886,5.1131,5.1414,5.0946,5.0399,4.9879,4.9462,4.8879,4.7948,4.7771,4.7839,4.8219,4.7323,4.6971,4.7337,4.6794,4.6469,4.6469,4.6469,4.6469,4.6469,4.6686,4.6794,4.6794,4.7229,4.7513,3.887,0.0,0.0,3.9741,4.0133,4.0568,4.1004,4.1439,4.1831,4.2049,4.2487,4.3038,4.3573,4.4341,4.5104,4.5808,4.5692,4.5634,4.5851,4.5692,4.5634,4.5866,4.588,4.588,4.588,4.588,4.588,4.588,4.588,4.588,4.588,4.588,4.588,4.588,4.588,4.6084,4.6505,4.6098,4.6301,4.7143,4.6722,4.6737,4.7158,4.7361,4.7462,4.7491,4.813,4.8769,4.9378,4.9596,4.9669,4.9669,4.9669,4.9669,4.9781,4.999,5.0086,5.0086,5.0198,5.0456,5.0713,5.0456,5.0537,5.0807,5.0757,5.0581,5.0501,5.0294,5.0183,5.0086,4.9781,4.9669,4.9669,4.9669,4.9669,4.9669,4.9669,4.9669,4.9799,5.0249,4.9973,4.9912,5.0377,5.0379,5.0198,5.0198,5.0471,5.0714,5.1046,5.0686,5.0239,4.9964,4.9493,4.8987,4.8263,4.7695,4.7548,4.7837,4.7022,4.6645,4.7039,4.6686,4.6469,4.6469,4.6469,4.6469,4.6469,4.6469,4.6469,4.6469,4.6686,4.7093,0.0,0.0,0.0,3.9015,3.9189,3.9523,4.0757,4.1076,4.1279,4.1932,4.2374,4.2694,4.2992,4.3343,4.4094,4.5619,4.5285,4.5082,4.5735,4.5271,4.5111,4.5779,4.5851,4.5866,4.588,4.588,4.588,4.588,4.588,4.588,4.588,4.588,4.588,4.588,4.588,4.588,4.588,4.588,4.588,4.588,4.588,4.588,4.5909,4.6519,4.6795,4.6838,4.7477,4.8101,4.8725,4.9364,4.9611,4.9611,4.9611,4.9625,4.9737,4.996,5.0072,5.0183,5.0405,5.0662,5.0807,5.0807,5.0807,5.0902,5.112,5.0852,5.0501,5.0501,5.0294,5.0086,4.9781,4.9669,4.9669,4.9669,4.9669,4.9669,4.9669,4.9669,4.9669,4.9669,4.9669,4.9781,5.0086,5.0294,5.0501,5.0501,5.0647,5.0728,5.0581,5.0294,4.9878,4.936,4.9079,4.8695,4.8179,4.7596,4.7301,4.7301,4.6783,4.6469,4.6469,4.6469,4.6469,4.6469,4.6469,4.6469,4.6469,4.6469,4.6469,4.6482,4.7066,4.7636,3.8202,0.0,0.0,0.0,0.0,0.0,3.9654,4.0437,4.1149,4.1337,4.1807,4.2386,4.2905,4.3052,4.3443,4.4385,4.4356,4.4298,4.4487,4.4356,4.4472,4.5082,4.5169,4.5358,4.5837,4.588,4.588,4.588,4.588,4.588,4.588,4.588,4.588,4.588,4.588,4.588,4.588,4.588,4.588,4.588,4.588,4.588,4.5895,4.6069,4.6142,4.6185,4.6824,4.7187,4.7404,4.8043,4.8304,4.8304,4.8304,4.8675,4.926,4.956,5.0044,5.0632,5.0728,5.0917,5.1011,5.0902,5.0917,5.112,5.1214,5.1135,5.0947,5.0728,5.0567,5.0294,4.9781,4.9669,4.9669,4.9669,4.9669,4.9669,4.9669,4.9669,4.9669,4.9669,4.9669,4.9781,5.0086,5.0183,5.0375,5.0647,5.0713,5.0822,5.1041,5.0932,5.0647,4.9834,4.9752,4.9444,4.8624,4.8151,4.7787,4.7568,4.7081,4.6678,4.6469,4.6678,4.6783,4.6783,4.6991,4.7095,4.7095,4.6678,4.6469,4.6469,4.6645,4.6808,0.0,0.0,0.0,0.0,0.0,0.0,3.945,4.0147,4.0844,4.1395,4.1831,4.2208,4.2557,4.2615,4.2745,4.3137,4.3195,4.3384,4.3921,4.3747,4.3805,4.4443,4.4516,4.4661,4.5053,4.5097,4.5198,4.5445,4.5459,4.559,4.588,4.588,4.588,4.588,4.588,4.588,4.588,4.588,4.588,4.588,4.588,4.588,4.588,4.588,4.588,4.5909,4.6272,4.6432,4.6461,4.6838,4.7303,4.7782,4.7782,4.8188,4.8682,4.8978,4.9508,5.005,5.0411,5.0609,5.0762,5.0922,5.1105,5.1169,5.0885,5.081,5.0717,5.0515,5.0248,4.9904,4.923,4.9266,4.9388,4.9277,4.948,4.9669,4.9669,4.9781,4.9878,4.9683,4.9781,4.9975,5.0198,5.0375,5.0537,5.0917,5.1011,5.1011,5.1214,5.112,5.0822,5.0412,5.025,5.0057,4.9542,4.9065,4.8667,4.8567,4.7948,4.7554,4.7171,4.7274,4.7288,4.7095,4.7198,4.7301,4.7301,4.6887,4.6574,4.6469,4.6469,4.6469,0.0,0.0,0.0,0.0,0.0,0.0,3.9625,3.9944,4.0336,4.1526,4.1831,4.1874,4.1874,4.1932,4.1961,4.1889,4.199,4.2498,4.3616,4.3268,4.3137,4.3805,4.3877,4.3906,4.3979,4.3993,4.4211,4.4748,4.485,4.514,4.575,4.5837,4.588,4.588,4.588,4.588,4.588,4.588,4.588,4.588,4.588,4.588,4.588,4.588,4.588,4.588,4.588,4.588,4.588,4.588,4.6548,4.7564,4.7564,4.7794,4.8116,4.8316,4.865,4.9087,4.9836,5.0137,5.0227,5.081,5.1005,5.09,5.0301,5.0137,5.0045,4.9875,4.9582,4.9248,4.8365,4.8565,4.8924,4.8719,4.9045,4.948,4.965,4.9776,4.9999,4.9766,4.999,5.0198,5.0486,5.0647,5.0902,5.112,5.1214,5.1214,5.1214,5.1011,5.0807,5.0807,5.0662,5.0596,5.0596,5.0086,4.9766,4.9766,4.9233,4.8624,4.8165,4.8165,4.7976,4.7507,4.7507,4.7405,4.7405,4.7095,4.6783,4.6574,4.6574,4.6574,0.0,0.0,0.0,0.0,0.0,0.0,3.8507,3.8986,3.945,3.9712,4.0147,4.0481,4.0481,4.0931,4.112,4.0583,4.1395,4.2179,4.244,4.2353,4.2498,4.3108,4.3195,4.3398,4.3935,4.3993,4.4037,4.4153,4.4618,4.4937,4.5082,4.559,4.588,4.588,4.588,4.588,4.588,4.588,4.588,4.588,4.588,4.588,4.588,4.588,4.588,4.588,4.588,4.588,4.588,4.6046,4.6191,4.6258,4.6258,4.6836,4.7744,4.7744,4.8356,4.9284,4.9419,4.9464,4.9479,4.9613,4.9643,4.9628,4.9494,4.9464,4.9449,4.9206,4.91,4.8886,4.8555,4.8322,4.8316,4.8223,4.8231,4.8385,4.907,4.9267,4.9538,5.0191,5.039,5.0486,5.0728,5.0807,5.0902,5.112,5.1214,5.1214,5.1214,5.112,5.112,5.112,5.1135,5.1041,5.1041,5.0581,5.0183,4.9946,4.9444,4.9036,4.871,4.8951,4.8881,4.8595,4.8395,4.8193,4.7976,4.7494,4.7198,4.7095,4.6887,4.6783,0.0,0.0,0.0,3.8289,0.0,0.0,0.0,3.8957,3.9291,3.9581,3.9886,4.0104,4.0104,4.0365,4.0481,4.0147,4.0945,4.1599,4.1599,4.1889,4.2208,4.2513,4.2542,4.2673,4.3007,4.305,4.3166,4.3471,4.4081,4.4443,4.4443,4.4763,4.5082,4.5372,4.5387,4.5547,4.588,4.588,4.588,4.588,4.588,4.588,4.588,4.588,4.588,4.588,4.588,4.597,4.6046,4.6135,4.6225,4.6239,4.6239,4.6697,4.7244,4.7244,4.7733,4.8341,4.8671,4.8775,4.8835,4.9164,4.9269,4.9209,4.888,4.8775,4.8701,4.8209,4.8358,4.8432,4.7821,4.7864,4.8009,4.7842,4.7999,4.8243,4.8737,4.9154,4.9681,5.0129,5.055,5.0852,5.0822,5.0917,5.1011,5.1214,5.1214,5.1214,5.1214,5.1214,5.1214,5.1214,5.1214,5.1214,5.1214,5.0947,5.0757,5.0632,5.0331,5.0042,4.964,4.9766,4.9683,4.9291,4.8895,4.8781,4.8881,4.8106,4.761,4.7301,4.7198,4.7095,0.0,0.0,0.0,0.0,0.0,3.9015,0.0,0.0,0.0,3.9625,3.9726,3.9726,3.9726,3.9842,3.9886,3.9755,4.0394,4.0858,4.0742,4.1294,4.1802,4.2063,4.2092,4.2092,4.2092,4.2092,4.2295,4.2774,4.3427,4.3805,4.3805,4.3921,4.4211,4.469,4.4719,4.5024,4.5692,4.5692,4.5764,4.588,4.588,4.588,4.588,4.588,4.588,4.588,4.588,4.597,4.6135,4.6225,4.6403,4.6594,4.6594,4.6756,4.6916,4.6916,4.7106,4.7384,4.7923,4.8102,4.8192,4.8716,4.888,4.879,4.8252,4.8102,4.7982,4.7459,4.7683,4.7967,4.7152,4.7317,4.7614,4.7451,4.7774,4.8186,4.8304,4.8946,4.9545,4.9771,5.0388,5.0822,5.0872,5.1011,5.1214,5.1214,5.1214,5.1214,5.1214,5.1214,5.1214,5.1214,5.1214,5.1214,5.1214,5.1214,5.1214,5.1214,5.1214,5.1041,5.0677,5.0581,5.0375,4.996,4.9389,4.9389,4.9781,4.8909,4.8106,4.7596,4.7507,4.7405,0.0,0.0,0.0,0.0,3.826,0.0,0.0,0.0,3.8333,3.8405,0.0,3.842,3.842,0.0,0.0,3.8507,3.9421,4.0031,3.9494,3.9944,4.0771,4.1961,4.2092,4.2092,4.2092,4.2092,4.2121,4.2194,4.276,4.3108,4.3108,4.3674,4.4023,4.4095,4.4095,4.4385,4.4995,4.4995,4.53,4.588,4.588,4.588,4.588,4.588,4.588,4.588,4.588,4.588,4.597,4.6417,4.6594,4.6594,4.6594,4.6756,4.6916,4.6916,4.7106,4.7309,4.7399,4.7414,4.7429,4.7504,4.7534,4.7519,4.7444,4.7414,4.7399,4.7324,4.7354,4.7399,4.7324,4.7165,4.7035,4.6947,4.6933,4.7052,4.7792,4.806,4.8387,4.9179,4.9434,4.9853,5.0926,5.1214,5.1214,5.1214,5.1214,5.1214,5.1214,5.1214,5.1214,5.1214,5.1214,5.1214,5.1214,5.1214,5.1214,5.1214,5.1214,5.1229,5.112,5.0917,5.0728,5.0713,5.0168,4.999,5.0086,4.9683,4.9291,4.8695,4.8018,4.761,0.0,0.0,0.0,0.0,0.0,0.0,3.8376,0.0,3.8202,0.0,0.0,0.0,0.0,0.0,0.0,0.0,3.8986,3.9494,3.9233,3.9712,4.0307,4.0873,4.0945,4.1091,4.1482,4.186,4.2092,4.2092,4.2324,4.2469,4.2469,4.2745,4.305,4.3398,4.3413,4.3718,4.4356,4.4371,4.4676,4.53,4.53,4.5503,4.588,4.588,4.588,4.588,4.588,4.597,4.6135,4.6417,4.6683,4.6756,4.6946,4.7033,4.7121,4.7121,4.7207,4.7309,4.7309,4.7309,4.7309,4.7309,4.7309,4.7309,4.7309,4.7309,4.7309,4.7309,4.7309,4.7309,4.7309,4.7207,4.7121,4.7121,4.7033,4.7123,4.7463,4.7821,4.8268,4.8641,4.9,4.9434,4.9987,5.0092,5.0092,5.0092,5.0092,5.0092,5.0092,5.0421,5.0646,5.0646,5.099,5.1214,5.1214,5.1214,5.1214,5.1214,5.1214,5.1214,5.1214,5.112,5.1011,5.1011,5.0567,5.0486,5.0757,5.0057,4.9781,4.981,4.881,4.8409,3.9494,0.0,0.0,0.0,0.0,0.0,0.0,0.0,0.0,0.0,0.0,0.0,0.0,0.0,3.8202,3.8202,0.0,3.8928,3.8928,3.9305,3.9712,4.006,4.0104,4.0292,4.0771,4.1424,4.1816,4.1816,4.199,4.2092,4.2092,4.2092,4.2295,4.2731,4.2745,4.3065,4.3718,4.3906,4.4211,4.4647,4.4995,4.5314,4.5619,4.5883,4.597,4.597,4.606,4.6135,4.6314,4.658,4.6756,4.6931,4.7207,4.7309,4.7309,4.7309,4.7309,4.7309,4.7309,4.7309,4.7309,4.7309,4.7309,4.7309,4.7309,4.7309,4.7309,4.7309,4.7309,4.7309,4.7309,4.7309,4.7309,4.7309,4.7309,4.7309,4.7309,4.7683,4.8012,4.8012,4.8401,4.873,4.873,4.903,4.9269,4.9269,4.9269,4.9269,4.9269,4.9673,4.9972,4.9972,5.0391,5.0676,5.0676,5.0855,5.102,5.1214,5.1214,5.1214,5.1214,5.1214,5.1214,5.1214,5.0867,5.0867,5.1214,5.0442,5.0264,5.0677,4.9585,4.9093,0.0,0.0,0.0,4.0075,0.0,0.0,0.0,0.0,3.8202,0.0,0.0,0.0,3.8202,3.8202,3.8202,3.8202,3.8217,0.0,0.0,3.8246,3.8725,3.9944,4.0104,4.0104,4.0133,4.0728,4.1134,4.1134,4.1729,4.2092,4.2092,4.2092,4.2107,4.2121,4.2121,4.2411,4.3021,4.3674,4.4008,4.4037,4.5271,4.5532,4.4937,4.5829,4.621,4.621,4.6491,4.6594,4.6594,4.6844,4.6916,4.6931,4.7207,4.7309,4.7309,4.7309,4.7309,4.7309,4.7309,4.7309,4.7309,4.7309,4.7309,4.7309,4.7309,4.7309,4.7309,4.7309,4.7309,4.7309,4.7309,4.7309,4.7309,4.7309,4.7309,4.7309,4.7309,4.7324,4.7339,4.7339,4.7354,4.7369,4.7369,4.8416,4.9269,4.9269,4.9269,4.9269,4.9269,4.9284,4.9299,4.9299,4.9314,4.9329,4.9329,4.9912,5.0541,5.1184,5.1214,5.1214,5.1214,5.1214,5.1214,5.1214,5.1229,5.1214,5.1214,5.112,5.112,5.112,5.0154,4.9669,4.0844,4.0981,4.0879,4.0485,4.0222,0.0,0.0,0.0,0.0,0.0,0.0,0.0,0.0,3.8507,3.8202,3.8202,3.8202,3.8202,0.0,3.8277,3.8602,3.8949,3.9324,3.9509,3.9509,4.0466,4.1091,4.1091,4.1715,4.2092,4.2092,4.2092,4.2092,4.2092,4.2092,4.2194,4.2397,4.2629,4.2934,4.334,4.3761,4.4081,4.4313,4.5201,4.5581,4.561,4.6315,4.6594,4.6594,4.6844,4.6916,4.6931,4.7207,4.7309,4.7309,4.7309,4.7309,4.7309,4.7309,4.7309,4.7309,4.7309,4.7309,4.7309,4.7309,4.7309,4.7309,4.7309,4.7309,4.7309,4.7309,4.7309,4.7309,4.7309,4.7309,4.7309,4.7309,4.7309,4.7309,4.7309,4.7381,4.7467,4.7467,4.8,4.8389,4.8215,4.8302,4.8475,4.8475,4.8796,4.9068,4.9068,4.9445,4.9687,4.9687,5.0321,5.0713,5.0832,5.1254,5.1401,5.1214,5.1214,5.1214,5.1214,5.1214,5.1214,5.1214,5.1214,5.1214,5.1214,5.0392,5.0138,4.1697,4.1894,4.1806,4.141,4.1131,4.0671,3.9561,0.0,3.9182,0.0,0.0,0.0,0.0,0.0,3.8202,3.8277,3.8277,3.8202,0.0,3.8441,3.8516,3.859,3.8821,3.9019,3.9237,4.0008,4.0612,4.1062,4.1497,4.1845,4.2092,4.2092,4.2092,4.2092,4.2092,4.2092,4.2092,4.231,4.2582,4.2756,4.3525,4.3947,4.4252,4.5375,4.5859,4.5888,4.6578,4.6858,4.6858,4.7033,4.7019,4.7019,4.7207,4.7309,4.7309,4.7309,4.7309,4.7309,4.7309,4.7309,4.7309,4.7309,4.7309,4.7309,4.7309,4.7309,4.7444,4.8147,4.7848,4.7474,4.8162,4.7833,4.7309,4.7309,4.7309,4.7309,4.7309,4.7396,4.7381,4.7381,4.7553,4.7709,4.7709,4.7964,4.8049,4.7794,4.788,4.7964,4.7964,4.8359,4.8632,4.8632,4.8997,4.9346,4.9588,5.0029,5.0289,5.0321,5.0729,5.0787,5.0603,5.0511,5.0855,5.1558,5.0885,5.087,5.1558,5.087,5.0526,5.0511,5.0092,4.9938]},{"header":{"parameterUnit":"m.s-1","parameterCategory":1,"la1":30.6,"la2":29.2853,"lo1":-89.7004,"lo2":-87.6739,"dy":0.0162,"dx":0.0183,"nx":112,"ny":82,"refTime":"2023-05-21T00:00:00:Z","depth":0,"parameterNumber":3,"parameterNumberName":"V-component_of_WINDS"},"data":[0.0,0.0,0.0,0.0,0.0,0.0,0.0,0.0,0.0,0.0,0.0,0.0,0.0,0.0,0.0,0.0,0.0,0.0,0.0,0.0,0.0,0.0,0.0,0.0,0.0,0.0,0.0,0.0,0.0,0.0,0.0,0.0,0.0,0.0,0.0,0.0,0.0,0.0,0.0,0.0,0.0,0.0,0.0,0.0,0.0,0.0,0.0,0.0,0.0,0.0,0.0,0.0,0.0,0.0,0.0,0.0,0.0,0.0,0.0,0.0,0.0,0.0,0.0,0.0,0.0,0.0,0.0,0.0,0.0,0.0,0.0,0.0,0.0,0.0,0.0,0.0,0.0,0.0,0.0,0.0,0.0,0.0,0.0,0.0,0.0,0.0,0.0,0.0,0.0,0.0,3.1357,3.2433,3.3893,3.4619,3.409,3.4643,3.4019,3.1749,0.0,0.0,0.0,0.0,0.0,0.0,0.0,0.0,0.0,0.0,0.0,0.0,0.0,0.0,0.0,0.0,0.0,0.0,0.0,0.0,0.0,0.0,0.0,0.0,0.0,0.0,0.0,0.0,0.0,0.0,0.0,0.0,0.0,0.0,0.0,0.0,0.0,0.0,0.0,0.0,0.0,0.0,0.0,0.0,0.0,0.0,0.0,0.0,0.0,0.0,0.0,0.0,0.0,0.0,0.0,0.0,0.0,0.0,0.0,0.0,0.0,0.0,0.0,0.0,0.0,0.0,0.0,0.0,0.0,0.0,0.0,0.0,0.0,0.0,0.0,0.0,0.0,0.0,0.0,0.0,0.0,0.0,0.0,0.0,0.0,0.0,0.0,0.0,0.0,0.0,0.0,0.0,0.0,0.0,0.0,0.0,0.0,0.0,0.0,0.0,0.0,0.0,0.0,0.0,3.2531,3.3606,3.4366,3.4619,3.409,3.4114,3.3591,3.2251,0.0,0.0,0.0,0.0,0.0,0.0,0.0,0.0,0.0,0.0,0.0,0.0,0.0,0.0,0.0,0.0,0.0,0.0,0.0,0.0,0.0,0.0,0.0,0.0,0.0,0.0,0.0,0.0,0.0,0.0,0.0,0.0,0.0,0.0,0.0,0.0,0.0,0.0,0.0,0.0,0.0,0.0,0.0,0.0,0.0,0.0,0.0,0.0,0.0,0.0,0.0,0.0,0.0,0.0,0.0,0.0,0.0,0.0,0.0,0.0,0.0,0.0,0.0,0.0,0.0,0.0,0.0,0.0,0.0,0.0,0.0,0.0,0.0,0.0,0.0,0.0,0.0,0.0,0.0,0.0,0.0,0.0,0.0,0.0,0.0,0.0,0.0,0.0,0.0,0.0,0.0,0.0,0.0,0.0,0.0,0.0,0.0,0.0,0.0,0.0,0.0,0.0,0.0,3.2314,3.304,3.3897,3.4511,3.4727,3.4487,3.4571,3.4165,3.2993,3.3146,0.0,0.0,0.0,0.0,0.0,0.0,0.0,0.0,0.0,0.0,0.0,0.0,0.0,0.0,0.0,0.0,0.0,0.0,0.0,0.0,0.0,0.0,0.0,0.0,0.0,0.0,0.0,0.0,0.0,0.0,0.0,0.0,0.0,0.0,0.0,0.0,0.0,0.0,0.0,0.0,0.0,0.0,0.0,0.0,0.0,0.0,0.0,0.0,0.0,0.0,0.0,0.0,0.0,0.0,0.0,0.0,0.0,0.0,0.0,0.0,0.0,0.0,0.0,0.0,0.0,0.0,0.0,0.0,0.0,0.0,0.0,0.0,0.0,0.0,0.0,0.0,0.0,0.0,0.0,0.0,0.0,0.0,0.0,0.0,0.0,0.0,0.0,0.0,0.0,0.0,0.0,0.0,0.0,0.0,0.0,0.0,0.0,0.0,0.0,0.0,0.0,0.0,3.3244,3.3796,3.4233,3.48,3.5065,3.4932,3.5005,3.474,3.3816,3.3734,0.0,0.0,0.0,0.0,0.0,0.0,0.0,0.0,0.0,0.0,0.0,0.0,0.0,0.0,0.0,0.0,0.0,0.0,0.0,0.0,0.0,0.0,0.0,0.0,0.0,0.0,0.0,0.0,0.0,0.0,0.0,0.0,0.0,0.0,0.0,0.0,0.0,0.0,0.0,0.0,0.0,0.0,0.0,0.0,0.0,0.0,0.0,0.0,0.0,0.0,0.0,0.0,0.0,0.0,0.0,0.0,0.0,0.0,0.0,0.0,0.0,0.0,0.0,0.0,0.0,0.0,0.0,0.0,0.0,0.0,0.0,0.0,0.0,0.0,0.0,0.0,0.0,0.0,0.0,0.0,0.0,0.0,0.0,0.0,0.0,0.0,0.0,0.0,0.0,0.0,0.0,0.0,0.0,0.0,0.0,0.0,0.0,0.0,0.0,0.0,0.0,0.0,3.4715,3.5114,3.5162,3.5844,3.5966,3.5272,3.4964,3.4786,3.461,3.3784,0.0,0.0,0.0,0.0,0.0,0.0,0.0,0.0,0.0,0.0,0.0,0.0,0.0,0.0,0.0,0.0,0.0,0.0,0.0,0.0,0.0,0.0,0.0,0.0,0.0,0.0,0.0,0.0,0.0,0.0,0.0,0.0,0.0,0.0,0.0,0.0,0.0,0.0,0.0,0.0,0.0,0.0,0.0,0.0,0.0,0.0,0.0,0.0,0.0,0.0,0.0,0.0,0.0,0.0,0.0,0.0,0.0,0.0,0.0,0.0,0.0,0.0,0.0,0.0,0.0,0.0,0.0,0.0,0.0,0.0,0.0,0.0,0.0,0.0,0.0,0.0,0.0,0.0,0.0,0.0,0.0,0.0,0.0,0.0,0.0,0.0,0.0,0.0,0.0,0.0,0.0,0.0,0.0,0.0,0.0,0.0,0.0,0.0,0.0,0.0,0.0,0.0,3.5058,3.5387,0.0,3.5904,3.5745,3.544,3.5531,3.5307,3.4956,0.0,0.0,0.0,0.0,0.0,0.0,0.0,0.0,0.0,0.0,0.0,0.0,0.0,0.0,0.0,0.0,0.0,0.0,0.0,0.0,0.0,0.0,0.0,0.0,0.0,0.0,0.0,0.0,0.0,0.0,0.0,0.0,0.0,0.0,0.0,0.0,0.0,0.0,0.0,0.0,0.0,0.0,0.0,0.0,0.0,0.0,0.0,0.0,0.0,0.0,0.0,0.0,0.0,0.0,0.0,0.0,0.0,0.0,0.0,0.0,0.0,0.0,0.0,0.0,0.0,0.0,0.0,0.0,0.0,0.0,0.0,0.0,0.0,0.0,0.0,0.0,0.0,0.0,0.0,0.0,0.0,0.0,0.0,0.0,0.0,0.0,0.0,0.0,0.0,0.0,0.0,0.0,0.0,0.0,0.0,0.0,0.0,0.0,0.0,0.0,0.0,0.0,3.5164,3.5587,3.5895,0.0,3.6282,3.5985,3.5729,3.5841,3.5793,3.5467,0.0,0.0,0.0,0.0,0.0,0.0,0.0,0.0,0.0,0.0,0.0,0.0,0.0,0.0,0.0,0.0,0.0,0.0,0.0,0.0,0.0,0.0,0.0,0.0,0.0,0.0,0.0,0.0,0.0,0.0,0.0,0.0,0.0,0.0,0.0,0.0,0.0,0.0,0.0,0.0,0.0,0.0,0.0,0.0,0.0,0.0,0.0,0.0,0.0,0.0,0.0,0.0,0.0,0.0,0.0,0.0,0.0,0.0,0.0,0.0,0.0,0.0,0.0,0.0,0.0,0.0,0.0,0.0,0.0,0.0,0.0,0.0,0.0,0.0,0.0,0.0,0.0,0.0,0.0,0.0,0.0,0.0,0.0,0.0,0.0,0.0,0.0,0.0,0.0,0.0,0.0,0.0,0.0,0.0,0.0,0.0,0.0,0.0,0.0,0.0,0.0,0.0,3.5386,3.6306,3.6786,3.6798,3.7089,3.6877,3.6065,3.5949,3.5989,0.0,0.0,0.0,0.0,0.0,0.0,0.0,0.0,0.0,0.0,0.0,0.0,0.0,0.0,0.0,0.0,0.0,0.0,0.0,0.0,0.0,0.0,0.0,0.0,0.0,0.0,0.0,0.0,0.0,0.0,0.0,0.0,0.0,0.0,0.0,0.0,0.0,0.0,0.0,0.0,0.0,0.0,0.0,0.0,0.0,0.0,0.0,0.0,0.0,0.0,0.0,0.0,0.0,0.0,0.0,0.0,0.0,0.0,0.0,0.0,0.0,0.0,0.0,0.0,0.0,0.0,0.0,0.0,0.0,0.0,0.0,0.0,0.0,0.0,0.0,0.0,0.0,0.0,0.0,0.0,0.0,0.0,0.0,0.0,0.0,0.0,0.0,0.0,0.0,0.0,0.0,0.0,0.0,0.0,0.0,0.0,0.0,0.0,0.0,0.0,0.0,0.0,0.0,3.5994,3.6651,3.739,3.8179,3.7651,3.722,3.7165,3.6716,3.6488,3.6561,0.0,0.0,0.0,0.0,0.0,0.0,0.0,0.0,0.0,0.0,0.0,0.0,0.0,0.0,0.0,0.0,0.0,0.0,0.0,0.0,0.0,0.0,0.0,0.0,0.0,0.0,0.0,0.0,0.0,0.0,0.0,0.0,0.0,0.0,0.0,0.0,0.0,0.0,0.0,0.0,0.0,0.0,0.0,0.0,0.0,0.0,0.0,0.0,0.0,0.0,0.0,0.0,0.0,0.0,0.0,0.0,0.0,0.0,0.0,0.0,0.0,0.0,0.0,0.0,0.0,0.0,0.0,0.0,0.0,0.0,0.0,0.0,0.0,0.0,0.0,0.0,0.0,0.0,0.0,0.0,0.0,0.0,0.0,0.0,0.0,0.0,0.0,0.0,0.0,0.0,0.0,0.0,0.0,0.0,0.0,0.0,0.0,0.0,0.0,0.0,0.0,0.0,3.6219,3.6847,3.7613,3.8755,3.8164,3.7632,3.7597,3.7457,3.7291,3.7001,0.0,0.0,0.0,0.0,0.0,0.0,0.0,0.0,0.0,0.0,0.0,0.0,0.0,0.0,0.0,0.0,0.0,0.0,0.0,0.0,0.0,0.0,0.0,0.0,0.0,0.0,0.0,0.0,0.0,0.0,0.0,0.0,0.0,0.0,0.0,0.0,0.0,0.0,0.0,0.0,0.0,0.0,0.0,0.0,0.0,0.0,0.0,0.0,0.0,0.0,0.0,0.0,0.0,0.0,0.0,0.0,0.0,0.0,0.0,0.0,0.0,0.0,0.0,0.0,0.0,0.0,0.0,0.0,0.0,0.0,0.0,0.0,0.0,0.0,0.0,0.0,0.0,0.0,0.0,0.0,0.0,0.0,0.0,0.0,0.0,0.0,0.0,0.0,0.0,0.0,0.0,0.0,0.0,0.0,0.0,0.0,0.0,0.0,0.0,0.0,0.0,0.0,3.6219,3.6885,3.7688,3.8932,3.8741,3.8269,3.7807,3.8183,3.8101,3.7544,0.0,0.0,0.0,0.0,0.0,0.0,0.0,0.0,0.0,0.0,0.0,0.0,0.0,0.0,0.0,0.0,0.0,0.0,0.0,0.0,0.0,0.0,0.0,0.0,0.0,0.0,0.0,0.0,0.0,0.0,0.0,0.0,0.0,0.0,0.0,0.0,0.0,0.0,0.0,0.0,0.0,0.0,0.0,0.0,0.0,0.0,0.0,0.0,0.0,0.0,0.0,0.0,0.0,0.0,0.0,0.0,0.0,0.0,0.0,0.0,3.0108,2.9213,0.0,0.0,0.0,0.0,0.0,0.0,0.0,0.0,0.0,0.0,0.0,0.0,0.0,0.0,0.0,0.0,0.0,0.0,0.0,0.0,0.0,0.0,0.0,0.0,0.0,0.0,0.0,0.0,0.0,0.0,0.0,0.0,0.0,0.0,0.0,0.0,0.0,0.0,0.0,0.0,3.6314,3.7224,3.8353,3.9677,3.9423,3.9076,3.8865,3.8605,3.8207,3.7834,3.79,0.0,0.0,0.0,0.0,0.0,0.0,0.0,0.0,0.0,0.0,0.0,0.0,0.0,0.0,0.0,0.0,0.0,0.0,0.0,0.0,0.0,0.0,0.0,0.0,0.0,0.0,0.0,0.0,0.0,0.0,0.0,0.0,0.0,0.0,0.0,0.0,0.0,0.0,0.0,0.0,0.0,0.0,0.0,0.0,0.0,0.0,0.0,0.0,0.0,0.0,0.0,0.0,0.0,0.0,0.0,0.0,0.0,0.0,0.0,3.0846,3.0121,0.0,0.0,0.0,0.0,0.0,0.0,0.0,0.0,0.0,0.0,0.0,0.0,0.0,0.0,0.0,0.0,0.0,0.0,0.0,0.0,0.0,0.0,0.0,0.0,0.0,0.0,0.0,0.0,0.0,0.0,0.0,0.0,0.0,0.0,0.0,0.0,0.0,0.0,0.0,0.0,3.6773,3.7695,3.8741,4.0173,4.0134,3.9937,3.9654,3.9427,3.9086,3.8344,3.8292,0.0,0.0,0.0,0.0,0.0,0.0,0.0,0.0,0.0,0.0,0.0,0.0,0.0,0.0,0.0,0.0,0.0,0.0,0.0,0.0,0.0,0.0,0.0,0.0,0.0,0.0,0.0,0.0,0.0,0.0,0.0,0.0,0.0,0.0,0.0,0.0,0.0,0.0,0.0,0.0,0.0,0.0,0.0,0.0,0.0,0.0,0.0,0.0,0.0,0.0,0.0,0.0,0.0,3.2215,3.2203,3.2293,3.3214,3.3514,3.3439,3.17,3.1259,3.165,3.0931,0.0,0.0,0.0,0.0,0.0,0.0,0.0,0.0,0.0,0.0,0.0,0.0,0.0,0.0,0.0,0.0,0.0,0.0,0.0,0.0,0.0,0.0,3.3193,3.4089,3.4653,3.4911,3.452,0.0,0.0,0.0,0.0,0.0,0.0,0.0,0.0,0.0,0.0,0.0,3.7394,3.8168,3.9153,4.0389,4.0795,4.065,4.0094,4.0233,3.9821,3.8776,3.8619,3.837,0.0,0.0,0.0,0.0,0.0,0.0,0.0,0.0,0.0,0.0,0.0,0.0,0.0,0.0,0.0,0.0,0.0,0.0,0.0,0.0,0.0,0.0,0.0,0.0,0.0,0.0,0.0,0.0,0.0,0.0,0.0,0.0,3.0351,3.1203,0.0,0.0,0.0,0.0,0.0,0.0,0.0,0.0,0.0,0.0,0.0,0.0,0.0,3.3456,3.3533,3.4346,3.4692,3.4667,3.4399,3.4335,3.432,3.4485,3.4522,3.451,3.4195,0.0,3.2327,3.261,0.0,0.0,0.0,0.0,0.0,0.0,0.0,0.0,0.0,0.0,0.0,0.0,0.0,0.0,0.0,0.0,0.0,0.0,0.0,0.0,0.0,0.0,3.5157,3.5232,3.5699,3.6144,3.6144,3.5299,3.4623,3.4726,3.4663,3.4702,0.0,0.0,0.0,0.0,0.0,0.0,3.7591,3.8707,3.9899,4.0718,4.0883,4.075,4.0363,3.9991,3.9429,3.8749,3.8266,3.7978,3.79,3.79,0.0,0.0,0.0,0.0,0.0,0.0,0.0,0.0,0.0,0.0,0.0,0.0,0.0,0.0,0.0,0.0,0.0,0.0,0.0,0.0,0.0,0.0,0.0,0.0,0.0,0.0,0.0,0.0,0.0,3.0738,3.1094,3.12,3.1265,3.1278,0.0,0.0,0.0,0.0,0.0,0.0,0.0,0.0,0.0,3.3983,3.4406,3.4808,3.5107,3.535,3.584,3.6495,3.622,3.6447,3.7032,3.7032,3.7032,3.7032,3.7032,3.6387,3.5211,3.4387,3.3621,3.2997,0.0,0.0,0.0,0.0,3.3009,3.2947,3.2742,3.2975,3.331,3.3089,0.0,0.0,0.0,0.0,0.0,0.0,0.0,3.3818,3.4557,3.5208,3.5705,3.6301,3.6885,3.7287,3.7287,3.691,3.6383,3.5941,3.5483,3.5269,3.5542,3.5468,0.0,0.0,0.0,3.7735,3.8216,3.9244,4.0262,4.1045,4.1097,4.1106,4.0945,4.071,4.0187,3.9272,3.8998,3.8579,3.7926,3.79,3.79,0.0,0.0,0.0,0.0,0.0,0.0,0.0,0.0,0.0,0.0,0.0,0.0,0.0,0.0,0.0,0.0,0.0,0.0,0.0,0.0,0.0,0.0,0.0,0.0,0.0,0.0,0.0,0.0,3.1601,3.1901,3.1407,3.1772,3.1941,0.0,0.0,0.0,0.0,0.0,0.0,3.3992,3.4066,3.4438,3.5469,3.5796,3.6162,3.6567,3.6675,3.7078,3.7839,3.757,3.791,3.8689,3.8689,3.8787,3.8787,3.8689,3.8362,3.7686,3.6117,3.519,3.4939,3.4939,3.4851,3.4738,3.4876,3.4939,3.4886,3.486,3.5064,3.5249,3.4495,3.4218,3.4133,3.3642,0.0,0.0,0.0,0.0,3.4898,3.5441,3.5982,3.6512,3.7202,3.7811,3.8101,3.8101,3.8212,3.796,3.7222,3.6521,3.6155,3.6408,3.6261,0.0,3.6278,3.7407,3.845,3.9097,3.9899,4.0629,4.1272,4.1311,4.1311,4.1311,4.1167,4.0723,3.9873,3.969,3.9155,3.8161,3.8109,3.8044,3.79,0.0,0.0,0.0,0.0,0.0,0.0,0.0,0.0,0.0,0.0,0.0,0.0,0.0,0.0,0.0,0.0,0.0,0.0,0.0,0.0,0.0,0.0,0.0,0.0,0.0,0.0,0.0,0.0,0.0,3.2382,3.2982,0.0,0.0,0.0,0.0,3.347,3.4005,3.458,3.5182,3.5691,3.6005,3.6057,3.7168,3.7782,3.7808,3.8584,3.8949,3.8697,3.843,3.8371,3.8421,3.8421,3.8605,3.8787,3.8507,3.8409,3.8333,3.7711,3.6647,3.5504,3.5504,3.519,3.4788,3.5303,3.5504,3.5655,3.6697,3.7061,3.7061,3.7061,3.5953,3.4625,3.4121,3.4318,0.0,0.0,3.6276,3.7186,3.7739,3.7902,3.7927,3.7965,3.8187,3.8421,3.8421,3.8592,3.8566,3.8025,3.7682,3.7591,3.7769,0.0,3.823,3.8256,3.9394,4.022,4.0089,4.0707,4.1285,4.1311,4.1311,4.1311,4.1311,4.0788,4.0435,4.0383,3.9899,3.9324,3.8697,3.8671,3.8436,3.7913,3.79,0.0,0.0,0.0,0.0,0.0,0.0,0.0,0.0,0.0,0.0,0.0,0.0,0.0,0.0,0.0,0.0,0.0,0.0,0.0,0.0,0.0,0.0,0.0,0.0,0.0,0.0,0.0,0.0,3.3232,3.411,0.0,3.4053,3.4184,3.4607,3.5168,3.5744,3.6488,3.7442,3.7678,3.8122,3.8854,3.9298,3.952,3.952,4.0207,4.0304,3.9816,4.0119,4.0301,4.0314,4.0676,4.0945,4.0958,4.122,4.1092,4.0541,4.0336,3.9064,3.7136,3.7136,3.701,3.686,3.7061,3.7136,3.7186,3.7575,3.7713,3.7713,3.7713,3.7352,3.6783,3.6596,3.6671,3.6858,3.7167,3.7465,3.7764,3.7952,3.8278,3.8667,3.878,3.9133,3.9588,3.9701,4.0184,4.0427,4.0224,3.9178,3.8395,3.8492,3.8685,3.889,3.8685,3.9622,4.0455,4.0633,4.098,4.1455,4.1821,4.1533,4.1311,4.1311,4.1314,4.1025,4.0448,4.0531,4.0271,3.9583,3.9188,3.907,3.9267,3.8712,3.8423,0.0,0.0,0.0,0.0,0.0,0.0,0.0,0.0,0.0,0.0,0.0,0.0,0.0,0.0,0.0,0.0,0.0,0.0,0.0,0.0,0.0,0.0,0.0,0.0,0.0,0.0,3.4842,3.4489,3.5626,3.6227,3.5639,3.594,3.6397,3.6946,3.7547,3.8292,3.9233,3.9481,3.9939,4.0697,4.0723,4.0814,4.101,4.1402,4.1494,4.1185,4.1589,4.1784,4.1797,4.2175,4.2345,4.2461,4.2554,4.232,4.1763,4.1453,4.0401,3.8855,3.8578,3.8277,3.8139,3.8228,3.8304,3.8329,3.8517,3.8454,3.8304,3.8304,3.8165,3.8002,3.8002,3.814,3.8304,3.8304,3.8429,3.8567,3.8567,3.8856,3.9297,3.969,4.0211,4.0619,4.1119,4.1557,4.1931,4.1827,4.0591,3.9612,3.9818,3.9731,3.9635,3.9633,4.0447,4.1141,4.1419,4.1585,4.1922,4.2703,4.197,4.1489,4.1673,4.1716,4.1426,4.0834,4.1214,4.1059,4.0476,3.9785,3.9559,3.9968,3.9396,3.9105,3.9105,0.0,0.0,0.0,0.0,0.0,0.0,0.0,0.0,0.0,0.0,0.0,0.0,0.0,0.0,0.0,0.0,0.0,0.0,0.0,0.0,0.0,0.0,0.0,3.3718,3.5103,3.6162,3.6188,3.7691,3.854,3.8031,3.7978,3.8214,3.8776,3.9364,3.9926,4.0461,4.105,4.1363,4.1363,4.1389,4.1651,4.2186,4.2226,4.2397,4.2578,4.2591,4.2591,4.2578,4.2591,4.2814,4.3023,4.219,4.1841,4.1789,4.0901,4.0555,4.0504,3.9638,3.8979,3.8536,3.8793,3.8894,3.8969,3.9509,3.9346,3.8894,3.8894,3.8517,3.8052,3.8065,3.8467,3.8919,3.8919,3.932,3.9747,3.9747,3.9747,3.9976,4.0806,4.1142,4.1607,4.2462,4.2814,4.2945,4.2709,4.1711,4.1142,4.1711,4.1058,4.0697,4.1285,4.1847,0.0,4.2607,4.2404,4.2614,4.3797,4.2611,4.1947,4.2475,4.2013,4.1696,4.1696,4.1696,4.1643,4.1253,4.0489,4.0103,4.0008,4.0008,4.0008,4.0008,0.0,0.0,0.0,0.0,0.0,0.0,0.0,0.0,0.0,0.0,0.0,0.0,0.0,0.0,0.0,0.0,0.0,0.0,0.0,0.0,0.0,3.4554,3.4999,3.4842,3.6319,3.7547,3.7952,3.8802,3.9455,3.9703,3.973,4.0135,4.1141,4.1376,4.1703,4.2278,4.2461,4.2552,4.2552,4.2958,4.3049,4.2788,4.3611,4.3676,4.2919,4.3323,4.331,4.2919,4.3336,4.3624,4.365,4.3805,4.3688,4.3258,4.258,4.2346,4.2138,4.076,3.9969,3.9639,3.9702,3.9663,3.9484,3.9647,3.9597,3.9471,3.9471,3.9448,3.9512,3.9322,3.9712,4.036,4.0061,4.0568,4.1208,4.1208,4.1208,4.1351,4.1993,4.2044,4.2201,4.2775,4.3337,4.3637,4.3518,4.3271,4.2971,4.2502,4.2307,4.2369,4.2526,4.2683,4.2931,4.3455,4.314,4.2957,4.3218,4.2574,4.2023,4.196,4.1974,4.198,4.198,4.2387,4.2417,4.2158,4.1472,4.1069,4.0877,4.0877,4.0877,0.0,0.0,0.0,0.0,0.0,0.0,0.0,0.0,0.0,0.0,0.0,0.0,0.0,0.0,0.0,0.0,0.0,0.0,0.0,0.0,0.0,0.0,3.5822,3.6554,3.7037,3.7978,3.8815,3.9364,4.0174,4.0801,4.1115,4.1363,4.1794,4.2474,4.2748,4.3023,4.3363,4.3598,4.3742,4.3742,4.382,4.3833,4.3742,4.416,4.416,4.3742,4.4068,4.4055,4.3742,4.4081,4.4238,4.4238,4.433,4.4186,4.382,4.3258,4.3023,4.2801,0.0,0.0,0.0,0.0,4.0198,3.9993,3.989,3.989,3.989,3.989,4.0145,4.0426,4.0438,4.0936,4.1368,4.1275,4.1622,4.1983,4.1983,4.1983,4.214,4.2783,4.2848,4.2912,4.3583,4.4003,4.4238,4.4238,4.4238,0.0,4.3568,4.3218,4.3101,4.3337,4.3376,4.3493,4.4032,4.3783,4.3782,4.4243,4.3528,4.2995,4.2851,4.2925,0.0,0.0,0.0,4.2841,4.2148,4.2027,0.0,0.0,0.0,4.1877,4.1877,4.1719,0.0,0.0,4.087,4.0842,0.0,0.0,0.0,0.0,0.0,0.0,0.0,0.0,0.0,0.0,0.0,0.0,0.0,0.0,0.0,0.0,3.7351,3.8501,3.9638,3.986,4.0069,4.0553,4.1585,4.2291,4.2356,4.2814,4.3141,4.3206,4.3689,4.3964,4.3964,4.4447,0.0,0.0,0.0,4.4186,4.463,4.4186,4.4225,4.4722,4.4722,4.4722,4.4722,4.4722,4.4722,4.4696,4.4186,4.3964,4.3925,4.335,4.3075,4.2918,4.1581,4.1401,4.1699,4.0991,4.0696,4.0696,4.0376,0.0,0.0,4.0363,4.0694,4.1101,4.1426,4.1929,4.2378,4.2272,4.2323,4.2481,4.2481,4.2481,4.2597,4.3433,4.3562,4.3799,4.4509,4.4722,4.4722,4.4722,4.4722,4.4722,4.4722,4.3885,4.3389,4.4005,4.407,4.4176,4.4388,4.4481,4.4758,4.5753,4.4971,0.0,4.4259,4.4259,4.3788,4.2673,4.3134,4.2905,4.1827,4.2312,4.2256,4.1416,4.2409,4.2984,4.2984,4.3177,4.3437,4.3586,4.1949,4.1665,0.0,0.0,0.0,0.0,0.0,0.0,0.0,0.0,0.0,0.0,0.0,0.0,0.0,0.0,0.0,3.8018,3.8815,3.9677,4.0827,4.1376,4.1716,4.1821,4.2435,4.3036,4.3493,4.365,4.3899,4.4369,4.45,4.4565,4.4565,4.467,4.4513,4.4055,4.4382,4.4395,4.4042,4.4382,4.4617,4.4722,4.4722,0.0,4.4722,4.4722,4.4722,4.4722,4.4604,4.4565,4.4513,4.3938,4.3441,4.2997,4.245,4.2215,4.2108,4.1888,4.1849,4.1849,4.1849,4.1744,4.1744,4.1744,4.2018,4.2201,4.2121,4.2613,0.0,4.2956,4.3398,4.3868,4.3868,4.3868,4.4015,4.4323,4.4253,4.4292,4.46,4.4722,4.4722,4.4722,4.4722,4.4722,4.4722,4.4767,4.4783,4.4888,4.5116,4.5316,4.5316,4.5316,4.5289,4.5008,4.4754,4.455,4.4299,4.4259,4.4064,4.3548,4.3169,4.2955,4.2999,4.3108,4.3026,4.2903,4.3273,4.3328,4.3177,4.3437,4.3709,4.3926,4.3379,4.3338,0.0,0.0,0.0,0.0,0.0,0.0,0.0,0.0,0.0,0.0,0.0,3.5796,0.0,0.0,3.8148,3.9024,3.9899,4.0762,4.1625,4.2474,4.2918,4.2631,4.3101,4.3559,4.3846,4.4134,4.4421,4.4709,4.4722,4.4866,4.5153,4.4892,4.4735,4.4748,4.4735,4.4591,4.4304,4.4591,4.4879,4.5179,4.5179,4.5323,4.5597,4.5597,4.5454,4.5179,4.5179,4.5179,4.5153,4.4866,4.4301,4.3672,4.3646,4.3202,4.2604,4.2604,4.2604,4.2591,4.2486,4.2381,4.2381,4.2381,4.268,4.3018,4.3018,4.3514,4.3968,4.386,4.4188,4.4518,4.4518,4.4518,4.4518,4.4626,4.4626,4.4518,4.4626,4.4722,4.4722,4.4722,4.4722,4.4735,4.4951,4.518,4.5395,4.518,4.5287,4.5502,4.5595,4.5702,4.5688,4.538,4.5458,4.5439,4.4975,4.4651,4.4577,4.4678,4.4307,4.4065,4.4163,4.4358,4.4358,4.4358,4.465,4.4664,4.4581,4.4858,4.505,4.516,4.5036,4.4869,0.0,0.0,0.0,0.0,0.0,0.0,0.0,0.0,3.5155,3.5195,3.6358,3.7377,3.7482,3.8344,3.9272,3.9991,4.088,4.1817,4.2409,4.3402,4.3848,4.3402,4.3755,4.4042,4.4042,4.446,4.4722,4.4722,4.4839,4.5062,4.5428,4.5101,4.5075,4.5441,4.4983,4.4722,4.4722,4.4722,4.5036,4.5624,4.5624,4.5924,4.6473,4.6473,4.6225,4.5794,4.5676,4.5558,4.5454,4.5454,4.5057,4.4422,4.4626,4.416,4.335,4.335,4.335,4.335,4.3126,4.3021,4.3021,4.3021,4.3345,4.3734,4.4042,4.4356,4.4748,4.4866,4.4813,4.4774,4.5009,4.4983,4.4892,4.4892,4.4892,4.4892,4.4892,4.4813,4.4761,4.4879,4.4813,4.4883,4.5325,4.5474,4.5502,4.5395,4.5395,4.5502,4.5715,4.5914,4.6126,4.6126,4.635,4.6279,4.5804,4.5221,4.5085,4.5663,4.5294,4.5152,4.5266,4.5465,4.5564,4.5564,4.5888,4.6,4.5901,4.6196,4.6293,4.6293,4.642,4.6125,3.2993,3.2974,3.3356,3.3661,3.4012,3.469,0.0,0.0,3.6998,3.8018,3.8383,3.8684,3.922,3.9808,4.0579,4.1703,4.218,4.2742,4.3638,4.3993,4.4348,4.4487,4.4591,4.463,4.463,4.4696,4.4722,4.4722,4.5218,4.5323,4.4853,4.5271,4.531,4.4839,4.4761,4.4722,4.4722,4.4722,4.5036,4.5624,4.5624,4.5924,4.6473,4.6473,4.6447,4.6355,4.5846,4.5323,4.4826,4.4826,4.4787,4.4626,4.4722,4.4643,4.4539,4.4539,4.4539,4.4539,4.4431,4.4431,4.4431,4.4431,4.447,4.4522,4.463,4.467,4.4839,4.5375,4.514,4.497,4.6016,4.5911,4.5532,4.5532,4.5532,4.5532,4.5532,4.5101,4.4892,4.5428,4.5319,4.5352,4.5853,4.5739,4.5702,4.5914,4.6139,4.6364,4.6364,4.6469,4.6469,4.6469,4.6469,4.6442,4.6387,4.5831,4.5622,4.5895,4.5408,4.5266,4.5789,4.5789,4.5888,4.5888,4.6098,4.6098,4.5901,4.6196,4.6293,4.6307,4.6855,4.6771,3.4459,3.4258,3.4402,3.543,3.583,3.6201,3.7286,3.7769,3.8135,3.8606,3.9246,3.9782,4.003,4.0827,4.1686,0.0,4.2929,4.3533,4.4111,4.4071,4.4188,4.4657,4.4434,4.4356,4.4696,4.5049,4.5245,4.5245,4.548,4.5663,4.5741,4.5336,4.5297,4.5728,4.5428,4.5245,4.5245,4.5584,4.5872,4.6133,4.646,4.6917,4.7479,4.7479,4.7283,4.6944,4.6369,4.5976,4.5754,4.5754,4.5545,4.5245,4.5245,4.5245,4.5245,4.5245,4.5245,4.5245,4.5245,4.5467,4.5689,4.5362,4.5245,4.5245,4.5245,4.5009,4.4853,4.5454,4.5192,4.4918,4.5767,4.5807,4.5624,4.5624,4.5885,4.6029,4.591,4.5634,4.5638,4.5998,4.6058,4.6193,4.701,4.6718,4.6545,4.7217,4.6691,4.6245,4.6469,4.6469,4.6469,4.6469,4.6469,4.6469,4.6469,4.655,4.6517,4.631,4.6652,4.6918,4.6946,4.7247,4.7433,4.7433,4.7532,4.7447,4.7161,4.7612,4.7895,4.7909,4.8527,4.877,3.5666,3.5666,3.5739,3.6894,3.7364,3.7639,3.824,3.8789,3.9233,3.939,4.0082,4.0671,4.0671,4.1494,4.2315,4.2677,4.3428,4.4137,4.4507,4.4427,4.4372,4.4791,4.4369,4.4278,4.4683,4.5271,4.5624,4.5624,4.5924,4.6212,4.646,4.582,4.5767,4.646,4.6081,4.5859,4.5859,4.6264,4.6552,4.6721,4.714,4.7636,4.8185,4.8185,4.7871,4.731,4.6891,4.663,4.6473,4.6473,4.6238,4.5859,4.5859,4.5859,4.5859,4.5859,4.5754,4.5597,4.5441,4.5754,4.6173,4.5754,4.5624,4.5624,4.5624,4.5205,4.4879,4.565,4.5428,4.5192,4.6219,4.6324,4.6206,4.6317,4.6645,4.6928,4.6729,4.6518,4.6561,4.6927,4.6943,4.712,4.7956,4.7662,4.7568,4.8286,4.7393,4.6664,4.674,4.6577,4.6537,4.6699,4.6577,4.6574,4.6678,4.7095,4.7198,4.6977,4.7787,4.8162,4.8168,4.8548,4.8835,4.9005,4.8904,4.8816,4.864,4.9075,4.93,4.93,4.975,5.017,3.6155,3.6854,3.7332,3.7808,3.8266,3.8815,3.9416,3.9978,4.0527,4.1115,4.1259,4.1285,4.1285,4.1768,4.2343,4.2905,4.3691,4.4494,4.5074,4.5167,4.5167,4.518,4.483,4.4709,0.0,4.5271,4.5624,4.5624,4.6656,4.7048,4.6512,4.697,4.7009,4.6499,4.646,4.6447,4.6447,4.6473,4.6761,4.731,4.7323,4.7636,4.8185,4.8185,4.7871,4.7336,4.731,4.6996,4.6473,4.6473,4.6473,4.6447,4.6447,4.6447,4.6447,4.6447,4.6094,4.5545,4.4957,4.5153,4.565,4.5637,4.5624,4.5624,4.5624,4.5205,4.497,4.6133,4.6042,4.599,4.8034,4.8162,4.784,4.8193,4.8206,4.8219,4.8206,4.7753,4.7527,4.8086,4.7963,4.797,4.8561,4.8392,4.8409,4.9006,4.8585,4.7988,4.7405,4.6821,4.6686,4.7269,4.6821,4.6678,4.7198,4.7301,4.7494,4.7976,4.8294,4.8778,4.9416,4.9402,4.9685,5.0309,5.0114,4.9904,4.9904,4.9918,4.9932,4.9932,4.9946,5.017,3.7075,3.8096,3.9053,3.9926,4.0579,4.1154,4.1742,4.1716,4.1742,4.233,4.152,4.084,4.1246,4.1781,4.2328,4.2716,4.4309,4.5391,4.5206,4.518,4.5072,4.4843,4.4503,0.0,0.0,0.0,4.5794,4.6173,4.6552,4.6852,4.7035,4.6865,4.6852,4.7048,4.7048,4.7048,4.7048,4.7427,4.7519,4.7336,4.7715,4.7989,4.8172,4.7793,4.7715,4.7871,4.7492,4.744,4.7584,4.7205,4.7048,4.7048,4.7048,4.7048,4.7048,4.7048,4.6917,4.6617,4.565,4.595,4.6695,4.6316,4.6297,4.6586,4.6968,4.6678,4.6376,4.7152,4.6955,4.6744,4.7819,4.8166,4.8133,4.8246,4.8552,4.8839,4.8552,4.8436,4.8342,4.8767,4.8743,4.8797,4.9504,4.9112,4.8897,4.9101,4.8626,4.8165,4.7975,4.7771,4.7731,4.792,4.7771,4.7649,4.7864,4.8581,4.8987,4.8792,4.9728,5.034,5.0349,5.0378,5.0477,5.0705,5.0379,5.017,4.996,5.0368,5.0564,5.0578,5.12,5.1612,3.8423,3.9494,4.0501,4.1751,4.2315,4.2579,4.3048,4.2682,4.2265,4.2631,4.1494,4.054,4.0919,4.1568,4.2062,4.215,4.386,4.5048,4.489,4.4756,4.4728,4.4817,4.4516,4.433,0.0,0.0,0.0,4.6133,4.6552,4.6944,4.731,4.7179,4.7257,4.7623,4.7636,4.7636,4.7636,4.8002,4.8002,4.7649,4.8002,4.8185,4.8172,4.7806,4.7832,4.8159,4.7793,4.7845,4.8159,4.7793,4.7636,4.7636,4.7636,4.7636,4.7623,4.7414,4.7466,4.7479,4.6329,4.6552,4.727,4.7018,4.7113,4.7291,4.7774,4.7609,4.7152,4.7847,4.7741,4.7582,4.8266,4.8552,4.8779,4.8892,4.9174,4.9348,4.9198,4.9117,4.923,4.9342,4.944,4.9562,4.9942,4.9698,4.944,4.944,4.9114,4.887,4.887,4.8504,4.8327,4.8545,4.8368,4.8246,4.845,4.9389,4.9799,4.9509,5.0663,5.1292,5.1316,5.1241,5.1342,5.1585,5.1375,5.1151,5.0939,5.1228,5.1426,5.1533,5.2037,5.2451,4.0056,4.0971,4.1817,4.3124,4.331,4.3219,4.3544,4.2863,4.2315,4.2354,4.1246,4.0396,0.0,0.0,4.1571,4.135,4.2535,4.3702,4.4243,4.415,4.4267,0.0,0.0,0.0,0.0,0.0,0.0,4.5624,4.6682,4.731,4.7375,4.7898,4.8185,4.8185,4.8185,4.8185,4.8185,4.8185,4.8185,4.8185,4.8185,4.8185,4.8185,4.8185,4.8185,4.8185,4.8185,4.8185,4.8185,4.8185,4.8185,4.8185,4.8185,4.8185,4.812,4.7584,4.7715,4.8028,4.6944,4.6904,4.7336,4.7666,4.7766,4.7893,4.8286,4.7913,4.758,4.8252,4.8412,4.8532,4.9422,4.9569,4.9683,4.9897,5.001,5.001,5.001,5.001,5.001,5.001,5.001,5.001,5.001,5.001,5.001,5.001,5.001,5.001,5.001,4.9033,4.8545,4.9114,4.8667,4.8545,4.9194,4.9699,5.0108,5.0436,5.119,5.1889,5.22,5.22,5.2473,5.3107,5.2787,5.268,5.268,5.2343,5.2343,5.268,5.2343,5.2559,4.1363,4.2448,4.3297,4.369,4.3977,4.4304,4.4638,4.394,4.3216,4.3651,4.1795,4.0263,0.0,0.0,0.0,4.1909,4.3689,0.0,4.4594,4.5109,0.0,4.4883,0.0,4.5401,4.5401,4.578,0.0,4.6251,4.6525,4.7061,4.7924,4.8107,4.8185,4.8185,4.8185,4.8185,4.8185,4.8185,4.8185,4.8185,4.8185,4.8185,4.8185,4.8185,4.8185,4.8185,4.8185,4.8185,4.8185,4.8185,4.8185,4.8185,4.8185,4.8185,4.8159,4.8028,4.8068,4.8146,4.7858,4.7571,4.7336,4.7437,4.7793,4.8213,4.8765,4.8906,4.904,4.9187,4.9227,4.9268,4.9529,4.9783,4.9897,5.001,5.001,5.001,5.001,5.001,5.001,5.001,5.001,5.001,5.001,5.001,5.001,5.001,5.001,5.001,5.001,4.9752,4.9728,5.0436,5.0312,5.0326,5.0656,5.1511,5.1832,5.1739,5.2498,5.3109,5.3163,5.2968,5.2948,5.3121,5.2787,5.268,5.268,5.2573,5.2573,5.268,5.2787,5.2908,4.2905,4.3572,4.4096,4.4715,4.4899,4.4833,4.4547,4.3715,4.299,4.269,4.0867,3.9672,4.0396,4.0696,4.1044,0.0,0.0,0.0,4.4424,4.4846,4.5122,0.0,4.5415,0.0,4.5976,4.629,4.6578,4.6839,4.6852,4.714,4.778,4.8054,4.8185,4.8185,4.8185,4.8185,4.8185,4.8185,4.8185,4.8185,4.8185,4.8185,4.8185,4.8185,4.8185,4.8185,4.8185,4.8185,4.8185,4.8185,4.8185,4.8185,4.8185,4.8185,4.8185,4.8185,4.8185,4.8185,4.8185,4.8092,4.7945,4.7945,4.829,4.8686,4.9133,4.9569,4.9783,4.9783,4.9783,4.9783,4.9783,4.9897,5.001,5.001,5.001,5.001,5.001,5.001,5.001,5.001,5.001,5.001,5.001,5.001,5.001,5.001,5.001,5.001,5.001,5.001,5.0123,5.046,5.0795,5.0906,5.092,5.199,5.253,5.2235,5.2986,5.3515,5.3515,5.3319,5.3319,5.3319,5.3107,5.3001,5.2894,5.2894,5.2894,5.2894,5.3015,5.3107,4.4395,4.4421,4.4359,4.5665,4.5441,4.4784,4.3702,4.2937,4.2132,4.0743,0.0,3.8919,3.9586,4.025,4.0899,4.1402,0.0,4.3545,4.4005,4.4055,4.4487,4.5506,4.5754,4.6055,4.6538,4.6669,4.6904,4.7414,4.7453,4.7453,4.7453,4.7924,4.8185,4.8185,4.8185,4.8185,4.8185,4.8185,4.8185,4.8185,4.8185,4.8185,4.8185,4.8185,4.8185,4.8185,4.8185,4.8185,4.8185,4.8185,4.8185,4.8185,4.8185,4.8185,4.8185,4.8185,4.8185,4.8185,4.8185,4.8431,4.8677,4.8677,4.8895,4.924,4.9455,4.9783,5.001,5.001,5.001,5.001,5.001,5.001,5.001,5.001,5.001,5.001,5.001,5.001,5.001,5.001,5.001,5.001,5.001,5.001,5.001,5.001,5.001,5.001,5.001,5.0123,5.0123,5.0123,5.0683,5.1017,5.0711,5.1896,5.253,5.2235,5.2972,5.341,5.341,5.341,5.341,5.341,5.3515,5.341,5.3121,5.3121,5.3121,5.3015,5.3015,5.3213,4.5127,4.5036,4.4748,4.5454,4.4922,4.4071,4.361,4.2633,0.0,0.0,3.9889,3.9293,4.0082,4.0171,4.0689,4.2409,4.3087,4.369,4.4434,4.5009,4.5401,0.0,4.646,4.7074,4.7179,4.761,0.0,4.8028,4.8028,4.8028,4.8028,4.8133,4.8185,4.8185,4.8185,4.8185,4.8185,4.8185,4.8185,4.8185,4.8185,4.8185,4.8185,4.8185,4.8185,4.8185,4.8185,4.8185,4.8185,4.8185,4.8185,4.8185,4.8185,4.8185,4.8185,4.8185,4.8185,4.8185,4.8185,4.8431,4.8677,4.8677,4.9125,4.9569,4.9569,4.9783,5.001,5.001,5.001,5.001,5.001,5.001,5.001,5.001,5.001,5.001,5.001,5.001,5.001,5.001,5.001,5.001,5.001,5.001,5.001,5.001,5.001,5.001,5.001,5.046,5.0795,5.0795,5.1677,5.2127,5.1582,5.2451,5.2787,5.2221,5.2559,5.2894,5.2894,5.3001,5.3227,5.3227,5.3424,5.341,5.3121,5.3121,5.3015,5.2787,5.2787,5.2894,4.548,4.5415,4.5258,4.5655,4.5072,4.3992,4.2818,0.0,0.0,0.0,3.8858,3.8727,3.9377,3.9669,4.025,4.1442,4.2276,4.297,4.3716,4.4343,4.5049,4.5963,4.6552,4.7127,4.7715,4.8028,4.8185,4.8185,4.8185,4.8185,4.8185,4.8185,4.8185,4.8185,4.8185,4.8185,4.8185,4.8185,4.8185,4.8185,4.8185,4.8185,4.8185,4.8185,4.8185,4.8185,4.8185,4.8185,4.8185,4.8185,4.8185,4.8185,4.8185,4.8185,4.8185,4.8185,4.8185,4.8185,4.8431,4.8663,4.8895,4.9125,4.9341,4.9569,4.9569,4.9783,5.001,5.001,5.001,5.001,5.001,5.001,5.001,5.001,5.001,5.001,5.001,5.001,5.001,5.001,5.001,5.001,5.001,5.001,5.001,5.001,5.001,5.001,5.001,5.0795,5.1238,5.0906,5.2004,5.2451,5.1896,5.2573,5.2787,5.2235,5.2451,5.2787,5.2894,5.3015,5.3121,5.3319,5.341,5.3304,5.2894,5.3015,5.3015,5.268,5.2787,5.3001,4.5702,4.5624,4.5603,4.606,4.5381,4.4,4.2166,4.1364,0.0,3.8319,3.79,3.807,3.8606,3.9102,3.9638,0.0,4.1193,4.2082,4.2905,4.352,4.4526,0.0,4.6591,0.0,4.8081,4.8185,0.0,4.8185,4.8185,4.8185,4.8185,4.8185,4.8185,4.8185,4.8185,4.8185,4.8185,4.8185,4.8185,4.8185,4.8185,4.8185,4.8185,4.8185,4.8185,4.8185,4.8185,4.8185,4.8185,4.8185,4.8185,4.8185,4.8185,4.8185,4.8185,4.8185,4.8185,4.8185,4.8548,4.8779,4.9125,4.9455,4.9569,4.9683,4.9683,4.9783,5.001,5.001,5.001,5.001,5.001,5.001,5.001,5.001,5.001,5.001,5.001,5.001,5.001,5.001,5.001,5.001,5.001,5.001,5.001,5.001,5.001,5.001,5.001,5.1017,5.1568,5.1128,5.2113,5.2559,5.1896,5.268,5.2787,5.2235,5.2451,5.268,5.2787,5.2894,5.3001,5.3198,5.3304,5.3213,5.268,5.3015,5.3015,5.268,5.2894,5.3107,4.5976,4.5857,4.5523,4.6565,4.5355,4.3482,4.206,0.0,3.9717,3.8241,3.79,3.807,3.8606,3.8762,3.9155,0.0,4.0501,4.1154,4.2788,4.352,4.4526,4.6264,0.0,0.0,4.8133,4.8185,4.8185,4.8185,4.8185,4.8185,4.8185,4.8185,4.8185,4.8185,4.8185,4.8185,4.8185,4.8185,4.8185,4.8185,4.8185,4.8185,4.8185,4.8185,4.8185,4.8185,4.8185,4.8185,4.8185,4.8185,4.8185,4.8185,4.8185,4.8185,4.8185,4.8185,4.8185,4.8185,4.8185,4.865,4.9125,4.9125,4.9569,5.001,5.001,5.001,5.001,5.001,5.001,5.001,5.001,5.001,5.001,5.001,5.001,5.001,5.001,5.001,5.001,5.001,5.001,5.001,5.001,5.001,5.001,5.001,5.001,5.001,5.001,5.1017,5.1787,5.1677,5.2759,5.3092,5.2235,5.2787,5.2787,5.2235,5.2235,5.2127,5.1896,5.2127,5.2343,5.2343,5.2894,5.3001,5.268,5.3015,5.3015,5.268,5.268,5.2894,4.463,4.5306,4.5642,4.562,4.4678,4.3424,4.1834,0.0,3.9651,3.8227,3.79,3.7965,3.8187,3.8227,3.837,3.8828,3.9181,3.9873,4.1259,4.1964,4.3232,4.5676,4.6173,0.0,0.0,0.0,4.8185,4.8185,4.7858,4.7819,4.8159,4.8185,4.8185,4.8185,4.8185,4.8185,4.8185,4.8185,4.8185,4.8185,4.8185,4.8185,4.8185,4.8185,4.8185,4.8185,4.8185,4.8185,4.8185,4.8185,4.8185,4.8185,4.8185,4.8185,4.8185,4.8185,4.8185,4.8185,4.8431,4.8663,4.8895,4.9227,4.9569,4.9783,4.9897,5.001,5.001,5.001,5.001,5.001,5.001,5.001,5.001,5.001,5.001,5.001,5.001,5.001,5.001,5.001,5.001,5.001,5.001,5.001,5.001,5.001,5.001,5.0123,5.0446,5.1238,5.1896,5.2004,5.2865,5.3304,5.2787,5.2787,5.268,5.2235,5.2004,5.2004,5.2004,5.2127,5.2343,5.2451,5.2787,5.268,5.2451,5.268,5.2787,5.268,5.2894,5.3107,4.3585,4.4676,4.5378,4.4944,4.4173,4.3158,0.0,0.0,3.9333,3.8188,3.79,3.79,3.79,3.79,3.79,3.79,3.8357,3.9102,4.0252,4.0932,4.2265,4.48,0.0,4.5976,4.7532,4.7989,4.8185,4.8185,4.7819,4.7754,4.8159,4.8028,4.8015,4.8172,4.8185,4.8185,4.8185,4.8185,4.8185,4.8185,4.8185,4.8185,4.8185,4.8185,4.8185,4.8185,4.8185,4.8185,4.8185,4.8185,4.8185,4.8185,4.8185,4.8185,4.8185,4.8185,4.8185,4.8185,4.8431,4.8677,4.8792,4.924,4.9455,4.9683,4.9783,4.9897,5.001,5.001,5.001,5.001,5.001,5.001,5.001,5.001,5.001,5.001,5.001,5.001,5.001,5.001,5.001,5.001,5.001,5.001,5.001,5.001,5.0123,5.046,5.0906,5.1458,5.2004,5.2235,5.288,5.3213,5.3015,5.2894,5.268,5.2343,5.2127,5.2127,5.2235,5.2127,5.2235,5.2451,5.2451,5.2451,5.2235,5.2559,5.268,5.268,5.3015,5.3213,4.3245,4.4085,4.4441,4.5035,4.4082,4.2591,0.0,4.001,3.8926,3.811,3.79,3.79,3.79,3.79,3.79,3.79,3.8357,3.9102,4.0252,4.0932,4.1951,0.0,4.4395,4.5205,4.6382,4.7519,4.8185,4.8185,4.8172,4.8172,4.8185,4.7649,4.7597,4.8159,4.8185,4.8185,4.8185,4.8185,4.8185,4.8185,4.8185,4.8185,4.8185,4.8185,4.8185,4.8185,4.8185,4.8185,4.8185,4.8185,4.8185,4.8185,4.8185,4.8185,4.8185,4.8185,4.8185,4.8185,4.8185,4.8431,4.8677,4.8677,4.9125,4.9569,4.9569,4.9783,5.001,5.001,5.001,5.001,5.001,5.001,5.001,5.001,5.001,5.001,5.001,5.001,5.001,5.001,5.001,5.001,5.001,5.001,5.001,5.001,5.046,5.0906,5.0906,5.1677,5.2235,5.2235,5.2451,5.268,5.268,5.2908,5.3015,5.268,5.268,5.2559,5.2235,5.1896,5.1787,5.1787,5.2127,5.2235,5.2235,5.2559,5.268,5.268,5.3015,5.3213,4.0997,4.1997,4.2462,4.2264,4.1901,4.1272,3.9997,3.9241,3.8647,3.8018,3.79,3.79,3.79,3.79,3.8161,3.8945,3.8867,3.9246,4.0814,4.1193,0.0,4.3663,4.5428,4.6656,4.7022,4.7035,4.7022,4.7022,4.7022,4.7022,4.7022,4.7218,4.7597,4.8159,4.7806,4.7793,4.8185,4.8185,4.8185,4.8185,4.8185,4.8185,4.8185,4.8185,4.8185,4.8185,4.8185,4.8185,4.8185,4.8185,4.8185,4.8185,4.8185,4.8185,4.8185,4.8185,4.8185,4.8185,4.8185,4.8302,4.8431,4.8895,4.9125,4.9341,4.9783,4.9897,5.001,5.001,5.001,5.001,5.001,5.001,5.001,5.001,5.001,5.001,5.001,5.001,5.001,5.001,5.001,5.001,5.001,5.001,5.001,5.001,5.0123,5.046,5.1128,5.1458,5.1787,5.2127,5.2343,5.2451,5.268,5.2573,5.2451,5.2343,5.2235,5.2004,5.1896,5.1896,5.1787,5.1787,5.1896,5.1896,5.1896,5.2235,5.2451,5.268,5.2787,5.3001,3.9586,4.0625,4.1077,4.0723,4.057,0.0,0.0,3.8634,3.8305,3.7978,3.79,3.79,3.79,3.79,3.8135,3.8841,3.9011,3.9429,4.0514,4.1219,0.0,4.399,4.5859,4.7009,4.7009,4.6878,4.6708,4.6499,4.6473,4.6473,4.6473,4.6617,4.6957,4.7519,4.7192,4.7283,4.7858,4.7858,4.7963,4.8185,4.8185,4.8185,4.8185,4.8185,4.8185,4.8185,4.8185,4.8185,0.0,4.8185,4.8185,4.8185,4.8185,4.8185,4.8185,4.8185,4.8185,4.8185,4.8185,4.8185,4.8302,4.865,4.8881,4.924,4.9783,5.001,5.001,5.001,5.001,5.001,5.001,5.001,5.001,5.001,5.001,5.001,5.001,5.001,5.001,5.001,5.001,5.001,5.001,5.001,5.001,5.001,5.0235,5.0572,5.1238,5.1458,5.1677,5.2127,5.2127,5.2127,5.2343,5.2235,5.2235,5.2235,5.2004,5.1896,5.1896,5.1896,5.1787,5.1787,5.1787,5.1787,5.1787,5.2004,5.2235,5.2451,5.2451,5.268,0.0,3.9821,4.0239,4.0239,3.986,3.9337,0.0,0.0,0.0,3.79,3.79,3.79,3.79,3.79,3.7926,3.8018,3.8919,3.9638,3.9716,4.1167,0.0,4.4591,4.5754,4.6421,4.6421,4.6904,4.697,4.6395,4.6395,4.6408,4.6355,4.5898,4.5859,4.6342,4.6355,4.6669,4.7323,4.7336,4.7597,4.8133,4.8133,4.8133,4.8133,4.8159,4.8185,4.8185,4.8185,4.8185,4.8185,4.8185,4.8185,4.8185,4.8185,4.8185,4.8185,4.8185,4.8185,4.8185,4.8185,4.8185,4.8185,4.8185,4.865,4.924,4.9783,5.001,5.001,5.001,5.001,5.001,5.001,5.001,5.001,5.001,5.001,5.001,5.001,5.001,5.001,5.001,5.001,5.001,5.001,5.001,5.001,5.001,5.0572,5.1017,5.1348,5.1568,5.1896,5.2127,5.2004,5.1787,5.1787,5.2004,5.2127,5.2127,5.2127,5.2127,5.2127,5.1896,5.1787,5.1787,5.1787,5.1787,5.1787,5.1787,5.1896,5.2127,5.2127,5.2343,3.722,0.0,3.8501,3.8501,3.8397,3.8266,0.0,0.0,0.0,0.0,0.0,3.79,3.79,3.79,3.8187,3.9076,3.9429,3.9913,4.0788,4.2017,0.0,4.5205,4.5663,4.5833,4.5833,4.595,4.578,4.5192,4.5571,4.5624,4.5166,4.5454,4.548,4.5153,4.514,4.5846,4.7323,4.7336,4.7401,4.7532,4.7532,4.7532,4.7545,4.7989,4.8185,4.8185,4.8185,4.8185,4.8185,4.8185,4.8185,4.8185,4.8185,4.8185,4.8185,4.8185,4.8185,4.8185,4.8185,4.8185,4.8185,4.8548,4.901,4.9455,4.9683,4.9783,5.001,5.001,5.001,5.001,5.001,5.001,5.001,5.001,4.9783,4.9783,5.001,4.9783,4.9783,5.001,5.001,5.001,5.001,5.001,5.0123,5.0572,5.0795,5.1128,5.1896,5.1896,5.1896,5.2127,5.2004,5.1787,5.1787,5.1896,5.1896,5.1896,5.1896,5.1896,5.1896,5.1787,5.1787,5.1787,5.1787,5.1787,5.1787,5.1787,5.1787,5.1896,5.1896,5.2004,3.709,3.7456,3.756,3.7835,3.79,3.79,3.79,0.0,0.0,0.0,0.0,3.79,3.79,3.8109,3.8397,3.8762,3.9481,4.0474,4.1899,4.2853,4.4055,4.5807,4.6016,4.6016,4.6016,4.578,4.5375,4.4774,4.5036,4.5075,4.4748,4.5036,4.5062,4.4735,4.4996,4.5728,4.6931,4.6944,4.7205,4.7715,4.7453,4.7336,4.7336,4.7375,4.7545,4.7793,4.7793,4.7937,4.8185,4.8185,4.8185,4.8185,4.8185,4.8185,4.8185,4.8185,4.8185,4.8185,4.8185,4.8302,4.8431,4.8779,4.9125,4.9341,4.9569,4.9683,4.9783,5.001,5.001,5.001,5.001,5.001,5.001,4.9897,4.9683,4.9569,4.9569,4.9455,4.9455,4.9783,4.9783,4.9897,5.001,5.001,5.0123,5.046,5.0683,5.1128,5.1568,5.1677,5.1896,5.2004,5.1896,5.1787,5.1787,5.1787,5.1787,5.1787,5.1787,5.1787,5.1787,5.1787,5.1787,5.1787,5.1787,5.1787,5.1787,5.1896,5.2004,5.2004,5.2004,5.2127,3.7442,3.739,3.7142,3.7756,3.79,3.79,3.79,0.0,0.0,0.0,0.0,0.0,0.0,3.8331,0.0,0.0,0.0,4.105,4.2892,4.3493,4.4356,4.6016,4.6212,4.6212,4.6212,4.578,4.5271,4.4761,4.4722,4.4722,4.4722,4.4722,4.4722,4.4722,4.5218,4.5767,4.6342,4.6342,4.6878,4.7911,4.7349,4.7166,4.731,4.6826,4.6917,4.7453,4.7375,4.7649,4.8172,4.7989,4.7976,4.8041,4.7963,4.7976,4.8054,4.8054,4.8107,4.8185,4.8302,4.8431,4.8792,4.901,4.9125,4.924,4.9455,4.9569,4.9683,4.9897,5.001,5.001,5.001,5.001,4.9897,4.9683,4.9569,4.9455,4.924,4.9125,4.9125,4.9569,4.9569,4.9683,4.9897,5.001,5.001,5.0235,5.0683,5.1017,5.1128,5.1568,5.1896,5.1896,5.1787,5.1787,5.1787,5.1787,5.1787,5.1787,5.1787,5.1896,5.1896,5.1896,5.1896,5.1896,5.1787,5.1787,5.1787,5.2004,5.2127,5.2127,5.2127,5.2343,3.6828,3.7077,3.7142,3.7756,3.79,3.79,3.79,0.0,0.0,0.0,0.0,0.0,0.0,3.8279,3.8318,0.0,0.0,4.1193,4.3428,4.3402,4.3611,4.4853,4.4996,4.4996,4.4996,4.4918,4.4826,4.4735,4.4722,4.4722,4.4722,4.4722,4.4722,4.4722,4.4813,4.5153,4.5754,4.5754,4.6081,4.6734,4.6159,4.6395,4.7336,4.7244,4.7519,4.8028,4.7545,4.7649,4.8107,4.714,4.7035,4.7414,4.6931,4.7035,4.7466,4.7466,4.7767,4.8185,4.8548,4.8677,4.8677,4.8792,4.9125,4.9455,4.9227,4.9569,4.9897,5.001,5.001,5.001,5.001,5.001,5.001,4.9897,4.9569,4.924,4.9455,4.9125,4.8895,4.9455,4.9569,4.9683,4.9897,5.001,5.0235,5.1017,5.1238,5.1568,5.2343,5.2235,5.2127,5.2127,5.1896,5.1787,5.1787,5.1787,5.1787,5.1787,5.2004,5.2235,5.2559,5.2343,5.2127,5.2127,5.1896,5.1787,5.1787,5.1787,5.1896,5.1896,5.1896,5.1896,3.6684,3.6763,3.6737,3.7678,3.8122,3.8344,0.0,0.0,0.0,0.0,0.0,0.0,0.0,0.0,3.9298,4.0749,4.0945,4.1598,4.3598,4.365,4.3912,4.5075,4.4931,4.4853,4.5179,4.4918,4.4722,4.4722,4.4722,4.4722,4.4722,4.4722,4.4722,4.4722,4.4722,4.4866,4.514,4.514,4.5584,4.6473,4.6212,4.6199,4.6421,4.6734,4.7009,4.7244,4.6983,4.7375,4.8094,4.6957,4.6826,4.727,4.6695,4.6643,4.6878,4.6878,4.7231,4.7728,4.8074,4.8515,4.8895,4.8895,4.924,4.9569,4.9455,4.9569,4.9783,4.9783,4.9897,5.001,5.001,5.001,5.001,4.9783,4.9569,4.9341,4.9341,4.9125,4.901,4.9455,4.9569,4.9683,4.9897,5.0136,5.0375,5.0822,5.1238,5.1677,5.1924,5.2141,5.2127,5.2004,5.1896,5.1787,5.1787,5.1787,5.1787,5.1787,5.2205,5.2357,5.225,5.2329,5.2357,5.2019,5.1896,5.1787,5.1787,5.1896,5.2004,5.2004,5.2004,5.2127,3.6515,3.6567,3.6541,3.7469,3.8109,0.0,0.0,0.0,0.0,0.0,0.0,0.0,0.0,3.9403,4.0278,4.1729,4.1716,4.2108,4.3833,4.3964,4.4251,4.5297,4.5009,4.4905,4.5375,4.4996,4.4722,4.4722,4.4722,4.4722,4.4722,4.4722,4.4722,4.4722,4.4722,4.4722,4.4722,4.4722,4.5245,4.6277,4.6133,4.5976,4.5833,4.6133,4.6355,4.6473,4.6342,4.6852,4.7702,4.6538,4.6408,4.6878,4.629,4.6146,4.6303,4.6434,4.6748,4.7127,4.7455,4.8179,4.8925,4.8925,4.9234,4.9683,4.9569,4.9569,4.9569,4.9455,4.9683,4.9783,4.9783,4.9897,4.9897,4.9569,4.9455,4.9341,4.9125,4.901,4.9125,4.9455,4.9569,4.9683,4.9897,5.0249,5.0389,5.0599,5.1142,5.1582,5.1486,5.1801,5.2004,5.1787,5.1787,5.1787,5.1787,5.1787,5.1787,5.1787,5.2346,5.2498,5.2033,5.236,5.2388,5.191,5.1787,5.1787,5.1787,5.2004,5.2127,5.2127,5.2127,5.2235,3.6005,3.6541,3.6959,3.705,3.7521,0.0,3.8593,3.9181,0.0,3.9547,0.0,0.0,0.0,3.9991,4.0579,4.1259,4.1794,4.2696,4.4434,4.4199,4.4108,4.4722,4.4761,4.4748,4.4787,4.4761,4.4722,4.4722,4.4722,4.4722,4.4722,4.4722,4.4722,4.4722,4.4722,4.4722,4.4722,4.4722,4.5049,4.5689,4.5127,4.5401,4.6408,4.5911,4.5976,4.6447,4.5924,4.6029,4.6512,4.5336,4.5205,4.5689,4.5088,4.5192,4.5754,4.6277,4.6499,4.6651,4.6863,4.7595,4.8313,4.8313,4.9126,4.9897,4.9341,4.9341,4.9569,4.924,4.9125,4.9125,4.9125,4.9569,4.9897,4.9227,4.9125,4.901,4.8792,4.8677,4.8792,4.9125,4.9341,4.9683,4.9897,5.001,5.0235,5.0795,5.0906,5.1128,5.1677,5.1787,5.1787,5.1787,5.1787,5.1787,5.1787,5.1787,5.1787,5.1787,5.2386,5.2723,5.268,5.2386,5.2169,5.2127,5.1896,5.1787,5.1787,5.1787,5.1787,5.1787,5.1787,5.1787,3.5443,3.577,3.6109,3.6828,3.7456,0.0,0.0,3.9991,4.0566,4.0187,4.0109,0.0,0.0,0.0,4.105,4.1272,4.2095,4.3049,4.4055,4.4317,4.4487,4.4709,4.4722,4.4722,4.4722,4.4722,4.4722,4.4722,4.4722,4.4722,4.4722,4.4722,4.4722,4.4722,4.4722,4.4722,4.4722,4.4722,4.4839,4.5075,4.5218,4.5323,4.5415,4.5924,4.6081,4.5937,4.5728,4.595,4.6395,4.5218,4.5088,4.5571,4.497,4.4866,4.5101,4.531,4.5624,4.595,4.6048,4.6652,4.7529,4.7887,4.8379,4.8986,4.912,4.924,4.924,4.8895,4.901,4.9125,4.9125,4.9227,4.9341,4.9125,4.9125,4.9125,4.901,4.9125,4.9341,4.9341,4.9683,4.991,5.0263,5.0474,5.0683,5.1155,5.1348,5.1568,5.1787,5.1787,5.1787,5.1787,5.1787,5.1787,5.1787,5.1787,5.1787,5.1787,5.2371,5.2523,5.2141,5.2385,5.229,5.191,5.1896,5.1787,5.1787,5.1787,5.1787,5.1787,5.1787,5.1787,3.5195,3.5417,3.5783,3.6763,0.0,0.0,3.9351,4.0344,4.0971,4.0749,4.0553,0.0,0.0,0.0,0.0,4.1285,4.2278,4.3154,4.3546,4.4251,4.4657,4.4487,4.4617,4.4722,4.4722,4.4722,4.4722,4.4722,4.4722,4.4722,4.4722,4.4722,4.4722,4.4722,4.4722,4.4722,4.4722,4.4722,4.4722,4.4735,4.5153,4.5127,4.4761,4.5558,4.5715,4.5349,4.5349,4.5571,4.5859,4.5062,4.497,4.5297,4.4892,4.4722,4.4722,4.4722,4.4983,4.5349,4.5349,4.5936,4.6697,4.7093,4.7582,4.8046,4.8332,4.8452,4.8378,4.8347,4.8386,4.8541,4.8726,4.901,4.901,4.8881,4.8895,4.901,4.901,4.924,4.9455,4.9569,4.9783,5.001,5.0263,5.0474,5.0795,5.1155,5.1362,5.1568,5.1787,5.1787,5.1787,5.1787,5.1787,5.1787,5.1787,5.1787,5.1787,5.1787,5.218,5.2222,5.1815,5.2194,5.2222,5.1801,5.1787,5.1787,5.1787,5.1787,5.1787,5.1787,5.1787,5.1787,3.5286,3.5691,3.624,0.0,0.0,0.0,3.9351,4.003,4.0592,4.1193,4.084,4.0422,4.0409,4.0422,0.0,4.1206,4.2265,4.301,4.3023,4.4003,4.4513,4.3951,4.4382,4.4722,4.4722,4.4722,4.4722,4.4722,4.4722,4.4722,4.4722,4.4722,4.4722,4.4722,4.4722,4.4722,4.4722,4.4722,4.4722,4.4722,4.4722,4.4722,4.4722,4.4722,4.4722,4.4722,4.4722,4.4722,4.4722,4.4722,4.4722,4.4722,4.4722,4.4722,4.4722,4.4722,4.4722,4.4722,4.4722,4.5332,4.6038,4.6038,4.6667,4.7367,4.702,4.6909,4.6915,4.7166,4.7336,4.7466,4.8028,4.865,4.8895,4.8302,4.8431,4.8677,4.8677,4.8895,4.924,4.9569,4.9783,5.001,5.001,5.001,5.0235,5.0795,5.0906,5.1128,5.1677,5.1787,5.1787,5.1787,5.1787,5.1787,5.1787,5.1787,5.1787,5.1787,5.1787,5.1787,5.1787,5.1787,5.1787,5.1787,5.1787,5.1787,5.1787,5.1787,5.1787,5.1787,5.1787,5.1787,3.4672,3.5365,0.0,3.6332,0.0,0.0,0.0,4.003,0.0,0.0,4.1167,4.0919,4.0501,4.0762,4.0971,4.0723,4.1664,4.2565,4.2971,4.3663,4.4212,4.4447,4.4617,4.4722,4.4722,4.4722,4.4722,4.4722,4.4722,4.4722,4.4722,4.4722,4.4722,4.4722,4.4722,4.4722,4.4722,4.4722,4.4722,4.4722,4.4722,4.4722,4.4722,4.4722,4.4722,4.4722,4.4722,4.4722,4.4722,4.4722,4.4722,4.4722,4.4722,4.4722,4.4722,4.4722,4.4843,4.5072,4.4735,4.5069,4.551,4.5713,4.5962,4.6173,4.6468,4.6586,4.6625,4.6682,4.7022,4.7375,4.7545,4.8,4.8418,4.8185,4.8302,4.8315,4.8315,4.8548,4.8908,4.8895,4.9341,4.9783,5.001,5.0348,5.0795,5.1155,5.1362,5.1568,5.1787,5.1787,5.1787,5.1787,5.1787,5.1787,5.1787,5.1787,5.1787,5.1787,5.1787,5.1787,5.1787,5.1787,5.1787,5.1787,5.1787,5.1787,5.1787,5.1787,5.1787,5.1787,5.1787,5.1787,3.5365,3.5926,0.0,3.6763,3.7429,3.8305,3.9364,0.0,0.0,0.0,4.1311,4.1206,4.084,4.1076,4.1193,4.0827,4.1559,4.2291,4.2631,4.3376,4.4003,4.4343,4.4591,4.4722,4.4722,4.4722,4.4722,4.4722,4.4722,4.4722,4.4722,4.4722,4.4722,4.4722,4.4722,4.4722,4.4722,4.4722,4.4722,4.4722,4.4722,4.4722,4.4722,4.4722,4.4722,4.4722,4.4722,4.4722,4.4722,4.4722,4.4722,4.4722,4.4722,4.4722,4.4722,4.4722,4.4951,4.518,4.4843,4.4951,4.5246,4.5262,4.5271,4.5336,4.5676,4.578,4.5833,4.6081,4.6395,4.6761,4.7218,4.7584,4.7898,4.8133,4.8185,4.8185,4.8418,4.8548,4.8792,4.901,4.9341,4.9683,4.9897,5.0235,5.0572,5.1155,5.1582,5.1787,5.1787,5.1787,5.1787,5.1787,5.1787,5.1787,5.1787,5.1787,5.1787,5.1787,5.1787,5.1787,5.1787,5.1787,5.1787,5.1787,5.1787,5.1787,5.1787,5.1787,5.1787,5.1787,5.1787,5.1787,3.6698,3.692,0.0,3.7691,3.7534,0.0,3.9311,4.0527,4.1311,4.1311,0.0,4.1311,4.1311,4.1311,4.1311,4.1311,4.1755,4.221,4.216,4.3101,4.3926,4.3872,4.4382,4.4722,4.4722,4.4683,4.467,4.4722,4.467,4.467,4.4722,4.4722,4.4722,4.4722,4.4722,4.4722,4.4722,4.4722,4.4722,4.4722,4.4722,4.4722,4.4722,4.4722,4.4722,4.4722,4.4722,4.4722,4.4722,4.4722,4.4722,4.4722,4.4722,4.4722,4.4722,4.4722,4.4951,4.518,4.4843,4.4951,4.518,4.4843,4.4722,4.4722,4.4722,4.4722,4.4839,4.5388,4.5584,4.5872,4.6917,4.7218,4.7388,4.7911,4.8107,4.8302,4.8561,4.8677,4.8779,4.9341,4.9455,4.9569,4.9783,4.9683,4.9897,5.0683,5.1348,5.1677,5.1677,5.1787,5.1787,5.1787,5.1787,5.1787,5.1787,5.1787,5.1787,5.1787,5.1787,5.1787,5.1787,5.1787,5.1787,5.1787,5.1787,5.1787,5.1787,5.1731,5.1702,5.1702,5.1702,5.1702,3.5626,3.6319,0.0,0.0,3.8122,3.9259,4.0056,4.0801,4.1311,4.1311,4.1311,4.1311,4.1311,4.1311,4.1311,4.1311,4.1616,4.1953,4.2197,4.2968,4.3572,4.382,4.4382,4.4722,4.4722,4.4317,4.4238,4.4696,4.4304,4.4251,4.4709,4.4722,4.4722,4.4722,4.4722,4.4722,4.4722,4.4722,4.4722,4.4722,4.4722,4.4722,4.4722,4.4722,4.4722,4.4722,4.4722,4.4722,4.4722,4.4722,4.4722,4.4722,4.4722,4.4722,4.4722,4.4722,4.4951,4.518,4.4843,4.4951,4.518,4.4843,4.4722,4.4722,4.4722,4.4722,4.4761,4.4879,4.5258,4.5689,4.5937,4.6329,4.6695,4.6813,4.7532,4.8185,4.8302,4.8302,4.8315,4.8534,4.865,4.8895,4.901,4.9341,4.9797,5.0123,5.0683,5.1128,5.1128,5.1458,5.1787,5.1787,5.1787,5.1787,5.1787,5.1787,5.1787,5.1787,5.1787,5.1787,5.1787,5.1787,5.1787,5.1787,5.1787,5.1787,5.1787,5.1295,5.107,5.107,5.107,5.107,3.5966,0.0,0.0,3.7364,0.0,3.9677,3.9965,4.0697,4.1311,4.1311,4.1311,4.1311,4.1311,4.1311,4.1311,4.1311,4.1411,4.18,4.2461,4.2931,4.3337,4.3794,4.4134,4.4212,4.3938,4.3637,4.3585,4.3885,4.3637,4.3598,4.3899,4.4173,4.4317,4.4317,4.4591,4.4722,4.4722,4.4722,4.4722,4.4722,4.4722,4.4722,4.4722,4.4722,4.4722,4.4722,4.4722,4.4722,4.4722,4.4722,4.4722,4.4722,4.4722,4.4722,4.4722,4.4722,4.4951,4.518,4.4843,4.4951,4.518,4.4843,4.4722,4.4722,4.4722,4.4722,4.4722,4.4722,4.4957,4.5271,4.5558,4.5846,4.6133,4.6408,4.6931,4.7375,4.7375,4.7584,4.778,4.7998,4.835,4.8792,4.8895,4.9341,4.9683,5.001,5.046,5.1017,5.1348,5.1568,5.1787,5.1787,5.1787,5.1787,5.1787,5.1787,5.1787,5.1787,5.152,5.1351,5.1351,5.107,5.1183,5.1773,5.1787,5.1787,5.1787,5.1464,5.1309,5.1309,5.1309,5.1309,3.6567,0.0,3.7286,3.7782,3.8684,0.0,3.9586,4.0409,4.1193,4.1298,4.1311,4.1311,4.1311,4.1311,4.1311,4.1311,4.1311,4.1651,4.2592,4.2814,4.3049,4.352,4.3663,4.3546,4.3075,4.2931,4.2918,4.301,4.2931,4.2918,4.3023,4.3467,4.3716,4.3716,4.4278,4.4578,4.4578,4.467,4.4722,4.4722,4.4722,4.4722,4.4722,4.4722,4.4722,4.4722,4.4722,4.4722,4.4722,4.4722,4.4722,4.4722,4.4722,4.4722,4.4722,4.4722,4.4843,4.5072,4.4843,4.4843,4.5072,4.4843,4.4722,4.4722,4.4722,4.4722,4.4722,4.4722,4.4722,4.4839,4.5349,4.5467,4.5584,4.6068,4.6173,4.6238,4.6434,4.6852,4.7293,4.7508,4.803,4.84,4.8722,4.908,4.9335,4.9656,5.0235,5.0795,5.1224,5.1568,5.1635,5.1523,5.1731,5.1745,5.1632,5.1731,5.1787,5.1787,5.1211,5.0874,5.0874,5.0283,5.0438,5.145,5.1478,5.1478,5.1478,5.1478,5.1478,5.1478,5.159,5.1632,3.6057,0.0,3.7808,0.0,3.837,3.8972,0.0,0.0,4.0684,4.1206,4.1311,4.1311,4.1311,4.1311,4.1311,4.1311,4.1511,4.165,4.152,4.218,4.2637,4.2485,4.284,4.3101,4.3036,4.2565,4.2487,4.2984,4.2565,4.25,4.2997,4.3101,4.3141,4.3141,4.3689,4.399,4.399,4.4487,4.4722,4.4722,4.4722,4.4722,4.4722,4.4722,4.4722,4.4722,4.4722,4.4722,4.4722,4.4722,4.4722,4.4722,4.4722,4.4722,4.4722,4.4722,4.4735,4.4735,4.4735,4.4735,4.4735,4.4722,4.4722,4.4722,4.4722,4.4722,4.4722,4.4722,4.4722,4.4748,4.4826,4.4839,4.4866,4.4944,4.4957,4.5245,4.6251,4.6538,4.6591,4.6704,4.6769,4.6979,4.7476,4.7568,4.784,4.8339,4.8997,4.9328,4.9415,5.032,5.0809,5.0283,5.1137,5.1576,5.1042,5.1478,5.1787,5.1787,5.1211,5.0874,5.0874,5.0283,5.0045,5.0199,5.0199,5.0199,5.0199,5.0199,5.0199,5.0213,5.0747,5.1,3.5861,3.6985,3.79,0.0,3.8305,3.8776,3.905,3.9547,4.0043,4.0305,4.0605,4.0919,4.1259,4.1311,4.1311,4.1311,4.1411,4.1516,4.1742,4.2118,4.2377,4.216,4.2396,4.2422,4.2095,4.1834,4.1794,4.2043,4.1834,4.1794,4.2056,4.2369,4.2539,4.2539,4.3101,4.3402,4.3402,4.3964,4.4408,4.4722,4.4408,4.4421,4.4722,4.4722,4.4722,4.4722,4.4722,4.4722,4.4722,4.4722,4.4722,4.4722,4.4722,4.4722,4.4722,4.4722,4.4722,4.4722,4.4722,4.4626,4.4518,4.4626,4.4626,4.4518,4.4626,4.4722,4.4722,4.4722,4.4722,4.4722,4.4722,4.4722,4.4722,4.4722,4.4722,4.4866,4.5388,4.5767,4.6186,4.6826,4.6695,4.6656,4.7231,4.6947,4.6804,4.7621,4.7774,4.8219,4.8978,4.9815,5.0395,5.0492,5.1291,5.1674,5.1407,5.1323,5.1421,5.1773,5.0564,5.0002,5.034,4.944,4.8935,4.8935,4.9609,4.996,4.996,4.996,4.996,4.9974,5.0227,5.055,3.5665,0.0,3.7482,3.7639,3.7978,3.8344,0.0,3.9063,3.9416,3.9573,4.0043,4.0651,4.0997,4.1219,4.1311,4.1311,4.1311,4.1468,4.1886,4.1951,4.1951,4.1951,4.1951,4.1781,4.135,4.1311,4.1311,4.1311,4.1311,4.1311,4.1311,4.1716,4.1951,4.1951,4.2513,4.2814,4.2814,4.3376,4.3872,4.4291,4.3859,4.3872,4.4291,4.4447,4.4513,4.4513,4.467,4.4722,4.4722,4.4722,4.4722,4.4722,4.4722,4.4722,4.4722,4.4722,4.4722,4.4722,4.4722,4.4518,4.4313,4.4518,4.4409,4.4313,4.4409,4.4626,4.4722,4.4626,4.4626,4.4722,4.4722,4.4722,4.4722,4.4722,4.4722,4.4722,4.4722,4.5075,4.565,4.6499,4.6329,4.6225,4.68,4.6299,4.6065,4.698,4.6882,4.7139,4.8248,4.8967,4.9515,4.9941,5.0668,5.1145,5.1098,5.0817,5.0831,5.1295,4.989,4.9244,4.9707,4.8696,4.812,4.812,4.9019,4.9497,4.9497,4.9651,4.9721,4.9721,5.0045,5.0354,0.0,3.5757,3.6332,3.6907,3.7077,3.7377,3.8462,3.8736,3.8919,3.9494,4.025,4.0741,4.0461,4.0932,4.1311,4.1311,4.1311,4.1324,4.135,4.1363,4.1363,4.1363,4.1363,4.135,4.1311,4.1311,4.1311,4.1311,4.1311,4.1311,4.1311,4.135,4.1363,4.1363,4.1912,4.2213,4.2213,4.2775,4.3075,4.3114,4.3075,4.3088,4.3127,4.3663,4.3912,4.3951,4.4487,4.4722,4.4722,4.4722,4.4722,4.4722,4.4722,4.4722,4.4722,4.4722,4.4722,4.4722,4.4722,4.4518,4.4313,4.4313,4.4313,4.4203,4.3997,4.4313,4.4626,4.4422,4.4518,4.4722,4.4722,4.4722,4.4722,4.4722,4.4722,4.4722,4.4722,4.4748,4.4787,4.4853,4.4839,4.5009,4.5611,4.5454,4.5499,4.6395,4.6234,4.6247,4.6625,4.7171,4.7497,4.75,4.8514,4.9172,4.9126,4.9693,5.0016,5.0045,4.9412,4.9061,4.9089,4.8471,4.812,4.812,4.819,4.8218,4.8218,4.8808,4.9089,4.9117,5.0283,5.0522,0.0,0.0,3.6162,3.6371,3.6711,3.7116,3.7521,3.7913,3.8253,3.8462,3.904,3.9551,3.9821,4.0769,4.1511,4.1311,4.1311,4.1311,4.1311,4.1311,4.1311,4.1311,4.1311,4.1311,4.1311,4.1311,4.1311,4.1311,4.1311,4.1311,4.1311,4.1311,4.1311,4.1311,4.152,4.1794,4.216,4.2004,4.2291,4.3023,4.2644,4.267,4.3036,4.3232,4.3323,4.3363,4.3925,4.4382,4.4722,4.4722,4.4722,4.4722,4.4722,4.4722,4.4735,4.4518,4.4409,4.4409,4.4409,4.4081,4.3738,4.4203,4.4081,4.3738,4.3887,4.3997,4.4216,4.4313,4.4422,4.4518,4.4626,4.4722,4.4722,4.4722,4.4722,4.4722,4.4722,4.4722,4.4839,4.5232,4.4983,4.4918,4.5519,4.509,4.4688,4.5006,4.4823,4.4841,4.5288,4.5872,4.6588,4.7541,4.8394,4.9093,4.9651,4.9469,4.9539,4.9932,4.9005,4.864,4.9019,4.8457,4.812,4.812,4.812,4.812,4.812,4.8345,4.8457,4.8457,4.8907,4.9202,3.4999,0.0,0.0,3.5783,3.6136,3.6528,3.692,3.7312,3.7665,3.7861,3.8424,3.8922,3.9233,4.0276,4.115,4.1246,4.1141,4.1089,4.1285,4.1141,4.1089,4.1298,4.1311,4.1311,4.1311,4.1311,4.1311,4.1311,4.1311,4.1311,4.1311,4.1311,4.1311,4.1311,4.1311,4.1494,4.1873,4.1507,4.169,4.2448,4.2069,4.2082,4.2461,4.2644,4.2735,4.2762,4.3337,4.3912,4.446,4.4657,4.4722,4.4722,4.4722,4.4722,4.4626,4.4422,4.4313,4.4313,4.4216,4.3861,4.3504,4.3861,4.3738,4.3394,4.3543,4.3776,4.3899,4.4107,4.4203,4.4313,4.4626,4.4722,4.4722,4.4722,4.4722,4.4722,4.4722,4.4722,4.4839,4.5245,4.4996,4.4744,4.5161,4.4571,4.4216,4.4216,4.3874,4.3891,4.4374,4.4843,4.5634,4.6797,4.7379,4.793,4.8686,4.8534,4.8596,4.9106,4.8481,4.8302,4.871,4.8345,4.812,4.812,4.812,4.812,4.812,4.812,4.812,4.812,4.8345,4.8766,0.0,0.0,0.0,3.5129,3.5286,3.5587,3.6698,3.6985,3.7168,3.7756,3.849,3.8951,3.871,3.937,4.0228,4.1076,4.0775,4.0592,4.118,4.0762,4.0618,4.1219,4.1285,4.1298,4.1311,4.1311,4.1311,4.1311,4.1311,4.1311,4.1311,4.1311,4.1311,4.1311,4.1311,4.1311,4.1311,4.1311,4.1311,4.1311,4.1311,4.1311,4.1337,4.1886,4.2134,4.2173,4.2748,4.331,4.3872,4.4447,4.467,4.467,4.467,4.4683,4.4587,4.4396,4.43,4.4203,4.401,4.3653,4.3394,4.3394,4.3394,4.3283,4.3085,4.3432,4.3899,4.3899,4.4107,4.4313,4.4626,4.4722,4.4722,4.4722,4.4722,4.4722,4.4722,4.4722,4.4722,4.4722,4.4722,4.4626,4.4313,4.4107,4.3899,4.3899,4.364,4.3517,4.3776,4.4107,4.4518,4.5033,4.5368,4.5808,4.6323,4.6977,4.7301,4.7301,4.7815,4.812,4.812,4.812,4.812,4.812,4.812,4.812,4.812,4.812,4.812,4.8134,4.8738,4.9328,3.4397,0.0,0.0,0.0,0.0,0.0,3.5704,3.641,3.705,3.722,3.7808,3.8332,3.8632,3.8935,3.9289,3.9965,3.9939,3.9886,4.0056,3.9939,4.0043,4.0592,4.0671,4.084,4.1272,4.1311,4.1311,4.1311,4.1311,4.1311,4.1311,4.1311,4.1311,4.1311,4.1311,4.1311,4.1311,4.1311,4.1311,4.1311,4.1311,4.1311,4.1324,4.1481,4.1546,4.1585,4.216,4.2487,4.2683,4.3258,4.3493,4.3493,4.3493,4.3636,4.3773,4.3463,4.3502,4.3628,4.3517,4.3295,4.3184,4.3283,4.3295,4.3085,4.2974,4.3098,4.3321,4.3517,4.3764,4.4107,4.4626,4.4722,4.4722,4.4722,4.4722,4.4722,4.4722,4.4722,4.4722,4.4722,4.4722,4.4626,4.4313,4.4203,4.3984,4.364,4.3504,4.3406,4.3209,4.3308,4.364,4.4479,4.46,4.4912,4.5741,4.6296,4.6755,4.695,4.7494,4.7917,4.812,4.7917,4.7815,4.7815,4.761,4.7507,4.7507,4.7917,4.812,4.812,4.8302,4.8471,0.0,0.0,0.0,0.0,0.0,0.0,3.5521,3.6149,3.6776,3.7273,3.7665,3.8004,3.8318,3.837,3.8488,3.8841,3.8893,3.9063,3.9547,3.939,3.9442,4.0017,4.0082,4.0213,4.0566,4.0605,4.0697,4.0919,4.0932,4.105,4.1311,4.1311,4.1311,4.1311,4.1311,4.1311,4.1311,4.1311,4.1311,4.1311,4.1311,4.1311,4.1311,4.1311,4.1311,4.1337,4.1664,4.1808,4.1834,4.2173,4.2592,4.3023,4.3023,4.3009,4.307,4.2764,4.2659,4.2747,4.2865,4.2843,4.2783,4.3108,4.3073,4.2936,4.2698,4.2635,4.2746,4.2954,4.3296,4.3573,4.3747,4.3971,4.4274,4.4369,4.4552,4.4722,4.4722,4.4626,4.4518,4.4735,4.4626,4.4409,4.4216,4.3984,4.3738,4.3295,4.3184,4.3184,4.2974,4.3085,4.3406,4.3823,4.4068,4.4287,4.4804,4.5355,4.5781,4.5887,4.6506,4.6936,4.7377,4.7274,4.7288,4.7507,4.7405,4.7301,4.7301,4.7712,4.8018,4.812,4.812,4.812,0.0,0.0,0.0,0.0,0.0,0.0,3.5678,3.5966,3.6319,3.739,3.7665,3.7704,3.7704,3.7756,3.7782,3.7717,3.7808,3.8266,3.9272,3.8958,3.8841,3.9442,3.9507,3.9534,3.9599,3.9612,3.9808,4.0292,4.0383,4.0644,4.1193,4.1272,4.1311,4.1311,4.1311,4.1311,4.1311,4.1311,4.1311,4.1311,4.1311,4.1311,4.1311,4.1311,4.1311,4.1311,4.1311,4.1311,4.1311,4.1311,4.1912,4.2827,4.2827,4.2658,4.2383,4.2185,4.1919,4.1739,4.2003,4.207,4.2145,4.2635,4.2798,4.271,4.2208,4.207,4.2179,4.241,4.2723,4.281,4.2602,4.2967,4.3475,4.3675,4.416,4.4552,4.4509,4.4427,4.4235,4.4613,4.4422,4.4216,4.3887,4.364,4.3283,4.3085,4.2974,4.2974,4.2974,4.3184,4.3394,4.3394,4.3653,4.3789,4.3789,4.4313,4.4613,4.4613,4.5114,4.5741,4.6309,4.6309,4.6533,4.7095,4.7095,4.7198,4.7198,4.7507,4.7815,4.8018,4.8018,4.8018,0.0,0.0,0.0,0.0,0.0,0.0,3.4672,3.5103,3.5521,3.5757,3.6149,3.6449,3.6449,3.6854,3.7024,3.6541,3.7273,3.7978,3.8214,3.8135,3.8266,3.8815,3.8893,3.9076,3.956,3.9612,3.9651,3.9756,4.0174,4.0461,4.0592,4.105,4.1311,4.1311,4.1311,4.1311,4.1311,4.1311,4.1311,4.1311,4.1311,4.1311,4.1311,4.1311,4.1311,4.1311,4.1311,4.1311,4.1311,4.1097,4.1227,4.1651,4.1651,4.1619,4.1503,4.1503,4.1482,4.1354,4.1467,4.1505,4.1517,4.163,4.1656,4.1643,4.153,4.1505,4.1492,4.184,4.1935,4.2123,4.2208,4.2564,4.2747,4.2852,4.3048,4.3375,4.3604,4.3588,4.3635,4.4016,4.3997,4.3887,4.3517,4.3394,4.3283,4.3085,4.2974,4.2974,4.2974,4.3085,4.3085,4.3085,4.3098,4.3209,4.3209,4.3776,4.4203,4.4383,4.4912,4.5328,4.5622,4.5449,4.5582,4.5914,4.6126,4.6337,4.6533,4.7081,4.7405,4.7507,4.7712,4.7815,0.0,0.0,0.0,3.4476,0.0,0.0,0.0,3.5077,3.5378,3.5639,3.5913,3.6109,3.6109,3.6345,3.6449,3.6149,3.6867,3.7456,3.7456,3.7717,3.8004,3.8279,3.8305,3.8423,3.8723,3.8762,3.8867,3.9141,3.969,4.0017,4.0017,4.0305,4.0592,4.0853,4.0867,4.101,4.1311,4.1311,4.1311,4.1311,4.1311,4.1311,4.1311,4.1311,4.1311,4.1311,4.1311,4.1211,4.1097,4.0997,4.0896,4.0909,4.0909,4.0772,4.0708,4.0708,4.0588,4.0563,4.084,4.0927,4.0978,4.1254,4.1342,4.1291,4.1015,4.0927,4.0865,4.0812,4.0938,4.1182,4.1205,4.1425,4.1734,4.1956,4.228,4.2682,4.2741,4.2918,4.2997,4.3194,4.3365,4.3432,4.3406,4.3295,4.3184,4.2974,4.2974,4.2974,4.2974,4.2974,4.2974,4.2974,4.2974,4.2974,4.2974,4.3321,4.3543,4.3628,4.3945,4.4274,4.4696,4.4613,4.4735,4.5167,4.5595,4.5688,4.5582,4.6455,4.6991,4.7301,4.7405,4.7507,0.0,0.0,0.0,0.0,0.0,3.5129,0.0,0.0,0.0,3.5678,3.577,3.577,3.577,3.5874,3.5913,3.5796,3.6371,3.6789,3.6684,3.7181,3.7639,3.7874,3.79,3.79,3.79,3.79,3.8083,3.8514,3.9102,3.9442,3.9442,3.9547,3.9808,4.0239,4.0265,4.054,4.1141,4.1141,4.1206,4.1311,4.1311,4.1311,4.1311,4.1311,4.1311,4.1311,4.1311,4.1211,4.0997,4.0896,4.0694,4.0504,4.0504,4.0287,4.007,4.007,3.9878,3.976,4.0212,4.0362,4.0438,4.0877,4.1015,4.094,4.0488,4.0362,4.0262,3.9823,4.0011,4.0249,4.0094,4.0413,4.0847,4.1067,4.1529,4.1888,4.199,4.2174,4.2316,4.2321,4.2469,4.2834,4.3257,4.3184,4.2974,4.2974,4.2974,4.2974,4.2974,4.2974,4.2974,4.2974,4.2974,4.2974,4.2974,4.2974,4.2974,4.2974,4.2974,4.3209,4.3666,4.3776,4.3984,4.4396,4.5059,4.5059,4.4626,4.5609,4.6455,4.6977,4.7095,4.7198,0.0,0.0,0.0,0.0,3.445,0.0,0.0,0.0,3.4515,3.458,0.0,3.4593,3.4593,0.0,0.0,3.4672,3.5495,3.6044,3.5561,3.5966,3.6711,3.7782,3.79,3.79,3.79,3.79,3.7926,3.7991,3.8501,3.8815,3.8815,3.9324,3.9638,3.9703,3.9703,3.9965,4.0514,4.0514,4.0788,4.1311,4.1311,4.1311,4.1311,4.1311,4.1311,4.1311,4.1311,4.1311,4.1211,4.0707,4.0504,4.0504,4.0504,4.0287,4.007,4.007,3.9878,3.9697,3.9772,3.9785,3.9798,3.986,3.9885,3.9873,3.981,3.9785,3.9772,3.971,3.9735,3.9772,3.971,3.9928,4.0172,4.0274,4.044,4.0722,4.0999,4.1047,4.1145,4.1449,4.148,4.1831,4.2922,4.2974,4.2974,4.2974,4.2974,4.2974,4.2974,4.2974,4.2974,4.2974,4.2974,4.2974,4.2974,4.2974,4.2974,4.2974,4.2974,4.2986,4.3085,4.3295,4.3517,4.3504,4.419,4.4422,4.4313,4.4735,4.5167,4.5808,4.6574,4.6991,0.0,0.0,0.0,0.0,0.0,0.0,3.4554,0.0,3.4397,0.0,0.0,0.0,0.0,0.0,0.0,0.0,3.5103,3.5561,3.5325,3.5757,3.6292,3.6802,3.6867,3.6998,3.7351,3.7691,3.79,3.79,3.8109,3.824,3.824,3.8488,3.8762,3.9076,3.9089,3.9364,3.9939,3.9952,4.0226,4.0788,4.0788,4.0971,4.1311,4.1311,4.1311,4.1311,4.1311,4.1211,4.0997,4.0707,4.0402,4.0287,4.0096,3.9993,3.989,3.989,3.9788,3.9697,3.9697,3.9697,3.9697,3.9697,3.9697,3.9697,3.9697,3.9697,3.9697,3.9697,3.9697,3.9697,3.9697,3.9788,3.989,3.989,3.9993,4.0069,4.0181,4.0484,4.0681,4.0814,4.1116,4.148,4.1944,4.2032,4.2032,4.2032,4.2032,4.2032,4.2032,4.2308,4.2497,4.2497,4.2785,4.2974,4.2974,4.2974,4.2974,4.2974,4.2974,4.2974,4.2974,4.3085,4.3184,4.3184,4.3764,4.3887,4.3543,4.4287,4.4626,4.4653,4.5715,4.6139,3.5561,0.0,0.0,0.0,0.0,0.0,0.0,0.0,0.0,0.0,0.0,0.0,0.0,0.0,3.4397,3.4397,0.0,3.5051,3.5051,3.5391,3.5757,3.607,3.6109,3.6279,3.6711,3.7299,3.7652,3.7652,3.7808,3.79,3.79,3.79,3.8083,3.8475,3.8488,3.8776,3.9364,3.9534,3.9808,4.02,4.0514,4.0801,4.1076,4.1132,4.1211,4.1211,4.111,4.0997,4.0795,4.0491,4.0287,4.0083,3.9788,3.9697,3.9697,3.9697,3.9697,3.9697,3.9697,3.9697,3.9697,3.9697,3.9697,3.9697,3.9697,3.9697,3.9697,3.9697,3.9697,3.9697,3.9697,3.9697,3.9697,3.9697,3.9697,3.9697,3.9697,4.0011,4.0287,4.0287,4.0614,4.089,4.089,4.1141,4.1342,4.1342,4.1342,4.1342,4.1342,4.1681,4.1932,4.1932,4.2283,4.2522,4.2522,4.2672,4.2811,4.2974,4.2974,4.2974,4.2974,4.2974,4.2974,4.2974,4.3444,4.3444,4.2974,4.3848,4.4081,4.3666,4.4843,4.5381,0.0,0.0,0.0,3.6083,0.0,0.0,0.0,0.0,3.4397,0.0,0.0,0.0,3.4397,3.4397,3.4397,3.4397,3.441,0.0,0.0,3.4437,3.4868,3.5966,3.6109,3.6109,3.6136,3.6671,3.7037,3.7037,3.7573,3.79,3.79,3.79,3.7913,3.7926,3.7926,3.8187,3.8736,3.9324,3.9625,3.9651,4.0762,4.0997,4.0461,4.0724,4.0883,4.0883,4.0593,4.0504,4.0504,4.0185,4.007,4.0083,3.9788,3.9697,3.9697,3.9697,3.9697,3.9697,3.9697,3.9697,3.9697,3.9697,3.9697,3.9697,3.9697,3.9697,3.9697,3.9697,3.9697,3.9697,3.9697,3.9697,3.9697,3.9697,3.9697,3.9697,3.9697,3.971,3.9722,3.9722,3.9735,3.9747,3.9747,4.0626,4.1342,4.1342,4.1342,4.1342,4.1342,4.1354,4.1367,4.1367,4.1379,4.1392,4.1392,4.1882,4.2409,4.2949,4.2974,4.2974,4.2974,4.2974,4.2974,4.2974,4.2986,4.2974,4.2974,4.3085,4.3085,4.3085,4.4177,4.4722,3.6454,3.6417,3.6326,3.5976,3.5742,0.0,0.0,0.0,0.0,0.0,0.0,0.0,0.0,3.4672,3.4397,3.4397,3.4397,3.4397,0.0,3.4314,3.4302,3.4764,3.5253,3.5574,3.5574,3.6436,3.6998,3.6998,3.756,3.79,3.79,3.79,3.79,3.79,3.79,3.7991,3.8174,3.8383,3.8658,3.9024,3.9403,3.969,3.9899,4.0166,4.0327,4.0352,4.0438,4.0504,4.0504,4.0185,4.007,4.0083,3.9788,3.9697,3.9697,3.9697,3.9697,3.9697,3.9697,3.9697,3.9697,3.9697,3.9697,3.9697,3.9697,3.9697,3.9697,3.9697,3.9697,3.9697,3.9697,3.9697,3.9697,3.9697,3.9697,3.9697,3.9697,3.9697,3.9697,3.9697,3.9581,3.9478,3.9478,3.9568,3.9711,3.9922,3.9817,3.9606,3.9606,4.0046,4.0269,4.0269,4.0579,4.0777,4.0777,4.1297,4.1805,4.209,4.2438,4.275,4.2974,4.2974,4.2974,4.2974,4.2974,4.2974,4.2974,4.2974,4.2974,4.2974,4.3039,4.3393,3.6728,3.674,3.6663,3.6315,3.6071,3.5825,3.531,0.0,3.4972,0.0,0.0,0.0,0.0,0.0,3.4397,3.4314,3.4314,3.4397,0.0,3.416,3.4076,3.3992,3.4497,3.4979,3.5174,3.5865,3.6567,3.6972,3.7364,3.7678,3.79,3.79,3.79,3.79,3.79,3.79,3.79,3.8096,3.8173,3.8329,3.8847,3.9225,3.9323,3.9792,4.004,4.0066,4.0134,4.0198,4.0198,3.9993,3.9981,3.9981,3.9788,3.9697,3.9697,3.9697,3.9697,3.9697,3.9697,3.9697,3.9697,3.9697,3.9697,3.9697,3.9697,3.9697,3.981,4.04,4.0149,3.9835,4.0413,4.0136,3.9697,3.9697,3.9697,3.9697,3.9697,3.9594,3.9581,3.9581,3.9374,3.9154,3.9154,3.8841,3.8736,3.905,3.8945,3.8841,3.8841,3.916,3.9382,3.9382,3.9677,3.9959,4.0156,4.0512,4.0905,4.1297,4.1632,4.2052,4.2273,4.2384,4.2672,4.3263,4.2698,4.2685,4.3263,4.2685,4.2396,4.2384,4.2032,4.2276]}]]